GEFSMA_500_meanwind_000.txt.gz
Wind_Speed
25 28 30 33 35 36 39 40 40 40 38 38 37 38 37 38 39 40 41 42 43 45 46 45 46 46 47 47 48 49 51 52 52 52 52 51 51 50 48 46 45 44 44
30 32 34 36 36 35 35 35 35 35 36 36 37 39 39 40 41 43 44 45 47 49 51 51 51 52 52 53 53 53 54 55 55 54 53 53 53 52 51 50 48 47 47
34 35 36 35 35 34 34 34 34 35 36 38 39 41 42 44 47 48 50 51 51 52 53 54 55 55 55 55 56 57 58 58 59 59 58 57 57 56 55 55 53 51 50
37 37 36 35 34 35 35 36 38 39 41 42 43 45 47 48 50 51 52 53 54 54 54 54 56 57 57 56 56 56 57 58 59 60 61 61 61 61 60 59 58 57 56
37 35 35 34 35 37 38 40 42 44 46 47 48 49 50 50 50 51 52 55 57 59 60 60 60 60 61 61 60 59 59 60 60 61 61 61 60 61 61 62 61 60 59
35 35 35 36 38 40 42 44 46 48 50 50 50 50 50 52 54 56 58 61 63 65 67 68 67 66 66 67 69 69 69 69 68 67 66 65 63 61 60 61 61 61 60
35 37 39 40 42 44 46 48 48 48 49 51 53 54 56 59 61 65 67 69 70 72 74 74 76 76 77 77 77 77 77 77 75 74 73 70 66 64 62 61 62 61 61
38 40 41 42 44 46 47 47 48 49 50 53 57 60 62 64 66 70 73 75 77 78 79 79 80 82 83 84 84 84 83 83 82 80 78 77 73 69 66 64 63 62 62
39 40 42 44 44 45 46 48 49 52 54 58 62 66 70 73 75 75 78 80 83 84 85 85 85 87 89 90 90 90 90 91 88 87 85 84 80 77 72 68 67 66 65
41 42 43 44 45 47 49 52 55 58 61 65 69 73 76 80 83 85 87 90 92 93 93 93 93 93 95 96 96 95 94 94 92 91 89 85 81 77 71 71 71 70 68
41 43 45 46 49 51 54 58 62 66 69 72 75 79 82 84 87 91 93 96 98 99 98 98 99 99 100 100 100 99 98 95 92 89 87 81 73 71 69 72 73 72 71
43 46 48 51 54 56 60 64 67 70 72 75 79 83 86 89 92 94 96 98 99 100 101 100 101 103 104 104 101 98 97 91 86 83 83 82 73 75 78 74 76 75 69
46 50 53 55 58 60 63 66 68 71 75 79 83 86 88 91 95 98 101 102 104 105 106 105 104 103 104 103 98 91 84 79 80 78 78 82 81 82 83 80 77 76 79
51 53 56 59 61 63 65 68 72 76 80 83 86 89 92 95 98 100 102 105 106 107 106 102 99 96 94 91 86 81 74 70 73 75 78 80 82 82 83 89 88 80 75
53 57 60 62 64 66 69 73 77 80 83 87 91 93 95 97 97 97 98 99 100 103 101 92 89 86 87 85 81 78 72 68 70 70 71 77 82 83 83 82 91 92 83
59 62 64 66 68 71 74 78 81 84 88 91 95 97 97 97 97 97 97 96 96 98 97 86 82 81 84 86 85 80 75 70 68 68 66 68 72 78 82 84 84 87 94
64 66 67 69 72 76 79 81 85 88 92 94 96 98 99 98 97 97 95 94 92 90 89 81 77 72 73 78 83 84 80 75 69 67 67 68 67 68 75 77 80 84 86
67 68 71 74 77 80 83 86 89 92 94 96 97 98 96 96 97 96 93 89 84 80 78 75 72 69 66 66 69 75 79 79 74 68 67 65 62 60 61 64 65 69 74
69 71 74 77 80 83 86 89 92 94 96 97 96 95 95 95 94 92 86 81 76 72 70 75 73 70 68 65 66 65 68 75 76 72 69 68 65 62 61 60 58 58 61
71 74 77 80 83 86 89 92 95 97 97 95 94 94 92 91 91 86 79 73 70 69 71 74 69 67 66 63 63 62 60 63 72 76 73 72 71 70 68 67 65 65 66
74 77 79 82 86 88 92 95 97 98 95 93 91 88 88 89 87 80 74 70 69 69 71 68 67 65 62 61 59 56 53 50 57 70 79 76 74 73 72 73 74 74 75
76 79 82 86 89 91 94 96 97 94 90 88 87 85 87 87 81 74 70 68 66 67 65 65 65 62 57 57 55 51 46 42 41 48 64 74 77 75 75 78 80 79 75
79 82 86 89 91 93 95 95 93 86 84 85 85 85 86 83 75 69 65 62 61 61 60 63 64 60 57 54 52 45 40 37 31 29 39 46 54 59 61 59 56 53 53
82 85 88 90 93 94 94 90 83 80 82 83 84 85 84 77 72 66 62 58 56 56 58 60 59 58 55 51 46 40 33 25 19 18 23 25 31 34 35 36 38 40 44
85 88 92 94 94 92 89 83 79 80 80 80 83 84 79 72 67 61 58 55 54 54 55 55 51 51 49 45 39 30 22 12 6 7 13 15 18 22 27 30 34 36 38
88 92 95 95 93 89 84 79 78 78 78 79 81 79 72 65 60 56 55 55 54 52 50 44 41 41 40 37 32 26 17 8 10 6 5 7 9 16 19 21 24 26 29

GEFSMA_500_meanwind_006.txt.gz
Wind_Speed
28 27 28 29 31 32 33 34 36 37 38 38 37 36 35 35 35 35 35 36 37 39 40 41 42 43 43 43 44 44 45 46 46 47 47 48 49 50 51 52 52 52 52
32 31 32 33 34 35 36 36 36 36 36 36 35 35 35 35 36 37 38 39 39 40 40 41 42 44 45 46 47 48 49 51 52 53 53 53 53 53 53 54 54 54 54
33 34 35 36 36 35 34 33 32 32 33 33 34 34 35 36 37 39 40 40 40 40 41 43 45 47 49 52 54 55 57 58 59 60 61 61 60 59 58 57 56 56 55
33 35 36 34 32 32 31 31 30 31 32 33 34 34 34 36 38 39 41 42 42 44 46 48 50 51 53 56 58 61 63 64 65 66 66 66 65 65 65 64 63 61 60
35 36 35 33 32 32 32 32 32 33 34 35 35 36 37 38 40 42 43 45 47 50 52 54 56 58 59 61 63 65 68 70 70 70 71 71 70 69 69 69 69 69 68
36 38 38 37 36 35 34 34 34 35 37 38 39 39 41 42 44 46 48 51 53 56 58 61 63 65 67 68 68 69 71 74 75 77 78 78 77 75 73 72 72 72 73
38 39 39 38 37 37 37 37 37 39 41 42 43 44 46 48 50 53 55 57 60 61 64 66 68 70 72 74 75 75 75 76 78 80 82 83 83 83 81 78 77 76 76
40 40 38 37 38 39 39 40 42 43 45 47 49 51 52 53 56 58 60 61 63 64 66 69 71 74 77 79 80 81 82 81 81 82 83 85 86 87 87 87 85 83 81
40 38 38 39 40 41 42 44 45 47 49 52 55 59 62 63 62 61 62 65 67 70 73 76 78 80 82 84 85 86 87 87 87 86 86 87 89 91 93 93 92 90 86
40 40 40 41 42 43 45 47 49 52 55 58 61 64 67 69 72 71 70 71 74 76 78 81 83 86 88 88 89 90 92 93 93 92 92 92 93 94 96 97 98 97 92
40 40 41 42 44 46 49 51 54 57 60 63 66 68 69 72 74 76 77 78 80 82 84 87 89 91 93 94 96 98 99 100 100 99 98 97 97 97 97 98 100 100 97
39 40 42 44 47 50 52 55 58 61 64 67 69 71 73 75 78 80 82 83 85 87 90 92 95 97 99 101 102 103 104 104 104 103 102 100 97 95 94 92 92 94 96
41 43 46 48 51 53 56 59 62 65 67 69 71 73 75 77 80 84 88 90 91 91 94 96 99 101 102 104 104 104 103 100 97 96 94 92 90 88 85 81 79 82 88
44 46 49 51 54 57 60 63 66 68 70 72 73 75 77 80 83 88 93 98 100 98 99 100 100 101 101 101 100 98 95 90 85 83 80 79 78 77 76 74 74 77 81
46 49 52 55 58 61 64 67 69 70 71 72 74 77 80 84 88 93 98 103 107 108 106 103 101 98 96 94 90 87 84 79 76 73 72 71 70 70 69 68 68 71 75
49 52 56 59 62 65 68 70 71 71 72 74 78 81 85 90 95 99 103 105 106 107 108 102 97 92 86 84 82 81 78 75 72 69 68 68 68 68 67 67 67 66 70
54 57 61 63 66 68 70 71 71 72 74 77 82 87 92 97 100 103 105 104 102 100 100 96 90 84 81 78 75 74 73 71 68 65 65 65 65 66 66 66 66 65 66
58 61 65 67 69 69 70 70 71 73 77 82 88 93 98 102 104 104 102 99 95 93 93 91 84 81 77 73 69 65 63 63 63 63 63 63 62 63 63 64 65 65 65
62 66 68 68 68 67 68 70 73 77 83 88 94 99 103 105 103 100 95 90 88 87 86 86 82 78 72 66 63 59 57 57 58 61 61 60 60 60 60 61 63 65 66
66 67 66 65 65 66 70 74 78 83 88 94 99 102 104 102 97 92 88 85 84 83 81 82 82 75 68 63 62 60 57 55 55 56 55 54 55 55 55 56 59 61 63
66 64 63 63 66 70 75 80 84 89 95 99 102 102 100 95 89 85 82 81 81 80 81 83 79 71 66 64 62 60 57 52 48 48 49 46 48 48 48 50 51 53 56
64 61 62 66 71 76 81 86 91 96 100 102 102 98 93 86 80 77 75 76 77 78 83 81 74 67 64 62 59 55 52 48 40 37 41 37 38 36 35 36 38 41 46
61 62 66 71 76 82 88 93 97 101 103 102 98 91 83 76 73 71 72 73 73 78 79 73 68 64 61 57 53 47 43 40 34 31 30 24 23 22 22 23 25 29 36
62 66 71 77 83 88 94 98 102 104 102 97 88 80 74 70 69 71 72 73 77 76 68 63 61 59 54 49 44 40 36 30 25 24 21 12 11 12 14 17 20 21 25
66 71 77 83 88 93 98 103 106 104 96 87 77 72 70 69 69 73 77 78 76 64 56 54 51 48 44 40 37 34 31 26 18 16 15 7 4 6 8 11 13 11 13
71 77 82 88 93 97 102 105 104 98 89 79 72 68 68 71 73 77 78 74 61 51 46 40 36 34 33 32 32 31 29 23 14 12 13 7 3 3 2 6 6 4 5

GEFSMA_500_meanwind_012.txt.gz
Wind_Speed
32 33 34 33 33 32 32 34 35 36 36 35 35 35 35 35 35 34 34 35 36 37 38 40 41 42 42 42 42 43 44 45 45 46 46 47 48 48 48 48 48 48 48
31 30 30 30 30 31 32 33 35 35 35 34 34 34 34 34 35 36 36 37 38 39 40 41 42 43 44 45 46 48 49 50 50 51 52 53 54 55 55 54 54 54 54
28 27 26 28 29 30 31 33 35 36 35 35 35 35 36 36 37 38 39 40 41 42 44 45 46 47 48 49 50 52 54 55 56 57 58 58 59 59 60 60 59 59 60
26 26 27 29 31 32 34 36 37 37 36 36 36 37 38 39 40 41 42 43 45 46 47 49 50 51 53 55 56 58 60 62 63 64 65 66 66 66 66 66 66 66 66
26 27 30 32 34 35 37 40 40 39 37 37 37 39 39 40 41 43 44 46 48 50 52 54 56 58 60 62 64 65 67 68 69 70 71 72 73 73 73 73 72 72 72
28 31 33 35 37 38 40 42 42 40 39 38 38 39 41 42 44 46 48 50 53 55 58 60 62 64 66 68 69 70 71 72 73 74 75 76 77 78 78 79 78 78 78
31 34 36 38 39 41 42 43 42 42 41 39 39 40 43 46 47 50 53 56 58 61 64 66 68 69 70 72 73 74 76 77 78 79 81 81 82 82 83 84 84 85 85
34 37 39 41 42 43 43 42 40 40 41 42 43 44 46 48 52 55 57 60 63 65 67 69 70 72 73 74 75 76 77 78 80 81 83 85 86 87 88 89 90 91 92
37 39 41 42 43 42 40 39 40 41 43 46 48 51 53 54 55 56 59 62 65 67 68 70 71 73 74 75 75 76 78 80 83 85 87 90 92 93 95 96 97 97 98
39 41 41 42 41 39 39 41 43 45 47 50 54 57 61 63 65 65 63 63 65 67 68 70 72 73 75 77 79 81 84 86 89 91 93 95 97 99 101 102 103 103 103
40 41 41 40 40 41 42 44 47 49 52 55 58 61 64 67 71 74 73 71 68 67 68 70 74 78 81 84 87 90 93 95 98 100 101 103 104 105 106 107 108 108 108
40 40 40 40 42 44 45 47 50 54 57 60 62 64 66 68 70 72 74 75 74 73 73 76 81 86 91 94 98 101 103 106 107 109 110 110 110 110 110 110 110 109 109
40 40 40 42 44 46 48 50 54 58 61 63 65 67 68 70 71 72 74 75 76 78 81 85 90 96 100 104 107 111 113 115 115 115 114 113 111 109 106 105 104 103 103
40 41 42 44 46 48 51 54 58 61 63 65 67 68 68 69 71 74 78 82 83 84 86 91 97 103 109 113 116 118 119 118 116 113 111 107 103 100 96 93 92 91 92
41 42 44 47 49 51 54 58 62 65 67 68 68 68 69 71 75 79 84 90 95 96 95 98 104 110 115 119 119 118 115 110 104 100 96 92 89 86 84 83 81 80 81
43 45 47 50 52 55 58 62 66 68 69 69 69 70 72 76 80 85 91 97 103 108 108 107 112 116 118 117 113 108 102 94 88 84 82 80 79 79 79 77 76 74 74
45 48 50 53 55 59 63 66 69 70 70 69 71 73 77 82 87 92 97 102 108 114 119 118 117 114 109 103 96 90 85 82 79 78 79 79 79 77 74 73 72 71 71
48 50 53 56 59 63 67 70 70 70 69 70 73 77 82 88 92 98 103 109 114 119 123 121 112 101 91 83 78 75 76 77 79 79 78 76 73 70 69 68 67 67 67
51 53 56 60 64 67 70 70 69 68 70 73 78 84 89 94 99 105 111 116 120 119 115 109 99 88 80 76 74 73 74 75 74 72 68 66 64 63 61 61 61 61 61
53 56 60 64 67 69 69 68 67 69 73 79 85 90 96 102 107 113 117 119 117 111 102 95 88 83 78 75 74 72 67 62 58 57 56 55 54 54 54 54 53 52 52
55 59 63 67 68 68 67 67 69 73 79 85 91 97 103 109 114 118 118 114 106 98 92 87 83 78 73 70 67 62 55 47 42 43 44 44 47 47 47 46 44 41 40
59 63 66 67 66 65 66 69 74 79 85 91 97 103 109 114 115 113 107 100 93 89 84 79 74 68 63 59 53 47 41 36 30 34 39 37 41 41 41 39 35 31 28
62 65 65 64 64 66 69 74 80 86 92 98 104 109 113 113 109 102 94 87 82 76 71 66 59 53 49 45 42 37 34 32 29 32 34 32 34 35 34 30 25 21 20
64 63 62 63 66 70 75 80 85 91 97 103 110 113 111 105 97 90 84 78 70 62 55 49 45 41 39 38 36 33 30 26 25 31 33 29 28 28 25 22 18 17 19
61 60 62 65 70 75 80 85 91 96 102 108 110 107 101 93 86 80 74 66 55 47 40 37 35 35 35 35 34 30 27 24 22 27 31 29 26 23 21 19 17 16 18
58 60 65 70 74 79 85 92 97 102 106 107 103 95 87 82 76 68 61 51 42 34 30 28 29 31 32 31 30 29 28 26 25 25 28 27 24 21 18 19 17 16 19

GEFSMA_500_meanwind_018.txt.gz
Wind_Speed
27 28 29 30 30 30 28 26 26 26 27 28 30 32 33 35 37 37 37 37 37 37 37 38 38 39 40 41 41 41 41 42 42 42 43 43 44 44 45 45 46 47 47
28 29 30 30 30 29 27 26 27 28 30 32 33 34 36 38 39 39 38 38 38 38 39 39 40 41 42 43 43 44 45 46 46 46 47 47 47 48 48 49 50 50 51
28 29 29 29 30 29 28 28 29 32 34 36 38 39 41 42 41 40 39 39 39 40 40 41 42 43 44 45 46 48 49 50 51 51 52 53 53 54 54 55 55 56 56
28 29 29 31 31 30 29 30 32 34 37 39 41 43 43 43 41 40 39 39 40 40 41 43 44 46 47 48 50 51 52 54 55 57 58 58 59 60 60 61 61 61 62
28 30 31 32 31 31 31 32 35 37 39 41 43 43 41 40 40 39 39 40 41 43 44 46 48 49 51 52 54 55 57 58 60 61 61 62 63 63 64 64 65 65 66
30 31 32 32 32 32 33 35 37 39 40 42 42 41 39 39 39 40 41 43 44 46 48 50 52 54 56 57 58 60 61 62 63 63 64 64 64 65 65 66 66 67 68
31 32 31 31 31 32 34 37 39 40 41 42 41 40 40 40 41 42 44 46 49 51 54 56 57 59 60 62 63 64 64 65 65 65 65 65 66 66 66 67 68 68 69
32 32 32 32 33 35 37 39 41 42 43 42 40 40 41 42 44 46 48 51 54 57 59 61 62 64 65 65 66 66 66 66 67 67 68 69 70 71 72 72 73 74 74
34 35 35 36 37 39 41 42 43 44 44 43 43 43 44 44 45 46 51 55 58 60 62 64 65 66 67 67 68 68 69 70 72 73 75 76 78 79 80 81 82 83 83
37 38 39 40 41 42 43 45 45 45 45 45 46 47 49 51 53 52 53 57 60 62 64 65 66 66 68 69 71 73 74 77 79 81 83 85 87 88 90 91 92 93 93
40 42 42 43 44 45 46 46 46 46 46 47 49 51 54 57 60 62 61 62 63 64 65 66 66 68 70 72 75 77 80 83 86 88 90 93 95 98 100 101 102 103 104
42 43 44 45 46 46 47 47 46 47 48 50 53 56 59 61 64 67 67 67 66 66 67 68 68 70 73 76 80 83 87 90 94 97 99 102 105 108 110 112 113 114 115
43 44 45 46 46 47 46 46 47 48 51 54 57 61 64 67 69 71 72 72 71 71 72 72 74 77 81 84 88 93 97 101 104 108 111 114 117 119 121 122 123 123 124
44 45 45 46 47 46 47 48 49 51 54 58 61 64 67 71 73 75 76 76 76 75 75 77 80 85 91 95 100 104 108 112 116 120 122 124 126 126 126 125 124 121 119
43 44 45 46 46 46 48 50 52 55 58 61 64 67 70 73 75 76 77 78 80 81 80 82 87 92 99 105 111 116 121 125 126 126 124 121 118 115 112 109 105 102 99
42 43 44 45 46 48 50 53 55 58 61 64 67 70 73 75 75 76 78 81 85 88 89 90 95 101 108 115 121 125 126 124 119 114 108 103 98 94 91 88 86 85 83
42 43 44 45 48 50 53 55 58 60 63 66 70 72 74 75 75 78 81 85 90 96 99 100 105 111 116 119 118 114 109 103 96 90 86 83 80 77 74 72 71 71 71
42 42 44 47 50 53 56 58 60 62 66 69 72 73 74 75 78 81 85 91 96 103 109 113 114 115 112 106 98 90 83 78 74 70 68 66 63 60 58 56 55 55 56
42 44 47 50 53 55 58 59 62 65 69 71 72 73 75 77 81 86 91 97 104 109 114 117 113 105 94 83 75 66 60 57 55 55 53 51 48 46 44 44 43 42 43
43 47 50 53 55 56 58 61 66 69 71 71 72 74 77 81 87 92 98 104 110 112 111 106 97 85 73 62 55 50 45 44 43 45 45 43 42 40 39 37 36 35 35
46 50 52 54 55 58 62 66 69 69 70 71 74 77 81 87 93 99 106 110 110 106 99 89 77 65 54 47 43 40 37 35 36 40 39 38 39 39 38 38 36 35 33
49 51 52 54 58 62 66 68 68 68 70 73 76 81 87 93 99 105 109 107 100 91 82 70 59 50 45 42 38 35 34 33 33 36 35 34 37 37 38 37 37 35 32
50 52 54 58 61 65 66 67 67 69 72 76 81 87 92 98 105 107 104 94 82 72 64 54 47 43 40 37 34 32 30 31 34 36 33 31 34 35 36 36 34 30 26
51 54 57 60 63 64 65 66 68 71 76 81 87 93 97 102 106 102 92 78 65 55 49 45 43 40 37 35 34 32 30 28 31 36 37 34 33 33 33 32 29 23 19
53 56 59 61 62 63 65 67 71 75 81 86 92 97 102 104 100 90 76 62 50 44 42 41 39 37 37 36 35 32 30 29 29 33 36 36 35 32 31 28 22 16 14
54 57 59 60 61 63 66 70 75 80 85 90 95 100 101 96 85 72 59 48 41 39 38 36 35 35 35 35 35 34 34 33 32 31 32 32 32 29 25 23 17 13 12

GEFSMA_500_meanwind_024.txt.gz
Wind_Speed
30 29 28 28 28 28 28 29 29 29 29 28 26 26 27 28 30 32 33 35 37 38 38 37 37 36 36 36 36 37 38 38 39 39 40 40 41 41 41 41 42 42 42
30 29 28 29 29 29 29 30 30 30 31 30 29 30 31 32 33 35 36 37 38 38 37 36 36 36 37 38 38 39 40 41 41 42 43 44 45 45 46 46 47 47 47
30 29 29 29 30 30 31 31 31 32 32 31 31 32 33 35 36 37 38 39 39 38 37 37 37 38 39 40 41 42 43 44 45 47 48 48 49 50 50 51 51 52 52
31 30 30 30 31 31 31 32 33 34 34 33 33 34 35 36 38 39 39 40 40 40 39 39 40 41 42 43 44 46 47 49 50 52 53 54 55 55 55 56 56 57 57
32 32 31 32 32 32 33 33 34 34 34 34 34 35 36 38 39 40 41 42 42 42 42 43 44 45 46 48 49 51 52 54 55 57 58 59 59 60 60 61 61 61 62
34 33 33 34 34 34 34 35 35 35 35 35 36 37 39 40 41 42 44 45 45 45 46 47 49 50 51 52 54 56 57 59 60 61 62 63 63 64 64 64 65 66 66
35 35 35 35 35 35 35 36 36 36 37 38 40 41 42 43 45 46 47 48 47 48 49 51 52 54 55 57 58 60 62 63 64 65 66 67 67 67 68 68 68 69 70
35 36 37 37 37 37 38 38 38 39 40 41 43 45 47 47 48 50 50 50 51 51 53 55 57 59 60 61 63 64 66 67 68 68 69 70 70 71 71 72 73 74 74
36 37 38 38 39 40 40 41 41 42 43 44 46 47 49 50 50 50 52 53 54 55 57 59 61 64 65 67 68 68 69 70 71 72 73 74 75 76 77 77 78 79 80
37 38 39 40 41 42 43 43 44 45 46 47 49 50 52 53 53 50 50 52 55 57 60 62 65 67 69 71 72 72 73 73 74 75 76 78 79 81 83 84 85 86 87
39 39 40 41 42 43 44 45 46 47 49 50 51 52 53 54 55 55 53 54 56 58 61 63 66 69 71 72 73 73 74 75 76 78 80 82 84 86 88 90 92 94 95
39 40 41 42 43 44 45 46 48 49 50 52 53 54 54 55 56 57 58 58 59 61 63 65 66 68 70 71 72 73 74 76 79 81 84 86 89 92 95 98 101 103 105
39 40 41 42 43 44 46 47 48 50 51 53 53 54 55 56 58 60 63 64 65 66 67 68 69 69 70 71 73 75 78 80 84 87 91 95 99 103 106 109 112 114 116
40 41 42 43 43 44 46 47 49 50 52 53 54 55 57 59 61 63 65 67 69 69 71 72 73 74 75 77 79 82 85 89 93 98 103 107 110 112 113 113 113 112 112
41 42 42 43 43 44 46 47 49 51 53 53 55 57 59 61 63 65 67 70 72 73 72 72 75 77 80 83 87 91 95 100 105 109 111 111 109 103 97 90 85 84 84
41 41 42 42 43 44 45 47 50 52 53 55 57 60 62 63 65 68 70 71 72 74 74 74 78 81 85 90 96 101 106 110 111 109 104 95 85 74 66 61 59 59 61
40 41 41 42 43 44 46 49 50 52 54 57 60 62 63 65 68 70 71 72 73 75 76 76 81 86 92 98 104 108 109 106 98 88 78 68 60 54 51 49 48 49 51
40 41 42 42 44 45 47 49 52 54 57 59 61 63 66 68 69 71 72 73 75 77 80 82 86 93 99 105 107 105 96 85 74 64 58 54 50 46 45 45 46 47 47
40 41 42 43 45 46 49 51 54 56 58 61 63 65 67 69 70 72 73 76 78 82 86 90 94 100 104 105 99 87 74 62 56 52 49 47 44 43 44 45 45 45 45
40 41 42 44 46 48 51 54 56 58 60 63 65 67 68 70 72 74 76 79 84 88 94 99 103 104 101 92 80 65 53 49 48 46 45 44 42 41 43 44 44 45 46
40 40 42 45 48 51 53 56 58 60 62 64 66 68 69 71 74 77 81 85 90 96 101 105 104 98 86 71 58 49 44 42 41 42 41 40 40 41 42 43 44 45 46
39 41 44 47 50 53 56 58 59 61 63 65 67 69 71 73 77 81 86 91 97 102 104 101 93 80 65 53 45 42 40 38 36 39 39 38 40 40 42 42 42 42 41
40 43 46 49 52 55 56 58 60 62 64 66 68 70 73 77 82 86 91 96 100 101 96 87 74 60 50 44 41 38 37 35 35 38 37 35 37 39 40 40 39 38 36
42 45 48 51 53 55 57 59 61 63 65 67 70 73 77 82 87 92 96 98 96 89 79 68 58 49 43 41 40 38 37 35 34 37 38 36 36 37 38 37 35 32 30
44 47 49 51 53 55 58 60 62 64 65 68 73 78 83 87 92 96 97 94 84 71 60 53 47 43 42 42 40 39 39 38 35 34 36 36 35 33 34 34 31 29 27
45 47 49 51 54 56 59 61 62 64 67 72 77 83 88 92 95 96 91 80 65 55 48 45 44 43 42 41 41 42 41 40 37 33 32 32 32 30 26 29 28 27 26

GEFSMA_500_meanwind_030.txt.gz
Wind_Speed
29 28 27 27 27 29 30 30 31 32 33 33 32 32 32 32 31 31 31 31 32 32 32 32 32 33 33 33 32 32 32 32 32 33 34 34 35 36 37 38 38 39 39
31 30 29 29 29 30 31 31 32 32 33 33 33 34 33 33 33 32 32 33 33 33 34 34 34 34 34 35 35 35 35 36 36 36 37 37 38 39 40 41 42 42 43
33 33 32 31 31 31 32 32 33 33 34 34 34 35 35 35 33 33 32 33 34 34 35 35 35 36 37 37 38 38 39 39 40 40 41 42 43 44 45 46 47 48 48
34 34 34 34 34 34 34 34 34 34 35 35 35 35 36 35 34 33 33 33 34 35 36 37 38 39 40 41 41 42 42 43 44 45 46 47 48 49 51 52 53 54 54
35 35 35 35 35 36 36 37 37 36 36 36 36 37 37 36 36 36 36 36 37 37 39 40 42 43 44 45 45 45 46 46 47 49 50 51 52 54 55 56 57 58 59
35 35 34 35 36 37 38 39 39 38 38 38 38 38 39 38 38 39 39 39 40 42 43 44 45 47 48 48 49 49 49 50 51 52 54 55 56 58 59 60 61 62 62
35 35 35 35 37 38 39 39 40 40 40 40 40 40 41 41 41 42 42 43 44 45 46 48 49 50 50 51 51 52 52 53 55 56 57 59 60 61 62 63 64 64 65
36 36 36 36 37 38 39 39 39 41 41 42 43 43 44 43 43 45 46 47 47 48 49 50 51 52 53 53 54 55 56 57 58 60 61 62 63 63 64 65 65 66 67
39 38 37 37 38 39 39 39 39 40 42 43 45 45 46 46 46 46 48 49 49 51 52 53 53 54 55 56 57 58 60 61 62 64 64 65 66 66 67 68 69 70 71
40 39 38 38 39 39 39 40 41 42 43 44 46 47 48 49 49 49 49 50 50 51 53 54 55 56 58 60 62 63 65 66 66 67 68 69 69 70 71 72 73 74 74
41 40 40 40 40 39 39 40 42 43 45 46 47 48 49 50 51 51 50 50 51 53 54 54 55 57 59 62 64 66 68 69 70 70 71 72 73 74 75 76 77 77 78
42 41 41 40 40 39 40 41 43 44 46 47 48 49 50 51 53 53 53 52 51 52 54 56 58 60 62 64 65 67 68 69 70 72 73 74 75 77 78 80 81 83 84
42 42 41 40 40 40 40 42 44 45 47 48 49 50 51 52 53 54 55 54 53 53 55 57 60 63 65 66 67 68 69 70 72 73 75 77 79 81 83 86 88 90 92
42 42 41 40 40 40 41 43 44 46 47 49 50 51 52 53 54 55 56 57 56 56 58 60 63 65 67 68 69 70 70 72 73 76 78 81 85 88 91 94 97 99 101
43 42 41 40 40 41 42 43 45 47 48 49 50 51 52 53 54 55 57 59 61 63 62 62 64 66 67 68 69 71 73 75 78 82 86 90 94 97 100 102 103 103 102
43 42 41 40 40 41 43 44 46 47 49 50 51 52 53 54 55 57 59 62 65 67 67 66 68 68 69 70 72 75 78 82 87 91 96 100 102 104 103 101 96 89 82
42 41 40 40 40 42 43 45 46 48 49 51 52 54 55 56 58 60 63 65 66 68 69 68 69 70 72 74 78 82 86 91 96 100 103 104 102 98 91 82 73 64 57
41 40 40 40 41 43 44 46 47 49 50 52 54 55 57 59 61 63 65 66 67 68 69 69 69 72 76 80 85 89 94 98 101 101 99 94 86 77 67 59 52 48 46
40 39 39 40 42 44 45 46 48 50 51 53 55 58 60 62 64 65 66 67 68 69 70 72 73 77 83 88 92 96 99 99 96 89 82 73 64 57 51 47 45 43 42
38 38 40 41 43 45 46 48 49 51 53 55 58 60 62 64 65 66 67 67 68 70 73 77 80 84 90 95 98 98 94 87 78 68 62 56 51 47 46 45 44 43 41
37 38 41 42 45 47 48 48 50 52 55 58 60 62 64 65 66 66 67 68 71 74 78 82 87 92 96 98 96 91 81 69 58 55 51 48 47 45 46 45 44 43 42
37 39 41 44 46 47 47 49 51 54 57 60 61 63 64 65 65 66 68 71 76 80 85 89 93 97 97 93 85 74 63 54 48 49 49 45 45 44 44 44 44 43 42
39 41 43 44 45 46 48 51 54 56 59 60 61 63 63 64 66 68 71 76 81 87 92 96 96 94 87 78 69 59 52 49 47 47 47 43 43 41 42 42 43 43 41
39 41 42 43 45 47 50 53 55 57 58 60 61 62 63 65 69 72 76 80 85 91 95 95 90 81 71 62 55 51 48 46 44 45 47 43 40 39 39 40 42 42 40
38 40 42 44 46 49 52 54 55 56 58 59 60 63 66 69 73 77 81 86 90 92 91 85 75 65 57 52 50 49 48 46 43 42 45 44 40 38 35 37 39 40 39
38 41 43 45 48 50 52 53 55 56 57 59 62 66 70 74 78 83 87 89 90 86 79 68 59 53 49 48 48 48 47 46 44 42 43 42 38 37 32 31 35 37 37

GEFSMA_500_meanwind_036.txt.gz
Wind_Speed
28 27 26 26 25 26 26 27 27 28 28 28 29 30 31 33 34 35 34 34 34 33 33 33 33 33 33 33 33 32 31 30 29 29 29 29 30 31 31 32 32 32 33
28 28 28 27 27 27 28 28 28 29 29 29 30 30 31 32 33 33 34 34 34 34 34 33 34 34 34 34 34 34 33 32 32 32 33 33 33 33 34 35 35 36 36
29 29 29 28 28 29 29 28 29 29 30 30 31 32 32 33 33 34 34 35 35 35 35 34 34 34 35 35 35 35 35 35 36 36 37 37 37 37 38 38 39 40 40
30 30 29 28 28 29 29 29 29 29 30 31 32 33 34 34 34 34 35 36 36 36 37 37 37 37 38 38 38 39 39 39 40 40 41 42 42 42 42 42 42 43 44
30 30 30 29 29 29 29 29 29 30 31 32 33 34 35 36 36 36 36 37 38 38 39 40 40 41 41 42 42 43 44 44 44 45 45 45 45 45 45 46 46 47 47
31 31 31 30 30 30 30 30 30 30 31 32 33 34 35 36 37 37 37 38 39 40 41 42 43 44 45 45 45 46 47 47 47 47 48 48 48 48 48 49 50 50 51
32 32 32 32 32 32 31 32 32 32 32 33 34 34 35 35 36 38 39 39 40 41 42 44 45 46 47 47 48 48 48 49 49 50 50 50 50 51 51 52 53 54 55
34 35 35 34 34 34 34 34 34 34 34 34 35 35 36 37 37 38 40 41 42 42 44 45 46 47 47 48 49 49 50 50 51 51 51 52 52 53 54 55 56 58 59
37 37 37 36 35 35 35 35 36 35 35 35 36 36 37 38 39 39 41 42 43 44 45 46 46 47 48 49 50 51 52 52 53 53 53 54 55 56 58 59 60 60 61
41 41 40 39 38 37 37 37 37 37 37 37 37 38 39 39 40 41 41 43 44 45 46 47 48 49 50 51 52 52 53 54 54 55 56 57 59 60 61 62 62 63 63
45 44 44 42 41 40 39 39 39 38 38 38 39 39 40 41 41 42 43 44 45 47 48 49 50 51 52 52 53 53 54 55 57 58 60 61 62 63 64 64 65 65 66
48 48 47 45 44 43 42 41 40 40 40 40 40 41 42 42 43 43 44 45 46 48 50 52 53 54 54 54 55 55 56 58 59 61 62 64 65 65 66 67 67 69 70
50 49 49 48 46 46 45 43 42 42 41 41 42 43 43 44 44 45 46 47 48 49 50 53 55 56 56 57 58 59 60 61 63 63 64 65 66 67 68 69 70 72 73
52 51 50 49 48 47 46 44 44 43 43 43 43 44 45 45 46 47 48 50 51 52 53 54 56 58 59 60 62 63 64 65 65 66 66 67 68 69 71 72 74 76 78
53 52 50 49 48 47 47 45 45 45 44 45 45 45 46 46 48 49 51 54 55 56 56 57 59 60 62 63 65 66 66 67 67 68 69 70 72 73 75 78 80 83 85
53 52 50 49 47 47 46 45 45 45 45 45 46 46 48 49 50 52 55 57 59 60 61 61 63 64 65 66 67 67 67 68 68 70 72 74 76 79 82 84 87 90 92
51 50 49 48 47 46 45 45 45 46 46 46 47 47 49 51 53 56 58 60 62 64 65 65 67 68 68 69 68 69 69 70 72 74 77 80 83 86 89 92 94 95 96
49 48 47 46 45 45 45 45 45 46 46 47 48 50 52 54 57 59 61 63 65 66 67 68 68 69 70 70 70 71 72 74 77 80 84 88 91 94 96 96 95 92 89
46 44 44 43 43 44 43 43 44 46 47 48 51 54 56 58 60 61 63 65 66 68 69 70 70 70 70 72 73 75 77 80 84 88 92 95 96 96 94 90 85 79 74
41 41 41 41 41 41 41 42 44 45 48 52 56 57 58 60 62 64 65 66 68 69 70 71 71 71 72 75 77 79 81 85 90 94 96 95 92 87 82 76 71 65 61
37 37 38 38 38 38 39 41 44 47 52 56 57 58 60 62 63 64 66 67 68 69 70 71 72 74 76 79 82 85 87 89 91 91 88 83 78 73 68 65 61 58 57
33 34 34 34 34 36 38 42 47 50 54 57 58 60 61 63 64 66 67 68 69 71 72 74 75 78 81 84 87 89 91 89 84 78 75 68 66 62 60 58 57 57 56
29 30 31 32 34 37 40 44 49 54 56 57 58 60 62 64 65 66 67 68 70 73 76 78 80 83 86 88 90 89 86 80 72 67 64 58 57 55 55 55 56 57 57
26 29 31 35 38 40 44 48 51 54 56 58 60 61 63 64 65 67 68 70 73 76 80 83 85 88 90 90 87 82 75 67 60 57 57 53 51 52 52 53 55 56 55
26 30 33 36 38 42 45 47 50 54 56 58 60 62 63 64 66 69 71 74 77 80 83 87 89 90 87 82 76 69 62 56 51 49 53 52 51 51 49 49 51 53 52
28 31 33 35 38 41 44 48 51 54 55 57 60 62 64 67 70 74 76 78 81 84 86 87 85 81 74 68 63 58 54 51 49 48 51 52 50 50 45 41 44 47 47

GEFSMA_500_meanwind_042.txt.gz
Wind_Speed
27 27 26 26 26 26 26 26 26 26 26 26 27 27 28 28 28 29 29 30 31 31 32 33 33 32 32 32 31 31 31 31 31 32 32 32 32 31 31 30 29 28 28
27 27 27 27 27 27 27 27 28 27 27 27 27 28 28 29 29 29 30 31 31 32 32 32 32 33 33 33 33 32 32 32 32 32 33 33 34 34 34 33 33 33 32
28 28 27 27 28 28 28 28 28 28 28 28 28 29 29 29 29 30 31 31 32 32 33 33 33 33 34 34 34 34 34 35 35 35 35 36 36 37 37 37 37 37 37
30 29 29 29 29 29 29 29 29 29 29 29 30 29 29 30 30 31 31 32 32 32 32 33 33 33 34 34 35 36 36 37 37 38 39 39 40 40 41 41 42 42 42
32 32 31 31 30 30 30 30 30 30 31 31 31 31 31 31 32 32 33 33 33 32 32 32 33 33 34 34 35 36 37 37 38 39 40 41 42 43 44 44 45 45 45
36 35 34 33 33 32 32 32 32 32 33 33 33 33 33 34 34 35 35 34 34 34 33 33 33 34 34 35 35 36 37 38 39 39 41 42 43 44 45 46 46 47 48
39 38 37 36 36 35 35 35 34 34 35 35 35 35 35 36 36 36 36 36 35 35 35 35 35 35 35 36 36 37 38 38 39 40 41 42 43 45 46 47 48 49 50
41 41 40 40 39 39 38 38 37 37 37 37 37 38 37 37 37 37 37 37 36 36 37 37 37 37 37 38 38 38 39 40 41 42 43 43 45 46 47 48 49 50 51
45 44 43 43 43 42 41 40 40 40 39 39 39 40 39 39 39 39 38 38 38 39 39 39 39 39 40 40 40 40 41 41 42 44 44 45 46 47 48 49 50 51 52
48 48 47 46 46 45 44 43 43 42 42 42 42 42 42 41 41 40 41 41 41 41 41 42 42 42 43 43 43 43 43 44 45 45 46 47 49 50 51 52 52 53 55
51 50 50 50 49 48 47 47 46 46 46 46 46 45 44 44 43 43 43 43 44 44 44 44 45 45 46 46 46 46 47 47 48 49 50 51 52 53 54 55 55 57 58
54 53 53 53 52 51 51 50 50 50 50 50 49 48 47 47 46 46 45 45 45 46 46 47 48 48 48 49 50 50 51 51 52 53 54 55 56 56 57 58 59 60 61
58 57 56 56 55 54 54 53 53 53 52 52 52 51 50 49 48 48 48 48 48 48 48 49 51 52 52 53 53 54 55 56 57 58 59 60 60 61 62 63 63 64 65
62 60 59 59 57 57 56 55 55 54 54 53 53 52 52 51 50 50 50 50 50 50 49 51 53 54 55 57 58 59 60 61 62 63 64 65 65 66 67 67 68 68 69
65 63 61 60 59 58 57 56 56 56 55 54 54 53 54 53 52 52 52 52 52 51 51 52 55 57 59 61 62 63 65 66 66 67 69 69 70 71 71 71 71 71 71
68 66 63 61 60 59 58 58 57 57 56 55 55 55 54 54 54 54 55 55 54 55 55 55 58 60 64 66 67 68 68 69 70 71 72 73 73 73 74 74 74 75 75
67 66 64 62 60 59 59 58 58 57 56 55 55 55 54 55 55 56 57 58 58 59 59 61 62 65 68 70 70 72 72 73 73 74 75 75 76 76 77 78 78 79 80
65 64 62 61 59 58 57 57 56 55 55 55 54 54 54 55 55 56 57 59 60 62 64 64 65 69 71 72 74 74 74 75 76 77 78 78 79 80 81 82 82 83 84
59 59 58 58 57 56 56 54 53 53 53 53 53 53 53 54 55 57 59 61 64 66 67 68 69 72 73 75 75 75 76 77 79 80 80 81 83 84 85 86 86 87 87
51 52 52 52 52 52 51 50 50 49 50 51 51 52 52 55 56 58 60 63 66 68 69 71 73 74 75 75 77 77 78 79 80 82 84 85 86 87 88 88 88 87 86
42 43 43 44 45 45 45 45 45 46 47 48 49 50 52 54 56 59 62 65 68 70 72 73 74 75 76 77 79 81 81 82 83 85 87 88 88 88 88 87 85 83 81
31 33 35 36 37 37 38 39 41 43 44 45 47 49 51 54 57 61 63 66 69 70 72 74 75 76 78 81 82 84 85 86 85 87 87 85 86 84 82 80 76 74 72
23 26 28 30 31 33 35 36 38 40 42 44 46 49 52 55 59 61 63 66 68 71 74 76 78 80 82 84 85 86 87 86 85 84 83 78 76 74 71 68 66 65 63
17 20 23 25 28 30 32 34 37 38 41 44 47 51 54 56 58 61 64 66 70 73 76 78 80 82 84 86 86 84 82 79 74 71 71 66 63 61 58 56 57 56 55
14 17 20 22 25 27 29 31 34 38 40 43 46 49 53 56 59 62 65 68 72 75 77 80 82 83 82 80 77 73 67 62 58 56 57 55 51 49 46 46 48 50 50
11 14 18 21 23 25 28 32 36 38 40 43 46 50 53 57 61 65 68 71 73 76 77 78 78 76 72 67 62 58 53 50 48 45 45 44 42 41 37 35 39 43 45

GEFSMA_500_meanwind_048.txt.gz
Wind_Speed
28 28 27 27 27 27 27 27 26 26 27 27 26 26 26 26 26 26 26 26 26 26 27 27 27 27 28 28 29 29 29 29 29 29 29 28 28 28 28 28 29 29 29
31 30 30 29 29 29 29 28 28 27 27 27 27 27 26 26 26 26 26 26 26 26 27 27 27 27 28 28 28 29 29 30 30 30 30 30 30 30 30 30 30 31 31
34 33 32 32 31 31 31 30 29 29 28 28 28 28 27 27 27 27 26 27 27 27 27 28 28 28 29 28 28 29 29 30 30 30 30 31 31 31 32 33 33 34 34
37 37 36 35 35 34 33 32 32 31 31 30 30 29 29 28 28 28 28 28 28 29 29 29 30 30 30 29 29 29 29 29 30 30 30 31 31 32 32 33 34 35 35
40 40 40 39 39 38 36 36 35 34 33 33 32 31 31 31 30 29 29 29 30 30 31 31 31 31 31 30 30 30 30 30 30 31 31 31 32 32 33 33 34 35 36
44 44 43 43 42 41 40 39 39 38 37 36 35 34 34 33 33 32 32 31 32 32 33 33 33 32 32 32 32 31 31 31 31 32 32 33 33 34 34 35 35 35 36
47 47 46 45 45 44 44 43 42 41 40 39 38 38 37 36 35 34 34 33 33 34 35 35 35 35 35 35 34 34 34 34 34 34 34 34 34 35 35 35 36 36 37
49 49 49 49 48 48 47 47 46 45 44 43 42 41 40 38 37 37 36 36 36 36 37 38 38 38 38 38 38 38 38 38 38 38 37 37 37 37 37 38 38 38 38
51 52 52 52 52 51 51 50 50 49 48 47 46 44 42 41 40 39 39 39 39 39 39 40 40 41 41 41 42 42 42 42 42 42 42 41 41 41 41 41 41 41 41
53 54 54 55 54 54 53 53 52 52 51 50 49 48 46 45 43 42 42 42 42 42 43 43 44 44 45 45 45 45 46 46 46 46 46 46 45 45 45 45 45 45 45
54 55 56 57 58 57 56 56 55 55 54 53 52 51 50 49 47 47 46 45 46 46 46 47 47 47 48 48 48 49 49 50 50 50 50 50 50 49 49 49 49 49 49
57 58 59 60 60 60 59 59 59 58 57 56 55 54 53 52 51 51 50 49 49 49 49 50 50 50 51 51 52 52 52 53 53 54 54 54 54 54 53 53 54 54 55
59 60 62 63 63 63 63 63 62 61 60 60 59 57 56 55 55 55 54 53 53 53 53 53 53 54 54 54 55 55 55 55 56 57 58 58 58 57 57 57 58 59 59
62 63 64 65 65 66 66 66 65 64 63 63 62 60 59 58 58 58 56 56 56 56 56 56 57 57 57 58 58 58 58 58 59 59 60 61 61 61 62 63 63 64 64
65 66 67 68 67 67 66 66 65 65 64 64 63 62 61 60 59 59 58 58 59 59 59 59 59 60 61 60 61 61 61 62 63 63 63 64 64 65 67 68 68 69 70
65 66 66 67 67 67 66 65 64 63 63 63 63 62 62 62 61 61 61 61 61 61 62 61 62 64 65 64 63 63 64 66 65 65 66 67 68 69 70 71 72 73 74
62 64 64 64 64 63 63 62 61 61 60 61 61 61 62 62 62 62 62 62 62 62 62 64 65 65 65 66 66 66 67 68 69 70 70 70 70 71 73 75 76 76 77
54 56 57 58 58 58 57 56 56 57 57 57 57 58 59 60 60 60 61 61 61 61 62 65 66 67 67 67 68 69 70 71 71 72 73 73 75 76 77 78 79 79 80
44 45 46 47 48 49 49 49 48 49 50 51 53 54 55 56 57 57 58 59 60 61 62 65 66 66 68 69 69 70 71 72 73 74 75 76 78 78 80 80 81 82 83
34 34 35 36 37 38 39 40 41 41 42 44 46 47 49 50 51 53 54 56 57 59 61 63 65 67 68 69 70 71 72 73 75 76 78 79 80 81 82 82 83 84 84
26 25 25 27 27 28 29 30 32 32 34 36 38 40 42 44 45 47 50 53 56 58 60 62 64 65 67 68 70 71 73 74 76 78 79 80 81 81 82 82 82 81 80
18 16 16 17 18 19 20 21 23 25 27 29 31 34 36 38 41 45 48 51 54 56 58 60 63 65 67 69 71 73 75 76 77 78 79 79 79 78 77 75 74 73 71
13 11 11 10 11 11 13 15 17 20 22 24 27 30 34 37 40 43 45 49 52 54 57 59 62 64 67 69 71 73 74 74 75 75 74 72 71 69 67 66 65 64 62
11 9 8 6 7 9 10 13 16 18 20 24 27 31 34 37 39 41 45 48 51 54 56 59 63 65 68 69 70 70 69 68 68 68 66 63 61 59 57 57 57 56 53
11 9 7 7 7 9 10 13 16 18 21 23 26 29 32 36 39 42 45 49 52 55 59 62 64 65 65 64 63 61 59 58 56 57 56 53 51 49 48 49 49 48 46
11 11 9 9 9 10 11 13 15 19 22 25 28 31 34 37 40 43 47 51 54 57 60 61 60 59 57 55 53 51 50 49 48 47 47 44 42 40 38 40 42 43 43

GEFSMA_500_meanwind_054.txt.gz
Wind_Speed
27 27 27 27 27 27 28 28 29 28 28 28 28 28 27 27 26 24 25 25 25 25 24 24 24 23 22 22 21 21 21 21 20 20 20 20 21 21 22 22 22 22 22
29 29 29 29 29 30 30 31 31 31 30 30 31 30 30 29 28 26 26 26 26 25 25 25 25 25 24 23 22 22 22 22 22 21 21 21 21 21 21 22 22 22 23
32 32 32 32 32 33 33 33 34 34 33 33 34 33 33 32 31 29 27 27 28 27 27 26 27 26 26 25 24 24 24 23 23 23 23 23 22 22 22 23 23 23 24
35 35 35 35 36 37 37 37 37 37 37 37 37 37 36 35 34 33 31 29 29 29 29 28 28 28 27 27 26 26 26 25 25 25 25 25 24 24 24 24 25 25 25
37 38 38 38 39 39 40 40 40 41 41 40 40 40 39 38 37 36 35 33 31 31 31 31 30 30 30 29 28 28 28 28 28 27 27 27 27 27 27 27 27 27 28
40 41 41 42 42 43 43 43 44 44 44 44 44 44 43 42 41 40 38 37 35 34 33 33 33 32 32 32 31 30 30 30 30 30 30 30 30 30 31 31 31 31 31
43 44 44 45 45 46 46 47 47 48 48 49 49 48 47 47 45 43 42 41 39 38 37 36 35 35 34 34 33 33 33 33 33 33 34 34 34 34 35 35 35 35 35
46 47 47 47 48 49 49 50 50 51 52 52 53 53 52 51 49 48 47 45 44 42 40 39 38 38 37 37 36 36 36 36 36 37 37 37 38 38 38 39 39 39 39
47 48 49 50 51 52 52 53 54 54 55 55 56 57 56 54 53 52 50 49 48 46 44 44 43 42 41 40 40 40 40 40 40 40 40 41 41 41 42 42 43 43 43
48 49 51 52 53 54 55 56 57 58 58 59 59 59 58 58 58 55 53 52 51 50 49 48 47 46 45 45 44 44 43 43 43 43 44 45 45 45 45 46 46 47 47
48 49 51 52 54 55 57 58 60 61 62 62 62 61 61 61 60 59 57 55 54 53 52 51 50 49 49 48 48 47 47 46 46 47 48 48 48 48 48 49 49 50 51
47 49 50 52 53 56 58 60 62 63 64 64 64 64 64 63 62 61 60 58 57 56 55 54 53 52 51 51 49 49 49 49 49 50 50 51 51 51 51 52 53 53 54
46 48 49 51 53 56 58 60 62 63 65 65 66 65 65 64 63 62 62 61 60 58 57 56 54 55 54 53 52 52 52 53 53 53 53 52 52 54 55 55 56 56 56
44 46 48 50 52 54 56 59 60 62 64 65 65 65 64 63 62 61 61 61 60 59 58 57 56 56 54 54 55 54 54 55 56 57 58 57 58 59 59 58 59 60 60
43 45 47 49 51 53 55 57 58 59 60 61 62 61 61 60 59 59 59 59 59 58 58 57 57 58 58 58 58 58 57 57 59 59 60 61 61 61 61 60 61 61 62
42 44 46 48 50 52 54 54 55 55 55 55 55 55 56 56 55 55 57 57 57 57 57 57 58 59 59 59 60 60 60 61 62 63 63 62 63 63 63 62 63 63 63
41 43 46 47 48 49 49 50 50 49 49 49 49 50 50 50 49 50 52 53 55 56 56 58 59 60 61 61 62 63 63 63 64 65 65 64 64 63 64 65 65 65 66
40 42 43 44 44 44 45 45 44 43 43 42 42 42 43 44 45 45 47 48 51 53 54 56 56 58 59 61 62 63 63 64 65 65 65 65 65 65 65 66 66 67 68
37 37 39 40 40 40 40 40 39 37 37 36 37 37 37 38 40 41 43 45 47 50 51 53 54 56 58 59 60 61 61 62 63 64 65 65 65 65 66 66 67 68 69
34 34 36 36 35 35 35 35 33 32 30 29 29 31 32 33 33 35 38 41 43 46 48 50 51 52 53 54 56 58 59 61 62 62 64 65 66 66 67 68 69 69 70
31 32 32 33 32 32 32 31 29 28 27 25 24 25 26 27 28 29 32 35 37 40 43 45 47 48 50 52 53 55 57 59 60 62 63 65 66 67 68 69 69 70 70
29 30 30 30 29 29 29 28 26 24 22 21 20 20 20 22 24 25 26 29 31 35 37 40 43 46 48 50 52 55 57 59 61 62 63 65 65 66 67 67 66 66 65
27 27 27 27 27 26 26 25 23 22 21 20 20 19 18 19 22 23 25 28 31 34 36 39 41 44 47 49 52 54 56 59 60 61 61 62 62 61 60 60 59 58 57
25 25 25 25 25 25 24 23 22 21 20 19 18 18 18 20 21 23 26 28 31 33 36 39 41 44 47 50 53 55 57 59 60 60 58 56 55 54 53 53 52 52 51
23 23 24 24 23 23 22 21 21 20 19 19 19 19 20 22 24 25 27 30 32 35 38 41 44 47 50 52 54 56 56 56 55 55 53 51 49 47 47 48 48 47 45
22 23 23 23 23 23 22 22 22 21 21 22 23 24 25 26 28 29 31 34 36 39 41 44 47 50 52 54 55 54 53 52 51 50 49 46 45 44 41 42 44 43 42

GEFSMA_500_meanwind_060.txt.gz
Wind_Speed
24 25 25 26 26 27 27 28 28 28 28 29 30 31 31 30 30 30 30 30 30 29 29 29 28 28 27 26 25 24 24 23 23 22 22 21 20 20 19 19 19 18 18
26 26 27 27 28 29 29 29 30 31 31 32 33 34 34 34 33 33 33 32 32 32 32 31 30 30 29 28 27 27 26 26 25 25 24 23 23 22 21 20 20 20 20
28 28 28 29 30 31 31 32 33 34 34 35 36 37 38 38 37 37 36 36 35 35 35 34 33 33 32 31 31 29 29 28 28 27 27 26 25 24 24 23 22 22 21
30 30 30 31 32 33 33 34 35 36 37 38 39 40 40 40 40 40 39 39 39 38 38 37 37 36 35 35 34 33 32 31 31 30 30 29 28 27 27 26 25 24 24
32 32 33 33 34 35 36 36 37 39 39 40 42 42 43 43 44 44 43 43 42 42 41 41 40 39 38 38 37 36 35 34 34 33 33 32 31 31 30 29 28 27 27
34 35 35 36 37 38 39 39 40 41 42 43 44 45 45 46 46 46 46 47 46 45 45 44 43 43 42 41 40 39 39 38 37 37 36 35 34 34 33 32 32 31 30
37 37 37 38 39 40 41 42 43 43 44 46 47 47 47 48 48 48 49 50 49 49 48 47 47 46 45 44 43 43 42 41 41 40 40 39 38 37 36 35 35 34 34
39 39 40 41 41 42 43 44 45 46 47 48 49 49 49 49 49 50 51 51 51 51 50 50 49 48 48 47 46 46 45 44 44 43 43 42 42 41 40 39 38 38 37
41 42 42 43 44 45 45 45 46 47 48 49 50 51 52 52 52 53 53 54 54 54 53 53 52 51 50 50 49 49 48 47 46 46 45 45 44 45 45 44 42 41 40
42 43 44 45 46 46 46 47 47 48 49 49 50 52 53 54 55 55 55 56 56 56 55 54 54 54 53 51 51 50 50 50 49 48 47 47 47 47 47 47 46 45 44
43 44 45 45 46 46 46 47 47 48 48 49 51 52 54 55 56 57 57 57 57 57 57 57 56 56 55 54 52 52 52 52 51 51 50 49 48 48 48 48 48 47 46
44 44 44 45 45 45 46 46 46 47 48 50 51 52 54 55 56 57 58 57 57 57 56 56 57 56 56 55 54 54 54 53 53 53 51 51 49 49 49 48 49 49 48
45 45 44 44 44 45 45 45 46 47 47 48 50 52 54 55 56 56 57 57 57 56 55 54 53 54 55 54 54 55 55 55 54 54 53 52 50 49 49 48 47 48 48
45 44 44 44 44 44 44 44 44 44 46 47 48 50 51 53 54 55 54 54 54 53 53 51 50 50 50 51 52 52 53 53 54 53 54 53 50 49 49 49 48 48 49
44 43 43 43 43 42 42 42 42 43 43 45 47 47 48 49 50 51 50 50 51 50 49 49 48 47 47 48 48 50 51 51 52 51 52 53 52 53 54 52 52 51 50
42 42 42 41 41 41 41 41 41 41 42 42 43 43 44 45 46 46 46 46 45 45 45 45 45 44 43 44 45 46 46 48 49 50 51 53 53 54 54 54 54 54 54
41 40 40 39 39 39 40 39 39 39 40 40 40 41 42 42 42 42 41 41 39 39 39 39 40 40 39 39 40 41 44 47 47 49 50 51 53 55 54 54 55 55 55
39 38 38 38 38 38 38 38 37 38 38 39 39 39 40 40 39 38 37 35 35 35 34 34 34 35 36 37 38 40 42 44 45 46 48 49 51 53 53 54 55 55 56
36 36 36 36 36 36 36 36 36 37 37 37 37 37 37 37 36 34 33 32 32 32 31 31 31 32 34 35 37 39 41 43 45 46 47 49 50 51 52 53 54 55 56
35 34 34 34 34 34 35 35 35 35 35 35 35 35 34 34 32 31 30 30 29 30 29 30 30 31 33 34 35 36 38 40 43 45 46 47 48 50 51 52 53 54 55
32 32 32 33 33 34 34 34 34 34 34 34 33 32 32 31 30 29 28 27 27 27 27 27 27 28 30 32 33 35 37 39 41 43 45 47 49 50 52 53 54 55 56
30 31 31 32 32 32 32 32 32 32 32 32 31 31 30 30 29 28 28 27 27 26 26 26 27 28 30 32 33 35 37 39 41 43 45 48 50 52 53 55 56 56 57
28 29 30 29 30 30 30 30 30 30 30 30 30 30 29 29 28 28 28 28 27 27 27 28 29 30 32 34 36 37 39 41 43 45 48 50 52 53 55 56 56 57 57
26 27 27 28 28 29 29 30 30 30 30 30 30 30 30 29 29 29 29 29 29 30 30 31 32 34 35 37 38 40 42 44 47 48 50 52 53 54 55 56 56 55 54
25 26 26 27 28 28 29 30 30 31 31 31 31 31 31 31 31 31 31 32 32 33 33 34 35 37 38 40 41 43 45 47 49 50 51 52 53 54 54 54 53 52 50
24 25 26 27 28 29 30 30 31 31 31 32 32 32 32 32 32 33 33 34 35 35 36 37 39 40 42 43 44 46 47 49 50 51 52 52 52 52 50 50 49 48 46

GEFSMA_500_meanwind_066.txt.gz
Wind_Speed
22 22 23 23 24 24 24 25 26 27 28 29 30 30 31 32 32 34 35 36 36 37 37 37 37 37 37 36 36 35 35 34 34 34 33 32 30 29 28 27 26 25 23
24 24 25 25 26 26 26 27 28 28 29 31 32 33 34 34 35 36 37 37 38 39 39 39 39 39 39 38 38 37 37 36 36 35 35 34 33 32 31 30 28 27 26
26 26 27 27 28 28 28 29 30 31 32 33 35 36 36 37 38 39 39 40 40 41 41 41 41 41 41 40 40 39 39 38 38 37 37 36 36 35 34 33 31 30 29
28 28 28 29 30 30 31 32 33 34 35 37 38 39 39 40 41 41 41 42 42 43 43 43 43 43 42 42 41 41 41 40 40 39 39 38 38 37 36 35 34 33 32
30 30 30 31 32 33 33 34 35 37 38 39 41 41 42 42 43 43 43 44 44 44 44 45 45 44 44 43 43 42 42 41 41 41 41 41 40 40 39 38 37 36 35
33 33 33 33 34 35 36 37 38 39 40 42 43 43 44 44 44 44 44 45 45 45 46 46 46 46 46 45 45 44 44 43 43 43 43 43 42 41 41 40 39 38 37
35 35 35 36 37 38 39 40 41 41 42 44 45 45 44 45 44 45 45 45 45 45 46 47 47 47 47 47 47 46 46 45 44 45 45 45 44 43 43 42 41 41 40
37 37 37 38 39 40 41 42 43 43 44 45 46 46 45 44 44 45 45 45 45 46 46 47 48 49 49 49 49 48 49 48 46 47 47 47 46 46 45 44 44 43 42
39 39 40 41 42 42 43 44 45 45 46 46 47 47 47 46 44 43 43 44 45 46 47 48 49 50 50 51 51 51 51 51 51 50 49 48 48 48 47 47 46 45 44
41 41 42 43 43 44 44 45 46 47 48 47 47 47 47 47 46 45 44 44 44 45 47 48 49 49 50 51 52 53 53 52 52 52 51 50 50 50 49 49 48 46 45
43 44 44 44 44 45 45 46 47 48 48 48 47 47 46 46 46 46 44 43 44 46 47 48 48 49 49 50 51 52 52 52 52 52 52 52 51 49 50 51 49 47 45
45 45 45 45 45 46 46 47 48 48 48 48 47 47 46 46 46 46 44 44 45 45 46 46 47 48 48 49 49 50 50 50 51 51 51 51 50 49 49 49 48 48 47
46 46 46 46 46 47 47 48 48 48 47 47 46 45 45 45 45 45 45 44 44 44 45 45 46 47 47 47 47 47 46 47 47 47 47 48 48 47 46 46 46 47 47
47 47 47 47 47 47 48 48 47 46 45 45 44 44 44 44 44 44 44 44 44 44 44 44 44 45 45 45 44 43 41 41 40 41 42 44 45 45 44 44 45 46 46
47 47 47 47 47 48 47 46 45 44 43 43 43 43 43 43 43 43 43 44 44 43 43 42 43 42 42 41 40 39 37 36 35 35 36 40 42 42 42 42 42 43 45
47 47 47 47 48 47 45 44 43 42 42 42 42 42 42 42 42 42 43 43 43 42 41 40 40 40 39 38 37 35 34 32 31 31 32 34 36 37 38 39 40 41 42
46 46 46 46 45 44 43 42 42 41 41 41 41 41 41 41 41 42 42 41 41 40 39 39 38 37 36 35 34 32 31 30 30 29 30 31 32 33 36 38 38 39 41
46 45 45 44 42 42 41 40 40 40 40 40 40 40 40 40 40 40 40 39 39 38 37 37 36 35 34 32 31 30 28 28 29 28 29 30 31 31 33 35 37 38 40
44 43 42 41 40 39 39 38 38 38 38 38 38 38 38 39 39 39 38 38 37 37 36 35 35 34 32 31 30 29 28 27 27 28 28 29 30 31 33 35 37 39 40
41 40 39 38 38 37 37 36 36 36 36 36 37 37 37 38 37 37 37 37 36 36 36 35 34 33 32 31 30 29 29 29 29 29 29 30 31 33 35 36 37 39 40
38 37 37 36 35 34 34 34 34 34 35 35 35 36 36 36 36 36 36 36 36 36 35 35 34 33 33 32 31 31 31 31 31 31 32 33 33 35 36 37 39 40 42
35 34 34 33 32 32 32 32 32 33 33 33 34 34 34 35 36 36 36 36 36 35 35 35 35 34 34 34 33 33 33 34 34 35 35 36 37 37 39 40 41 43 44
32 32 31 30 30 30 30 31 31 31 31 32 32 33 34 35 35 35 36 35 35 36 36 36 36 36 35 35 36 36 36 37 37 38 38 40 41 41 42 43 44 45 46
30 30 29 29 29 29 29 29 29 30 30 31 33 34 34 35 35 35 36 36 36 36 36 36 36 37 37 37 37 38 39 39 40 41 41 43 44 45 46 46 47 48 49
28 28 28 28 28 28 28 28 29 30 31 32 33 34 34 35 35 36 36 36 37 37 37 37 38 38 39 39 40 40 40 41 43 44 45 46 46 47 48 48 49 50 50
27 27 27 27 27 27 27 28 29 30 32 32 33 34 35 36 36 36 37 37 37 38 38 38 39 40 40 41 41 42 43 44 45 46 47 48 48 49 49 49 50 50 50

GEFSMA_500_meanwind_072.txt.gz
Wind_Speed
18 18 18 18 19 19 20 21 22 23 24 25 27 28 29 30 32 33 34 35 36 36 37 37 37 37 37 36 36 35 34 34 34 33 33 32 32 32 32 31 30 30 28
21 21 21 21 21 22 22 23 24 25 27 28 29 30 31 32 34 35 36 37 38 38 38 38 38 38 37 37 36 36 35 35 34 33 33 33 33 33 33 33 32 31 31
23 24 24 24 24 25 25 26 27 28 29 30 32 33 34 35 36 37 38 39 39 39 39 39 39 38 38 37 36 36 35 35 34 34 34 34 34 34 34 34 34 33 32
26 26 27 27 27 27 28 29 30 31 32 33 34 35 36 37 38 39 40 40 41 40 40 40 40 39 38 37 37 36 36 35 35 35 35 35 35 35 36 36 35 35 34
29 29 30 30 30 31 31 32 33 34 35 36 37 37 38 39 40 41 42 42 42 42 42 41 40 40 39 38 37 37 37 37 37 37 36 36 36 37 37 38 37 37 36
32 32 33 33 33 34 34 35 36 36 37 38 39 39 40 41 42 42 43 43 43 43 43 42 41 40 40 39 38 38 37 37 38 38 38 37 38 38 39 39 39 39 39
35 35 36 36 36 36 37 38 38 39 39 41 41 41 41 42 42 43 43 44 44 44 43 42 41 41 40 40 39 38 38 38 38 38 38 38 39 40 40 41 42 42 41
38 38 38 39 39 39 39 40 41 41 42 42 43 44 42 42 42 43 44 44 44 44 43 42 42 41 41 40 39 39 39 39 38 39 39 39 39 40 41 42 43 44 44
41 41 41 41 41 41 41 42 43 43 43 44 44 45 45 44 43 42 42 43 43 43 43 42 42 41 40 40 39 39 39 39 39 39 40 40 41 41 41 41 43 44 44
44 44 44 43 43 43 43 44 44 45 45 44 44 45 46 46 46 45 43 42 42 42 42 42 41 41 40 40 39 39 40 40 39 39 39 40 40 41 41 41 41 42 44
45 45 45 45 45 45 45 45 45 45 45 45 46 46 46 46 46 46 44 42 41 41 41 41 41 41 40 40 40 40 40 40 39 39 39 38 38 39 38 38 39 40 41
47 47 47 47 47 47 47 47 47 47 47 47 47 47 46 46 46 45 44 43 42 41 41 41 41 40 40 40 41 40 40 39 38 38 38 38 37 36 35 35 36 36 37
49 49 49 49 49 48 48 48 48 48 47 47 47 46 46 46 45 44 43 42 41 41 41 41 41 40 40 41 40 40 39 38 38 38 37 37 35 34 33 33 34 34 35
50 50 50 50 49 49 48 48 47 47 46 46 46 46 45 45 44 43 42 41 41 40 40 40 39 40 40 39 39 38 38 37 37 37 36 34 34 33 32 32 32 33 33
51 51 50 49 48 48 47 47 46 46 46 45 45 44 44 44 42 42 41 40 39 39 39 39 39 39 39 39 38 37 36 36 36 35 34 32 32 31 30 30 30 30 31
49 48 47 47 46 46 45 45 45 45 44 44 44 43 43 42 41 40 39 39 38 38 38 38 39 39 39 38 37 37 36 35 35 34 32 31 30 29 28 28 29 29 30
48 47 46 46 45 44 44 44 44 44 44 43 43 42 41 40 39 39 38 37 37 37 37 37 37 37 37 36 36 36 35 35 34 33 31 30 29 29 28 28 28 28 29
48 47 46 45 44 44 44 44 44 43 43 42 41 40 39 38 37 37 36 36 36 36 36 36 36 36 36 36 35 35 34 34 33 32 31 30 29 29 28 28 28 29 30
47 46 45 44 44 43 43 43 42 42 41 40 39 38 37 36 36 35 35 35 35 35 35 35 35 35 35 35 35 34 34 33 33 32 32 31 30 29 29 29 29 30 31
46 45 44 44 43 43 42 41 41 40 39 38 37 36 35 35 35 34 34 34 34 34 34 34 35 35 35 35 34 34 33 33 32 32 32 32 32 32 31 31 31 32 32
45 44 43 43 42 42 40 40 39 38 37 37 35 34 34 34 33 33 33 33 33 33 34 34 34 34 34 34 34 34 33 33 33 33 33 33 34 34 34 34 34 34 34
42 42 41 41 40 39 39 39 37 36 35 34 33 33 33 32 32 32 32 32 32 33 33 34 34 34 34 34 34 34 34 34 34 35 35 35 36 36 36 36 36 37 37
40 40 39 38 38 37 37 36 35 34 33 32 32 32 31 31 31 31 31 32 32 33 34 34 34 34 34 34 35 35 35 36 36 36 37 37 37 37 38 39 39 40 41
37 37 36 36 36 35 34 34 33 32 32 31 31 30 30 30 30 31 31 32 33 33 34 34 34 35 35 35 35 36 37 37 38 38 39 39 39 40 40 41 42 42 43
35 35 35 34 33 33 32 32 32 31 31 30 30 29 30 30 31 32 32 32 33 34 34 34 35 35 35 36 37 38 38 39 40 40 40 41 41 42 42 43 43 44 45
33 33 32 32 32 32 32 31 31 30 30 30 29 29 30 31 32 32 33 33 34 35 35 35 36 36 37 38 39 39 40 41 41 41 42 43 43 44 44 45 45 46 46

GEFSMA_500_meanwind_078.txt.gz
Wind_Speed
17 16 16 16 16 16 17 18 18 19 20 21 22 23 25 26 28 29 30 32 34 35 35 36 36 36 36 36 36 35 35 34 33 33 32 31 30 29 29 29 28 27 26
20 19 18 19 19 19 19 20 21 21 22 23 24 25 27 28 30 31 32 33 35 36 37 37 37 37 37 37 37 36 36 35 34 33 32 32 31 30 30 30 30 29 27
23 22 22 22 22 22 22 23 23 24 25 26 27 28 29 30 32 33 35 35 36 36 37 38 38 38 38 38 38 37 36 36 35 34 33 33 32 31 31 30 30 30 29
25 25 25 25 24 25 25 25 26 27 28 29 29 30 31 32 34 35 37 38 38 38 38 38 39 39 39 38 38 38 37 37 36 35 34 34 33 32 31 30 31 30 30
29 28 28 28 27 27 28 28 29 30 30 31 32 33 34 35 36 37 38 39 39 39 39 40 40 40 40 39 39 38 37 37 36 36 35 34 34 32 32 32 31 31 31
32 32 31 31 31 31 31 32 32 33 34 34 35 35 36 37 38 39 40 41 41 41 41 42 42 42 41 41 39 38 37 37 36 36 36 36 34 33 33 32 32 32 32
36 35 35 34 34 34 34 35 35 36 36 37 38 38 38 39 40 40 41 42 42 43 43 43 43 42 42 41 40 39 38 37 37 36 36 36 35 34 34 33 33 32 32
39 38 38 37 37 37 37 38 38 39 39 40 41 41 41 40 41 42 41 41 43 44 44 44 43 42 42 41 39 39 38 38 37 37 36 35 35 35 35 35 33 32 31
41 41 41 41 41 41 41 41 42 42 42 43 43 44 45 44 43 43 42 42 43 44 44 43 43 42 42 40 39 39 38 38 37 36 36 35 35 35 35 34 33 32 31
44 45 45 45 45 45 44 45 45 45 45 45 46 46 47 47 46 44 44 44 44 44 43 43 42 42 41 40 39 39 38 38 37 36 36 35 35 35 34 33 33 32 32
47 48 48 48 48 47 47 47 47 47 47 47 47 47 48 47 47 46 45 45 44 44 43 43 43 42 41 40 39 38 38 37 36 36 35 35 34 34 33 32 32 32 31
48 49 50 50 50 49 48 48 48 48 48 48 49 48 48 47 46 46 45 44 44 44 44 43 42 41 40 39 39 38 37 36 36 35 35 34 34 33 32 31 32 32 31
50 50 51 51 51 50 50 49 49 49 49 49 49 48 47 46 46 45 45 44 44 43 43 42 41 41 40 39 38 37 36 36 35 34 34 33 32 32 31 31 31 31 30
52 52 52 51 51 51 50 50 49 49 49 49 48 47 46 45 45 45 44 44 43 43 42 41 41 40 39 38 37 36 35 35 34 33 32 32 32 31 31 31 30 30 30
52 52 52 51 51 50 50 49 49 48 48 47 47 46 45 45 45 44 44 44 43 42 41 40 39 38 37 37 36 35 34 33 32 32 32 31 31 31 31 31 30 30 30
51 50 50 50 49 49 49 49 48 48 47 46 46 45 45 45 45 45 44 44 43 41 40 39 38 37 36 35 34 33 33 32 32 32 32 31 31 31 31 30 29 29 28
50 50 50 49 49 49 49 48 48 47 47 46 46 45 45 45 45 45 44 43 41 40 38 37 36 35 35 34 33 32 32 32 31 32 32 31 31 30 30 29 28 28 28
51 51 51 50 50 50 49 48 48 47 46 46 46 45 45 45 45 43 42 41 39 37 36 35 35 34 34 33 32 31 31 31 31 31 31 31 30 30 30 29 29 29 28
51 51 51 50 49 49 48 48 47 47 46 45 45 45 45 44 43 41 40 38 37 36 35 34 33 33 32 31 31 31 31 31 31 31 30 30 30 30 30 30 30 30 30
49 49 49 48 48 47 47 46 46 45 45 45 44 44 43 42 41 39 38 36 35 34 33 33 32 32 31 31 31 31 31 31 31 31 31 30 31 31 31 31 31 31 31
45 45 45 45 45 45 45 45 44 44 43 43 43 42 41 39 38 37 35 34 33 32 32 31 31 31 31 31 31 31 31 31 31 31 31 31 31 31 32 32 32 32 32
43 43 43 43 43 42 42 42 42 41 41 41 40 39 37 36 35 34 33 32 32 32 31 31 31 31 31 31 31 31 31 31 31 31 32 32 33 33 33 34 34 34 34
41 41 42 42 41 41 41 41 40 39 39 38 37 36 35 34 33 32 32 32 31 31 30 30 31 31 31 31 32 32 32 32 33 33 33 34 34 34 35 35 35 35 35
40 40 40 40 39 39 39 39 39 38 37 36 35 34 33 32 31 31 31 31 31 31 31 31 31 32 32 33 33 33 33 34 34 34 34 35 35 36 36 36 36 36 37
38 38 38 38 37 37 37 36 36 36 35 34 33 32 32 31 31 31 30 30 31 31 31 32 32 32 33 34 34 35 35 35 35 36 36 36 37 37 37 37 38 38 38
36 36 35 35 35 34 34 34 33 33 33 32 31 31 31 31 30 30 31 31 31 31 32 33 33 34 34 35 35 36 36 36 36 37 37 38 38 38 38 39 39 39 39

GEFSMA_500_meanwind_084.txt.gz
Wind_Speed
21 21 20 19 18 18 17 17 17 17 18 18 19 19 20 21 22 23 24 26 27 29 30 31 32 32 32 32 32 33 33 33 33 33 33 32 32 31 31 30 29 28 27
23 23 22 21 21 20 20 19 20 20 20 21 21 22 23 23 24 25 26 28 29 30 32 33 33 33 33 33 34 34 34 34 34 34 34 33 33 32 31 30 29 28 27
25 25 24 24 23 23 23 22 22 23 23 23 24 25 26 26 27 28 29 30 31 32 33 34 34 35 35 35 34 35 35 35 35 35 34 34 33 32 32 31 29 28 27
27 26 26 26 26 26 26 26 26 26 26 26 27 28 28 29 30 30 32 33 33 34 35 35 36 36 36 35 35 35 36 35 36 36 35 34 33 33 32 31 30 28 27
29 29 28 28 28 28 28 28 29 29 29 29 30 30 31 31 32 33 34 35 36 36 37 37 37 37 36 36 36 36 35 36 36 36 36 35 34 33 33 32 30 28 27
31 31 31 31 31 31 31 31 32 32 32 32 32 33 33 34 35 36 37 38 38 39 39 39 38 38 38 37 36 36 36 36 37 36 36 35 34 34 33 32 30 28 27
33 33 33 33 33 34 34 35 35 35 35 35 35 35 36 37 38 39 40 40 41 41 40 40 40 39 38 38 37 36 37 37 37 37 36 35 34 34 33 32 31 29 28
35 35 36 36 36 36 37 37 38 38 38 39 39 39 39 39 41 41 42 42 42 42 41 41 40 40 39 38 37 37 38 38 38 37 36 35 34 33 32 32 31 30 29
37 37 38 38 39 39 39 40 41 41 41 41 42 43 42 42 42 41 42 43 43 43 41 40 40 39 39 38 38 38 39 38 38 37 35 35 34 33 32 31 30 30 29
40 40 40 41 41 42 42 43 43 43 43 43 44 44 45 45 45 44 43 43 43 43 42 40 40 39 38 38 38 38 38 38 38 36 35 34 33 32 31 30 29 29 28
40 41 41 42 42 43 44 44 45 45 45 45 45 46 47 47 47 47 45 44 44 43 42 41 40 39 38 38 38 39 39 38 37 36 35 33 32 31 30 29 28 28 27
43 43 42 43 44 45 45 45 46 46 47 47 48 48 48 48 48 48 47 46 45 44 42 41 41 40 40 39 39 39 39 37 36 35 33 32 31 30 29 28 27 27 27
44 45 45 46 46 47 47 48 48 49 49 49 49 49 48 48 48 48 47 46 45 44 43 42 41 41 40 40 40 40 39 37 35 33 32 31 30 29 28 27 27 26 26
47 47 48 49 49 50 50 50 50 50 50 50 49 49 49 48 48 47 46 45 44 44 44 43 42 42 42 41 41 40 38 36 34 32 31 30 29 28 27 27 26 26 26
49 49 50 50 51 51 51 51 50 50 49 49 49 49 49 48 47 47 46 46 45 44 44 43 43 43 42 41 41 39 37 34 33 32 30 29 28 27 27 26 26 25 25
49 49 49 49 49 50 50 50 50 50 49 49 49 49 48 47 48 47 47 46 45 45 44 43 43 43 42 41 39 37 35 33 32 31 30 28 27 27 26 26 25 25 25
49 49 49 49 49 49 50 50 50 50 50 49 49 49 48 48 47 46 46 46 45 45 44 43 43 42 40 39 37 35 33 32 31 30 29 28 27 26 26 25 25 24 24
48 48 48 48 48 49 49 49 49 49 49 49 49 48 48 47 46 46 45 45 45 44 43 42 41 40 38 37 35 33 32 31 30 30 28 27 27 26 26 25 25 25 24
48 47 48 48 48 48 49 49 48 48 48 48 47 47 46 46 45 44 44 43 43 42 41 40 39 37 36 34 33 31 31 31 30 29 28 27 26 26 26 26 25 25 25
47 47 47 47 47 47 47 47 47 46 46 45 45 45 44 43 43 43 42 42 41 40 39 38 37 35 34 32 31 31 30 30 28 28 27 27 26 26 26 26 26 26 26
45 45 45 46 46 46 46 45 45 44 43 42 42 42 41 41 41 40 40 40 39 38 37 36 35 33 32 31 31 30 29 28 28 28 28 27 27 27 27 27 27 27 27
43 43 44 44 44 44 44 43 42 42 41 40 40 40 40 39 39 38 38 38 37 36 35 34 33 32 31 30 30 29 29 28 28 28 28 28 28 28 28 28 28 28 29
42 42 42 42 42 42 42 41 40 39 39 39 39 39 39 38 37 37 36 36 35 34 33 32 32 31 31 30 29 29 29 29 29 29 29 29 29 30 30 30 30 30 30
42 42 42 41 40 40 39 39 39 38 38 38 38 37 37 36 36 36 35 34 33 32 32 32 31 31 30 30 29 29 29 29 30 30 30 30 30 31 31 31 31 31 32
40 40 40 39 39 39 39 38 38 37 37 36 36 36 36 35 35 34 33 33 32 32 32 31 31 31 30 30 29 29 30 30 30 31 31 31 31 31 32 33 33 33 34
39 39 39 39 38 38 37 37 36 36 35 35 34 34 34 33 33 32 32 31 31 30 30 30 30 30 30 30 30 30 31 31 31 31 31 32 32 33 33 34 34 34 35

GEFSMA_500_meanwind_090.txt.gz
Wind_Speed
23 23 22 22 22 22 21 21 20 20 20 20 21 21 21 22 22 23 24 24 25 26 27 28 30 31 32 33 34 34 35 35 34 34 33 32 32 31 31 31 31 30 29
24 24 24 24 24 23 23 23 23 23 23 23 23 23 24 24 25 26 26 27 28 29 30 31 32 33 34 35 36 36 37 37 35 35 34 32 32 32 32 32 31 31 30
26 26 26 25 25 25 25 25 25 26 26 26 26 26 26 27 28 29 29 30 30 31 32 33 34 35 36 37 38 38 38 37 36 36 34 33 33 33 33 32 32 31 30
27 27 27 27 27 27 27 27 28 28 28 28 29 29 29 30 31 32 32 33 33 34 35 36 37 37 38 39 39 39 39 38 37 36 35 34 34 34 34 33 32 31 30
30 29 29 29 29 29 29 30 30 30 30 31 31 31 32 33 34 35 35 36 36 37 38 38 39 39 40 40 40 40 39 38 37 36 35 34 34 35 34 33 33 32 30
32 31 31 31 31 31 32 32 32 33 33 34 34 34 35 36 36 37 38 39 39 40 40 41 41 41 41 41 41 40 39 38 37 36 35 35 35 35 34 34 33 32 31
34 34 33 33 33 34 34 34 35 35 36 36 36 36 37 38 39 39 40 41 41 42 42 42 42 42 42 42 41 41 40 38 37 36 36 35 35 35 35 34 33 32 31
37 37 36 36 36 36 36 37 37 38 38 39 39 39 39 39 40 41 42 43 44 44 44 44 43 43 43 43 42 41 40 39 38 37 37 36 36 35 35 34 33 32 30
36 36 36 37 37 37 38 38 38 38 39 40 40 41 41 41 41 42 43 44 44 45 45 45 45 44 44 43 43 41 40 40 39 38 38 37 36 36 35 34 33 31 29
38 37 38 38 39 39 39 40 40 40 41 41 42 42 43 43 43 43 43 44 45 46 46 46 46 45 44 43 43 42 41 41 40 39 38 37 36 36 35 34 32 30 29
39 39 39 40 41 41 41 41 41 42 43 43 43 43 44 45 46 46 45 46 46 47 47 46 46 45 44 43 42 42 41 41 40 40 38 37 36 36 35 33 31 30 28
39 39 39 41 41 41 42 42 42 43 44 44 45 45 46 46 47 48 48 48 48 48 47 47 46 45 44 44 43 42 42 41 40 39 38 37 36 36 34 32 30 28 27
39 39 39 40 41 41 42 43 44 44 44 45 46 47 47 48 48 49 50 49 49 48 47 47 46 46 45 45 44 43 42 41 40 39 38 37 36 35 33 31 29 28 26
40 41 41 41 42 43 43 43 44 44 45 46 47 47 48 49 49 49 50 49 49 48 47 47 47 46 46 45 44 43 42 41 40 39 38 37 35 33 31 29 28 27 26
42 42 43 44 44 44 45 45 45 46 46 46 47 48 48 48 48 48 49 48 48 48 47 47 46 46 46 44 43 42 41 41 39 38 37 35 33 31 30 28 27 26 26
44 45 45 44 44 45 45 46 46 46 46 46 47 46 46 46 47 47 48 48 48 47 46 45 45 45 44 43 42 42 41 40 38 38 36 33 32 30 29 28 27 26 25
45 45 46 46 46 46 46 46 46 46 47 47 47 47 47 47 47 47 47 47 47 47 46 45 44 43 42 42 41 40 40 38 37 35 33 31 30 29 28 28 27 26 25
47 47 48 47 47 47 47 46 46 46 46 46 46 46 46 46 46 47 46 46 46 46 45 44 43 42 42 41 40 39 38 37 35 33 32 30 29 28 28 27 27 26 25
47 48 47 47 47 47 47 47 47 47 47 46 46 46 46 46 46 46 45 45 44 44 43 42 41 41 40 39 39 38 37 36 34 32 31 30 29 28 27 26 26 25 25
46 46 46 46 46 46 46 47 46 46 46 46 46 46 45 45 45 44 44 43 43 42 41 40 39 39 38 38 38 37 36 34 33 32 30 29 29 28 26 26 25 25 24
45 46 46 46 46 46 46 45 45 45 45 45 44 44 44 44 43 43 42 42 42 41 40 39 38 38 38 37 36 35 34 33 31 30 29 29 28 27 26 26 26 25 25
44 44 44 44 44 44 44 44 44 44 44 43 43 43 43 42 42 41 40 40 39 39 39 38 37 37 36 35 34 33 32 31 30 29 29 28 28 27 27 26 26 26 26
43 42 42 43 43 43 43 43 43 43 43 42 42 42 41 41 40 40 39 38 38 37 36 36 35 35 34 33 32 31 30 30 30 29 29 28 28 28 27 27 27 27 27
43 42 42 42 43 43 43 43 42 42 42 42 42 41 40 39 38 37 37 36 36 35 35 35 34 33 33 32 31 30 29 29 29 29 28 28 28 28 28 28 28 28 28
43 43 43 43 43 43 43 42 41 41 41 41 41 40 39 38 37 36 35 35 35 34 34 34 33 32 31 31 30 29 29 28 28 28 28 28 28 28 28 28 29 29 29
42 43 43 43 43 42 42 42 42 41 41 40 39 38 38 37 36 35 35 34 34 33 33 33 32 31 30 30 29 29 28 28 28 28 28 28 29 29 29 29 29 29 29

GEFSMA_500_meanwind_096.txt.gz
Wind_Speed
30 29 28 27 26 25 24 23 23 23 23 22 22 23 23 23 23 23 24 25 26 26 27 28 29 30 31 32 33 34 35 35 36 36 36 36 36 35 34 32 31 30 29
32 31 30 29 28 27 26 25 25 25 25 25 25 25 25 25 25 26 26 27 28 29 29 30 31 32 33 34 35 36 37 37 38 38 38 37 36 35 34 33 32 31 29
34 33 32 31 30 29 28 28 27 27 27 27 27 27 27 27 27 28 28 29 30 31 31 32 33 34 35 36 37 38 38 39 39 39 39 38 38 36 35 34 32 31 30
35 34 33 32 32 31 31 30 29 29 29 29 29 29 29 29 30 30 31 32 32 33 34 35 35 36 37 38 38 39 40 40 41 40 39 39 39 37 36 34 33 32 31
36 36 35 34 34 33 33 33 32 32 32 32 32 32 32 32 32 33 33 34 35 36 37 37 38 38 39 39 40 41 41 42 41 41 40 40 39 38 36 35 34 33 32
37 37 37 37 36 36 35 35 35 35 34 34 34 34 34 34 34 34 35 35 36 37 38 39 39 40 40 41 42 42 42 42 42 42 41 41 39 38 37 35 34 34 33
39 38 37 37 38 38 37 37 37 37 36 36 36 36 36 36 36 37 37 37 38 38 39 40 41 41 42 42 42 42 43 43 43 43 42 41 40 39 37 36 36 34 33
41 40 40 39 39 39 39 39 39 38 38 38 37 37 37 37 37 38 39 39 40 41 41 42 42 42 43 43 43 43 44 44 44 44 43 42 41 39 38 38 36 35 33
43 43 42 41 41 41 41 40 40 39 38 38 38 39 39 39 39 39 40 41 41 42 42 43 43 44 44 45 45 45 45 45 44 44 43 42 41 40 39 38 37 35 33
44 43 43 42 41 41 41 41 41 40 39 39 40 40 40 40 40 40 40 41 42 43 44 44 45 45 46 46 46 46 46 46 45 44 43 42 42 41 40 39 37 35 34
44 44 43 43 43 43 42 42 41 41 40 41 41 41 41 41 42 42 42 43 43 44 45 45 46 46 46 47 47 47 46 45 45 44 43 42 42 41 40 38 36 35 33
44 44 44 43 43 42 41 41 41 42 41 41 40 41 42 42 43 43 43 44 44 44 45 46 47 47 47 47 46 46 45 45 45 44 43 42 41 40 39 37 35 34 32
43 43 43 44 43 43 42 42 41 40 40 40 40 41 42 43 43 43 43 44 44 45 46 46 47 47 46 46 46 46 46 45 44 43 43 42 40 39 37 35 34 33 31
43 44 44 43 43 43 42 41 40 40 40 40 41 41 42 42 43 44 44 45 45 45 46 46 47 46 46 46 46 46 45 45 44 43 42 40 39 38 37 35 33 32 30
44 45 44 43 42 41 40 40 40 41 41 42 42 42 42 43 43 44 44 45 45 45 45 46 46 46 46 46 46 45 45 44 43 42 40 39 38 37 35 33 32 31 29
39 41 42 42 41 41 41 42 42 42 42 43 44 43 43 43 44 44 45 45 45 45 45 45 45 45 46 46 45 44 43 42 41 40 39 38 37 35 33 32 31 30 28
39 40 40 41 42 43 42 42 43 42 42 43 44 44 44 44 44 44 44 44 45 45 45 45 45 45 45 45 44 43 42 41 40 39 38 36 35 34 33 32 31 29 28
41 42 42 42 42 43 43 43 42 42 42 43 43 44 44 43 44 44 44 45 45 45 45 44 44 44 43 43 43 42 40 39 38 37 36 35 35 33 32 31 30 28 27
42 42 42 43 43 43 43 44 43 43 43 43 43 44 44 44 44 44 44 44 44 44 43 43 43 43 42 42 41 40 39 38 36 35 34 34 33 32 31 29 28 27 26
42 43 43 43 43 44 45 45 45 45 44 44 44 44 44 44 44 43 43 43 43 42 42 42 41 41 40 40 39 38 37 36 35 34 33 32 31 30 30 29 28 26 26
44 44 45 45 45 46 46 45 45 45 44 44 44 43 42 43 43 42 42 42 41 41 41 40 39 39 38 38 37 36 35 34 33 32 32 31 29 28 27 26 26 25 25
46 46 46 45 46 46 46 45 44 44 44 44 43 43 43 42 41 41 41 41 40 40 39 39 38 37 36 36 34 34 33 32 32 31 30 29 27 26 25 25 25 25 25
47 47 47 46 46 45 45 45 45 45 44 44 43 43 42 41 41 41 40 40 39 39 38 37 37 35 34 34 33 33 32 31 30 29 28 27 26 25 25 25 24 24 25
47 46 46 46 46 46 46 45 45 45 44 44 43 42 42 41 41 40 40 39 38 38 37 36 35 34 34 33 32 31 31 30 29 28 27 26 25 25 24 24 24 25 25
46 46 46 45 45 45 45 45 45 44 44 44 43 42 41 41 40 40 39 38 38 37 37 36 35 34 33 32 32 31 30 29 28 27 26 26 25 25 24 25 25 25 25
46 46 45 45 45 44 45 44 44 44 43 43 42 41 41 41 40 40 39 38 37 37 36 35 33 33 32 32 31 30 30 29 27 27 26 26 26 25 25 25 25 25 25

GEFSMA_500_meanwind_102.txt.gz
Wind_Speed
36 34 33 32 31 30 29 28 27 26 25 24 24 23 23 24 24 24 24 24 24 25 25 26 27 27 28 29 30 31 32 33 33 34 35 35 36 37 37 37 36 36 36
38 36 35 34 33 32 31 30 28 27 26 26 26 26 26 26 26 26 26 26 26 27 27 28 28 29 30 31 32 33 34 34 34 35 36 37 38 38 38 37 37 37 36
40 38 37 36 34 33 33 32 30 29 29 28 28 28 28 28 28 28 28 28 28 29 29 30 30 31 32 33 33 34 35 35 36 37 38 38 39 38 38 38 38 38 37
41 40 39 38 36 35 35 34 33 32 31 30 30 30 30 29 30 30 30 30 30 31 31 32 32 33 34 34 35 36 36 37 38 38 38 39 39 39 39 39 39 39 37
43 42 41 39 37 35 34 34 33 32 32 31 31 31 32 32 32 32 32 32 32 32 33 34 34 34 35 36 37 37 38 39 39 39 39 39 40 40 40 40 40 40 38
44 42 41 39 37 36 35 35 34 34 34 33 33 34 34 34 34 34 34 34 34 35 35 35 35 36 37 37 38 38 39 39 40 40 41 41 41 41 41 41 41 40 38
45 43 42 41 40 39 38 37 37 36 36 36 36 36 36 35 35 35 35 36 36 36 36 36 36 37 37 38 38 38 39 39 40 41 42 42 42 42 42 42 41 40 39
45 45 44 44 43 41 41 40 39 39 38 38 38 38 37 36 36 37 38 38 38 37 37 38 38 37 37 38 39 39 40 41 42 42 42 43 43 43 43 42 41 40 38
45 44 43 43 44 43 41 41 41 41 41 41 40 40 39 39 39 39 39 39 39 39 38 38 38 39 39 39 39 40 41 41 42 43 43 43 43 43 43 42 42 40 39
45 44 43 43 44 44 42 42 42 43 43 43 42 41 41 41 40 40 40 39 39 39 39 39 39 40 39 39 40 41 41 42 43 43 44 44 44 44 44 43 42 41 39
45 45 46 46 46 45 44 43 44 45 44 44 43 43 42 41 41 41 41 41 41 41 41 40 40 40 40 41 41 42 42 43 44 44 45 45 45 45 45 45 43 41 40
45 45 44 45 46 46 46 46 45 45 44 43 43 42 43 43 43 43 42 41 40 40 40 40 40 40 41 42 42 42 43 44 44 45 45 46 46 46 46 44 42 41 39
43 45 45 45 46 47 47 47 46 46 45 44 45 45 44 44 43 43 42 40 40 39 39 40 41 41 42 43 43 43 44 44 45 45 46 46 46 46 45 43 42 40 37
42 44 45 45 45 45 45 45 45 45 46 45 45 46 46 43 42 42 42 41 40 40 39 40 41 43 43 43 43 43 44 44 45 45 46 46 46 45 44 42 40 38 36
41 42 43 45 44 43 44 44 45 46 46 45 45 45 45 44 43 43 43 43 42 41 40 41 43 43 43 43 43 43 44 45 46 46 46 46 45 44 42 41 39 36 35
41 42 43 43 43 44 44 45 46 46 47 46 46 45 45 45 44 44 44 44 43 43 43 42 43 43 43 43 43 44 44 45 45 45 45 44 43 42 40 39 37 35 33
40 41 42 42 43 44 46 46 45 46 46 46 47 48 47 45 45 45 45 45 45 45 45 44 44 44 44 44 44 44 44 44 44 43 43 42 41 40 38 37 36 34 32
39 40 42 43 43 44 45 46 47 47 47 47 47 47 46 46 46 46 46 46 46 46 46 46 45 45 45 45 44 44 44 43 43 42 42 41 39 38 37 35 34 33 31
38 40 42 44 44 45 46 47 47 47 47 47 47 47 47 47 47 46 46 47 47 47 46 45 45 45 44 44 43 43 43 43 42 41 40 39 38 36 35 34 32 31 30
37 39 41 42 43 44 45 46 47 47 47 47 48 47 47 48 47 46 46 47 47 46 45 44 44 43 43 43 43 42 42 41 40 39 38 37 36 35 33 32 31 30 29
40 41 42 43 44 45 45 47 47 48 48 47 47 47 48 48 48 47 46 46 45 44 43 42 42 42 42 42 42 41 40 40 39 37 36 35 34 33 32 31 29 28 27
42 43 44 44 44 44 45 46 46 48 48 47 48 48 48 48 48 48 46 45 44 43 42 42 42 42 41 42 41 40 39 38 37 36 35 34 33 32 30 29 28 27 26
44 45 45 45 46 46 46 46 47 47 47 46 46 47 48 47 47 47 46 45 45 44 44 43 43 42 42 41 40 39 38 37 36 35 34 33 32 30 29 27 26 25 24
47 47 46 47 47 47 47 47 48 48 48 47 47 47 48 48 48 47 46 46 45 45 44 44 43 42 41 40 40 39 38 36 35 34 33 32 30 29 28 26 25 24 23
47 47 47 47 48 48 49 49 48 48 48 48 48 48 48 48 48 47 47 46 45 44 44 43 42 41 40 40 39 38 37 36 34 33 32 31 30 29 27 26 25 25 24
48 48 48 48 49 49 49 49 49 48 48 48 48 48 48 48 47 46 46 45 44 44 43 42 41 41 40 39 38 37 36 35 34 33 31 30 29 28 28 26 25 25 24

GEFSMA_500_meanwind_108.txt.gz
Wind_Speed
41 39 36 34 33 32 31 30 30 29 28 28 27 27 27 26 26 26 26 26 27 27 27 27 28 28 29 29 29 30 30 31 31 32 32 33 34 34 34 35 36 36 36
42 41 39 37 35 34 33 32 31 30 30 30 29 29 29 29 29 29 28 28 28 29 29 29 29 30 30 31 31 31 32 32 33 33 34 35 35 35 35 36 37 37 37
44 44 42 39 38 36 35 34 33 32 32 32 31 31 31 31 31 31 31 30 30 30 31 31 31 32 32 33 33 33 33 34 34 35 35 35 35 35 36 36 37 37 38
46 45 43 41 39 38 37 36 35 34 34 33 33 33 33 33 32 32 32 32 31 31 32 33 33 34 34 34 34 35 35 35 36 36 36 35 35 35 36 37 37 38 39
47 47 45 43 42 40 40 39 38 37 36 36 34 34 34 34 34 34 34 34 33 33 34 34 34 35 35 35 36 36 36 37 37 37 36 36 36 36 37 37 38 39 40
47 47 46 45 44 42 42 41 39 38 37 37 37 36 36 36 36 36 36 36 36 36 36 36 36 36 36 37 37 37 37 37 37 37 37 37 37 37 37 37 39 40 40
48 48 47 46 45 44 43 42 41 40 39 39 39 39 39 39 39 38 38 38 38 39 38 38 38 38 38 39 38 38 38 38 38 38 38 38 38 38 38 38 40 40 41
46 47 48 47 46 44 44 43 42 41 40 40 41 42 42 42 42 42 41 40 40 40 40 40 40 40 40 40 39 39 38 39 39 38 38 38 38 39 39 40 41 41 42
46 46 46 47 47 46 46 44 44 43 42 43 43 43 43 43 44 43 43 43 43 42 42 42 41 41 41 41 40 40 39 40 39 39 39 39 39 40 40 41 42 42 42
45 45 45 46 47 47 47 46 46 46 46 46 45 45 45 45 44 43 43 44 44 44 43 42 42 42 42 42 41 41 40 40 40 40 39 40 40 41 42 43 43 43 43
43 43 44 46 47 47 47 48 48 48 48 47 47 46 47 47 46 45 44 45 45 44 43 42 42 43 43 43 42 42 41 40 40 40 40 41 42 42 43 44 43 43 43
41 42 43 44 45 47 49 50 49 49 49 48 47 48 49 48 47 47 47 46 45 44 44 44 43 42 43 43 42 41 41 40 41 41 41 42 43 43 44 44 43 43 42
42 42 43 43 44 47 49 49 51 51 50 50 50 50 50 50 48 49 48 47 45 45 45 45 44 42 42 42 43 42 42 42 42 42 42 43 43 44 43 43 43 42 42
41 41 42 42 44 46 47 48 48 49 50 51 51 50 50 50 49 49 49 48 47 46 45 45 45 44 44 44 44 44 43 43 43 44 44 44 44 43 43 43 43 42 41
38 41 41 42 43 44 45 47 48 49 49 50 51 52 51 50 49 49 49 48 48 47 46 46 46 46 46 45 45 45 44 44 44 44 44 44 44 43 43 43 42 41 40
36 39 39 40 42 45 46 47 49 50 50 50 50 50 49 49 49 50 50 49 49 48 47 46 46 46 47 47 47 46 45 45 45 44 44 44 44 43 42 42 41 40 38
35 37 39 41 43 46 46 48 49 49 50 49 48 49 49 49 50 51 52 51 50 50 49 48 48 47 48 47 47 47 47 46 45 44 44 44 43 43 42 41 40 38 37
35 37 40 42 43 45 47 48 49 50 50 50 50 51 51 51 52 52 52 52 52 52 51 50 50 50 50 49 49 48 47 46 45 44 43 43 42 42 41 39 38 37 36
34 37 40 42 43 44 46 48 50 51 51 52 52 52 53 53 53 54 54 54 54 54 53 52 53 52 51 51 49 47 46 46 44 43 42 42 41 40 38 37 36 36 34
33 35 38 40 42 44 46 47 49 51 52 53 54 55 54 55 55 55 56 56 56 55 55 54 55 53 51 50 48 46 45 43 42 42 41 41 40 39 38 36 36 34 33
35 37 40 42 43 45 46 47 49 51 52 54 55 56 57 57 58 57 57 57 57 57 56 55 54 53 49 48 47 45 44 43 43 42 41 40 39 38 36 35 34 33 31
37 40 42 44 45 47 48 49 51 53 55 56 56 56 57 58 58 57 56 56 56 56 55 54 53 51 49 47 46 45 44 43 42 41 40 39 38 37 35 34 33 32 30
38 41 43 46 48 49 50 51 53 55 56 58 58 59 58 57 56 56 55 55 55 54 52 51 49 49 48 46 44 43 42 41 40 39 38 38 37 35 34 33 32 30 29
40 42 44 46 48 49 49 50 51 52 54 56 57 56 56 56 55 54 54 53 53 53 52 50 48 47 46 46 44 43 42 40 39 38 38 37 36 35 34 32 31 29 28
41 43 45 46 47 47 47 48 49 50 51 52 52 53 54 53 54 54 53 51 51 50 48 48 47 46 46 45 44 43 42 40 39 38 37 36 35 34 33 32 30 29 28
43 44 46 46 47 47 48 48 49 50 50 49 49 50 51 52 52 52 51 50 49 48 48 47 47 47 46 45 44 43 41 40 39 37 36 36 35 34 32 31 30 29 28

GEFSMA_500_meanwind_114.txt.gz
Wind_Speed
40 39 39 38 37 35 34 32 31 30 29 28 28 28 28 28 27 27 27 27 28 28 29 29 30 31 31 31 32 32 33 33 33 33 33 33 33 33 33 33 33 32 32
40 40 40 40 39 38 36 35 33 32 31 31 31 30 30 29 29 29 29 29 29 30 31 31 32 32 33 33 33 33 34 34 34 34 34 34 34 34 35 34 34 33 34
41 41 41 41 41 40 39 38 36 35 34 33 33 33 32 31 31 31 32 32 32 32 33 33 34 34 34 35 35 35 35 35 36 36 36 36 36 36 35 35 34 34 35
42 42 42 42 42 41 41 39 38 37 36 36 35 34 34 33 33 34 34 33 33 34 35 35 35 35 36 36 36 37 37 38 38 38 38 37 37 37 36 36 35 35 35
44 44 43 43 43 43 42 41 40 39 38 37 37 37 36 36 35 35 35 35 35 35 36 37 37 37 37 38 39 39 40 40 40 40 39 38 38 37 36 36 36 36 36
45 45 45 44 43 43 43 43 41 40 39 39 39 38 38 38 38 38 38 37 37 37 38 38 39 39 40 41 41 41 42 41 41 40 40 39 39 38 37 37 37 37 37
47 46 45 44 43 43 43 44 43 42 42 42 41 41 41 41 41 40 40 40 40 40 40 40 41 42 42 43 43 43 43 42 42 41 40 40 40 39 39 39 39 39 39
46 45 44 44 43 44 44 44 44 44 44 44 44 44 44 43 42 42 42 42 42 42 42 43 43 43 44 44 45 44 44 44 44 43 43 42 41 40 40 40 40 40 40
48 47 45 44 44 45 45 45 46 46 47 47 46 46 45 44 44 44 43 43 44 44 44 45 44 45 45 46 46 45 45 46 46 45 44 43 42 41 41 41 40 40 40
50 49 47 46 45 45 46 46 46 47 47 47 47 47 47 47 47 46 44 44 45 45 46 46 47 47 48 48 47 47 47 47 46 45 45 44 43 42 42 42 41 41 40
50 49 47 47 47 46 45 46 46 45 46 47 47 48 48 47 47 46 46 46 47 47 48 48 48 48 49 49 49 49 49 48 46 45 45 44 43 42 42 42 41 41 40
48 47 47 46 45 45 45 44 44 45 45 45 46 47 48 48 47 48 49 49 49 49 50 50 50 50 50 50 50 50 50 49 47 46 45 44 44 43 43 43 42 42 41
43 43 43 43 43 43 44 44 44 45 44 45 45 46 48 48 49 50 52 52 52 52 51 51 51 52 52 53 52 51 50 50 48 47 46 45 45 44 44 43 42 42 42
41 42 43 44 44 44 45 43 43 44 44 45 46 47 49 50 51 53 54 54 55 54 54 53 53 54 54 53 52 51 50 48 47 47 46 46 45 45 44 43 43 42 42
39 40 40 41 42 43 43 43 44 45 46 46 47 48 50 51 54 55 56 56 56 56 55 55 55 54 53 53 52 51 49 48 47 47 45 45 46 45 44 44 43 42 41
35 36 37 38 39 41 43 44 45 46 46 48 49 50 51 52 53 54 55 56 56 57 57 55 55 55 55 54 52 51 50 48 47 47 46 46 45 45 44 43 42 41 40
32 33 35 36 37 39 41 42 44 46 48 50 52 52 53 54 55 56 57 57 57 59 59 57 57 56 54 53 52 51 50 49 48 47 46 46 46 45 43 43 42 40 39
30 32 33 34 36 38 41 44 45 47 49 50 51 53 55 56 57 58 57 57 57 58 59 58 57 56 55 53 52 52 53 52 50 49 47 46 46 45 44 43 42 41 39
28 31 33 35 37 40 42 45 47 48 50 52 53 55 56 57 59 60 59 59 60 60 60 60 58 56 54 54 53 53 53 52 51 51 49 47 46 45 45 44 43 41 39
27 31 34 36 38 41 42 44 46 48 50 52 55 56 58 59 60 61 62 62 63 63 62 59 57 55 54 53 53 53 53 53 52 51 51 49 48 46 45 43 42 40 38
28 31 33 35 37 39 41 44 46 48 50 51 53 56 58 60 61 62 62 63 63 62 60 58 57 56 55 55 54 54 54 53 52 51 50 49 47 46 44 42 40 39 37
28 30 32 34 37 39 42 44 46 48 49 51 53 54 56 58 59 60 62 62 62 59 58 57 57 57 56 55 54 54 53 52 51 49 48 47 45 44 42 40 39 37 36
29 32 34 36 38 40 43 45 47 49 51 52 53 53 55 56 58 58 58 58 57 56 55 55 55 56 55 53 53 53 53 51 49 48 46 45 43 42 41 39 37 35 34
30 33 36 38 40 43 45 47 49 50 51 51 51 53 54 55 55 55 54 54 54 53 52 53 53 53 53 53 53 52 51 50 48 46 44 43 42 41 39 37 35 34 34
32 35 38 40 42 44 45 47 49 50 50 50 51 53 54 53 53 52 52 52 51 51 51 51 52 51 50 50 51 50 48 47 45 43 41 41 40 39 38 36 35 34 33
34 36 38 40 42 44 45 47 49 50 50 50 51 53 54 53 51 50 50 50 49 49 49 50 50 50 50 48 47 46 46 46 44 42 41 41 39 38 37 36 35 34 33

GEFSMA_500_meanwind_120.txt.gz
Wind_Speed
39 38 37 37 37 37 36 35 35 34 33 32 32 31 31 31 30 30 30 29 29 29 29 29 29 30 30 30 30 31 31 32 32 32 32 32 33 33 33 33 33 33 32
42 41 40 39 39 38 38 38 37 37 36 35 34 34 33 33 32 32 31 31 31 31 31 31 31 32 32 32 32 33 33 33 33 33 34 34 34 35 35 34 34 33 33
44 44 42 41 41 41 40 40 40 39 39 38 37 37 36 35 35 34 34 33 33 33 33 33 33 33 33 33 34 35 35 35 35 36 36 36 36 36 36 36 35 34 34
46 45 43 43 43 43 42 41 41 41 40 39 39 39 38 38 38 36 36 35 35 35 35 35 35 35 36 36 37 37 37 37 37 37 37 38 37 38 38 37 36 35 35
48 47 45 44 44 43 43 42 42 41 41 41 40 40 39 39 39 38 37 36 37 37 37 37 38 38 38 38 38 38 38 39 39 39 39 39 39 39 39 38 37 37 36
50 49 48 47 45 45 44 43 42 42 43 42 41 41 40 41 41 39 38 38 39 39 39 39 39 39 39 39 39 39 39 39 40 41 41 41 40 40 39 39 39 38 36
52 51 50 49 48 46 45 44 44 43 42 43 43 43 42 42 41 41 41 40 40 40 40 41 40 40 40 40 40 41 41 41 43 43 42 42 41 41 41 40 40 38 37
54 52 51 50 49 48 46 45 44 44 44 43 43 43 43 42 42 41 41 41 41 42 42 43 42 42 41 42 42 43 43 42 43 44 44 43 43 43 42 41 40 39 38
54 53 52 51 49 47 46 45 44 44 45 44 44 43 42 42 42 42 43 43 43 43 42 43 43 43 43 43 43 44 44 44 45 45 44 44 44 44 43 41 41 40 39
54 52 51 50 50 49 48 48 47 45 44 44 44 44 44 43 43 43 43 43 43 42 42 43 44 44 44 44 45 47 47 47 47 46 46 46 46 45 44 43 42 41 40
53 52 51 50 49 48 47 48 48 47 45 45 45 46 46 45 44 44 43 42 43 43 44 45 46 46 46 47 47 48 48 49 48 48 48 47 47 47 46 45 44 42 41
50 50 50 49 49 48 47 46 46 47 46 46 46 46 45 45 44 45 44 43 43 44 45 47 48 48 49 50 50 50 51 51 50 50 49 48 48 48 46 46 44 42 41
48 49 49 49 48 48 47 46 47 46 45 44 44 45 45 46 45 45 46 46 46 47 48 49 49 51 52 52 52 52 53 53 53 52 51 50 49 48 47 46 45 43 41
47 47 48 49 48 47 46 45 44 43 44 44 44 44 45 46 47 48 49 49 49 49 49 50 51 53 53 53 54 55 55 55 55 54 53 52 51 49 48 47 45 43 42
42 43 44 45 46 45 45 44 44 45 45 46 46 46 47 48 48 50 51 52 52 52 52 53 54 55 56 57 57 58 57 57 56 56 55 54 53 52 50 48 46 43 42
37 38 39 41 42 43 44 45 45 46 47 47 48 48 49 50 51 53 53 54 55 56 56 55 56 57 58 59 60 60 60 60 59 58 57 55 54 52 49 47 45 44 42
33 34 35 37 38 39 40 42 44 45 46 48 49 50 51 52 53 55 56 57 58 59 60 59 60 60 60 60 60 60 60 59 58 57 56 54 52 51 49 47 44 44 42
28 30 32 33 35 36 38 41 42 44 46 47 49 50 51 51 53 53 55 56 58 60 61 62 62 61 60 60 60 59 58 57 56 54 53 51 50 48 47 46 45 44 43
25 27 29 31 33 35 37 39 40 42 43 46 48 49 51 52 52 53 54 56 58 60 62 63 63 62 62 62 61 60 58 55 54 53 52 49 47 46 45 44 43 43 41
24 26 28 29 32 33 35 37 39 41 42 44 46 48 51 53 53 54 56 58 59 61 62 63 63 62 61 59 59 58 57 55 53 51 50 48 46 46 45 43 42 42 42
24 25 26 28 30 32 33 34 37 38 39 42 45 47 49 52 53 54 56 58 59 59 60 60 60 59 59 58 57 56 56 56 54 52 50 48 47 47 46 44 42 41 40
21 23 24 26 28 30 32 34 35 38 39 42 44 47 49 51 53 55 56 57 57 56 57 58 57 56 56 56 55 55 55 53 52 50 48 47 47 46 45 45 43 41 40
20 22 24 26 28 30 32 34 36 39 42 44 46 48 50 52 53 54 55 56 56 56 57 57 56 56 55 54 53 51 51 50 49 47 46 45 44 42 42 42 41 40 40
21 23 26 28 30 32 34 37 39 41 43 45 47 48 50 51 52 53 54 54 54 55 56 56 55 53 52 51 51 49 49 48 47 46 46 45 43 42 41 41 40 38 38
24 26 29 30 32 34 36 38 40 41 43 45 47 49 50 50 52 53 54 54 54 53 53 52 51 51 50 50 49 49 48 48 47 46 45 45 43 42 42 41 40 39 38
27 29 30 32 34 36 37 39 41 42 44 46 48 50 51 51 52 52 52 52 52 51 51 50 49 49 49 49 49 49 48 48 46 46 45 44 43 42 42 40 40 39 38

GEFSMA_500_meanwind_126.txt.gz
Wind_Speed
40 39 38 37 37 36 35 34 33 33 33 33 32 32 31 31 32 31 31 31 31 31 31 31 31 31 31 31 31 31 32 32 32 31 32 31 31 32 32 32 32 32 31
41 41 40 39 39 38 37 37 36 36 35 35 34 34 33 33 33 33 33 33 33 32 32 32 32 32 32 32 33 33 33 33 33 33 33 33 33 33 33 34 34 33 32
44 43 42 41 41 40 40 39 38 38 37 37 37 36 35 35 35 35 35 35 35 35 34 33 33 34 34 34 34 34 34 34 34 34 35 35 35 35 35 34 34 34 33
46 45 44 43 43 43 42 41 40 39 38 39 39 39 38 37 37 37 37 36 37 36 35 35 35 35 35 35 35 35 35 36 36 36 37 37 37 37 36 35 34 34 33
48 48 47 45 44 44 44 43 42 41 41 40 40 40 40 40 39 39 38 37 37 37 37 37 36 36 36 36 36 37 37 38 38 38 39 39 38 38 37 36 35 35 34
51 50 49 47 45 45 44 44 43 43 43 43 42 42 42 41 41 40 39 38 37 37 38 38 38 38 38 38 38 38 38 38 38 39 39 39 39 39 39 38 37 36 35
52 52 52 50 48 47 46 45 45 45 45 44 44 44 42 42 41 40 40 39 39 39 39 39 40 40 39 39 39 39 39 39 39 40 40 40 40 39 39 39 38 37 36
54 53 53 52 51 50 49 48 47 47 47 45 44 44 43 43 42 42 41 41 40 40 40 41 41 41 40 39 39 39 39 40 40 41 41 41 41 41 41 41 40 39 38
54 55 54 53 53 53 52 51 49 48 47 46 46 46 45 44 43 42 42 42 41 41 41 40 39 39 40 40 40 40 41 41 41 42 42 42 41 42 42 42 41 40 39
54 54 53 53 53 52 51 51 50 50 49 48 46 46 46 45 45 44 43 44 43 42 41 41 40 41 41 42 42 42 43 43 43 44 44 43 43 43 43 43 42 42 41
50 50 51 51 51 51 51 52 51 51 50 49 48 48 47 46 46 45 44 43 43 42 42 42 43 43 44 44 44 45 45 46 46 46 46 46 45 45 45 45 45 44 44
47 47 47 47 48 49 50 51 52 52 50 49 49 48 47 47 45 45 43 43 43 43 44 44 45 45 46 47 47 47 48 48 48 48 48 47 47 48 48 47 47 46 46
45 45 46 46 46 48 48 49 50 50 50 49 49 48 47 46 45 45 45 45 44 45 46 47 47 47 48 49 49 49 50 50 51 51 51 50 51 51 51 50 49 49 48
44 45 46 46 45 46 47 49 50 49 49 49 48 46 46 46 45 46 46 47 47 47 47 47 48 49 50 51 51 52 51 52 52 53 53 53 53 53 53 52 51 51 51
41 41 42 43 43 44 45 46 48 48 48 47 46 46 46 47 48 48 48 49 50 50 49 49 50 51 52 54 53 53 53 54 55 55 55 55 55 54 53 52 52 52 52
38 39 39 40 41 43 43 44 44 44 45 46 47 47 48 48 48 49 49 50 51 52 52 51 52 53 54 54 54 55 55 57 57 57 57 57 56 54 53 52 51 51 51
32 34 35 36 37 39 40 40 41 42 42 43 45 45 46 46 46 47 48 49 51 52 52 52 53 53 54 54 55 56 57 58 58 58 58 57 56 54 52 51 51 50 50
29 30 32 32 33 34 35 36 37 39 40 41 42 43 44 45 46 46 48 50 51 53 53 52 52 54 54 54 54 55 55 56 56 56 56 56 55 53 52 51 50 50 49
23 25 27 29 30 31 32 34 35 37 38 39 40 42 43 44 46 47 48 49 51 52 53 53 53 53 53 53 54 54 54 54 54 55 55 54 53 52 50 50 49 48 46
18 20 23 26 28 30 32 33 34 35 36 38 40 42 43 45 46 48 49 50 51 52 53 53 54 53 52 53 53 53 52 53 53 53 53 52 50 50 50 49 48 47 45
18 20 22 25 27 30 31 32 34 36 37 38 40 42 44 46 47 48 49 50 51 52 53 53 54 54 54 53 53 53 53 52 52 51 50 49 49 48 47 47 46 45 43
18 21 23 25 27 28 30 32 34 36 37 39 40 41 43 44 46 47 48 50 51 52 52 53 54 55 55 53 53 52 52 52 50 49 49 47 47 46 46 46 45 44 43
20 22 24 25 27 29 31 32 34 36 38 40 42 43 44 44 45 46 47 49 50 51 52 53 54 53 53 53 53 53 51 50 49 48 48 47 46 45 45 44 44 43 43
21 22 25 26 28 29 31 33 34 35 37 39 41 42 43 44 45 47 48 49 50 51 51 52 53 53 53 52 52 51 51 51 49 48 47 46 45 45 45 44 43 43 42
21 23 25 26 28 30 31 32 33 34 36 37 39 41 42 43 45 46 48 49 49 50 50 51 52 52 53 52 52 52 52 51 49 48 47 47 46 46 43 42 41 41 40
22 24 26 27 28 29 31 32 34 35 36 38 40 41 43 44 46 47 48 48 48 49 50 50 50 51 51 52 53 53 52 50 49 48 47 47 45 44 43 40 40 40 40

GEFSMA_500_meanwind_132.txt.gz
Wind_Speed
39 39 39 38 38 37 37 36 36 35 34 33 33 32 31 31 31 31 31 31 31 32 31 31 32 32 32 32 31 31 31 31 30 30 31 31 31 31 31 31 31 32 32
41 41 41 40 39 39 39 38 37 38 37 36 35 35 34 33 33 33 33 33 34 34 33 33 34 33 33 33 32 32 32 32 32 31 32 32 32 33 33 33 33 33 32
43 42 42 42 41 41 40 40 39 39 39 38 37 37 36 36 35 34 35 35 35 35 35 35 35 34 34 34 34 34 34 34 34 34 34 34 34 35 34 35 34 34 33
45 44 44 43 43 43 42 41 41 41 41 40 40 39 38 38 38 37 37 37 37 36 36 36 36 35 35 35 35 36 36 36 37 36 36 36 36 36 36 35 35 34 34
45 45 45 45 45 45 44 43 43 43 43 42 41 41 40 41 40 39 39 38 38 38 38 38 38 37 37 37 37 37 37 38 37 37 37 37 37 36 36 35 35 35 34
47 46 46 46 46 46 45 45 45 45 44 44 43 42 42 43 43 42 42 41 40 39 39 39 39 40 39 39 39 39 39 39 38 38 38 38 38 38 37 37 37 36 36
49 49 48 47 48 47 46 47 47 47 46 45 45 44 44 44 44 44 44 43 42 41 40 40 41 41 41 41 40 40 39 39 40 40 40 39 39 38 38 39 38 37 37
51 51 49 48 49 49 49 48 49 48 46 46 46 46 45 45 46 46 45 45 44 43 42 41 42 42 43 42 41 41 40 40 41 41 41 40 40 40 41 40 40 40 39
53 53 52 51 50 50 51 51 50 49 49 49 48 48 48 46 46 46 46 46 45 45 45 45 44 43 42 42 42 42 42 42 42 43 43 43 43 44 43 42 42 41 41
53 54 54 54 53 51 51 50 50 50 50 50 49 49 49 49 49 49 48 48 48 46 45 44 44 44 44 44 43 43 44 44 45 44 44 44 45 46 46 45 44 44 44
49 51 51 51 51 51 51 50 50 50 50 51 50 49 50 50 49 49 49 49 48 47 46 46 45 45 45 45 45 45 45 46 46 46 45 45 46 47 47 47 46 46 47
46 46 47 48 49 50 50 49 49 49 49 50 49 49 50 50 49 49 49 48 47 46 46 46 46 45 45 46 47 47 47 47 47 48 48 48 48 49 49 49 49 49 50
44 44 44 45 46 48 48 48 48 48 48 49 50 50 50 50 50 50 49 48 47 46 45 46 46 46 46 46 47 47 47 47 48 49 50 50 51 51 51 51 51 52 52
41 42 42 43 45 45 47 48 48 48 48 48 50 51 51 50 51 50 49 48 48 48 47 46 47 49 49 48 47 47 48 48 50 51 51 52 53 52 53 52 52 52 51
39 40 41 41 42 43 44 45 47 48 49 50 50 50 50 50 49 49 48 48 49 50 48 47 47 47 48 48 49 48 49 51 52 52 53 53 54 54 54 53 53 52 51
37 37 38 39 40 40 42 44 46 47 47 49 49 49 48 48 48 48 48 48 48 48 48 47 47 48 48 49 50 50 50 51 52 52 53 53 53 54 54 53 53 52 51
33 33 34 37 38 39 40 41 42 43 44 44 45 46 46 46 47 48 48 49 49 48 49 48 48 49 49 50 51 51 51 51 52 53 54 54 53 53 53 53 53 53 52
27 29 30 32 33 34 35 36 37 39 40 40 40 41 42 44 45 46 47 48 49 49 49 49 50 50 51 51 51 52 52 52 53 54 55 54 53 53 53 53 53 52 52
23 25 28 29 30 31 32 34 35 37 37 37 38 40 41 42 44 45 46 47 47 49 49 50 50 51 51 52 52 53 53 54 55 54 54 53 52 52 52 52 51 51 50
20 22 24 26 28 29 30 31 31 33 35 36 38 40 41 42 43 43 44 45 46 47 49 50 50 51 52 53 53 53 53 55 55 54 52 51 51 50 50 49 48 48 48
19 20 21 22 24 26 27 29 30 32 34 36 38 39 41 42 43 44 44 45 46 47 49 50 50 51 52 52 53 53 54 54 54 53 52 51 50 49 49 47 47 47 47
17 19 20 22 23 25 27 28 30 31 32 34 36 37 39 40 41 43 45 46 47 48 49 50 51 51 52 53 53 54 54 54 53 53 52 50 50 49 48 47 47 47 46
17 18 20 21 22 23 24 25 27 29 31 33 35 37 38 39 41 42 44 46 48 49 50 51 52 52 53 54 54 53 54 53 52 52 52 51 50 49 48 48 47 46 45
18 19 21 22 23 24 26 28 29 31 32 34 36 37 38 39 41 42 43 45 47 49 50 51 52 52 53 53 53 52 52 52 51 51 51 51 50 49 48 48 48 46 44
20 21 22 24 25 27 28 30 31 32 34 35 36 37 37 38 40 41 42 44 45 47 48 49 50 51 52 52 52 51 50 50 50 50 50 50 50 49 47 46 47 46 45
21 22 24 25 27 28 29 30 32 33 34 34 34 35 36 37 38 39 41 42 44 45 46 47 49 49 50 50 49 49 48 48 49 48 48 48 47 47 45 45 46 46 46

GEFSMA_500_meanwind_138.txt.gz
Wind_Speed
37 37 37 37 36 36 36 36 36 36 35 34 34 33 33 33 33 33 32 32 32 32 32 33 32 33 33 32 33 33 33 32 31 31 32 32 31 31 31 31 31 31 31
39 39 39 38 38 38 38 38 38 38 37 37 36 36 35 35 35 35 35 35 35 34 34 34 34 35 34 35 35 34 34 33 33 33 32 32 32 32 33 33 33 32 32
41 41 40 40 40 39 39 39 39 40 39 39 38 38 38 38 38 38 38 38 37 37 37 37 37 37 36 36 35 34 35 35 35 34 34 34 33 33 34 34 34 34 33
42 42 42 42 42 41 41 41 41 41 41 40 40 40 40 40 40 40 40 40 39 39 39 39 39 39 38 37 36 36 36 37 36 36 36 35 35 35 35 35 35 35 35
43 43 43 43 44 44 43 43 43 43 42 42 42 42 42 42 43 42 42 42 42 41 41 41 40 40 40 39 38 38 38 39 38 38 38 38 38 37 37 36 36 37 37
46 45 45 45 45 45 45 45 45 45 44 44 44 43 43 44 44 44 44 44 44 43 43 43 42 42 41 40 41 40 40 40 40 40 39 39 39 39 38 38 38 38 39
48 48 48 49 48 48 48 47 47 46 46 46 46 45 45 45 44 45 45 44 44 45 44 44 44 44 43 43 43 43 42 42 41 41 40 41 41 41 41 40 40 40 41
50 51 51 51 51 50 50 49 50 49 47 47 47 47 47 46 45 45 45 44 45 45 44 44 44 44 44 44 44 43 43 42 42 42 42 42 42 42 42 42 42 42 42
50 51 51 51 51 52 51 51 51 51 49 49 49 49 49 48 46 45 44 44 44 45 45 44 44 44 45 45 45 44 44 43 44 44 43 43 43 44 44 43 43 43 42
49 49 49 50 51 52 52 52 51 51 51 51 51 50 50 50 49 47 46 46 45 45 45 46 45 45 45 46 46 45 45 45 45 44 44 44 44 45 45 45 44 44 44
47 47 48 49 49 50 51 51 52 51 50 50 51 50 50 50 50 50 48 47 47 47 46 47 47 47 47 47 46 45 45 46 46 47 47 46 45 45 45 46 46 47 47
45 46 46 47 47 48 49 50 51 51 50 51 51 51 51 50 50 49 48 48 48 48 48 48 48 48 48 48 47 47 47 48 48 48 47 47 47 47 47 47 47 48 48
42 43 44 44 44 45 46 47 49 50 50 50 50 50 51 51 51 50 50 50 50 50 50 50 50 49 49 48 49 48 49 49 48 48 48 48 49 49 49 49 49 49 49
38 39 40 40 40 40 41 44 46 47 47 48 48 49 50 50 51 51 52 52 52 51 50 51 50 50 49 49 49 49 48 49 48 49 50 49 50 50 50 51 51 50 50
36 37 36 37 38 39 40 40 41 43 45 45 46 46 47 48 49 50 51 53 53 52 51 49 49 49 50 51 51 51 51 51 50 50 50 51 51 51 51 52 52 51 51
34 34 34 36 36 37 37 38 40 41 42 43 44 44 46 47 47 49 50 50 52 53 52 49 49 49 50 51 52 52 52 51 51 51 51 51 52 53 53 53 53 52 53
31 32 33 34 35 35 36 37 37 38 39 40 41 42 43 45 46 47 47 48 48 49 49 49 49 50 51 52 52 52 52 51 51 51 51 51 52 52 53 54 53 53 53
30 31 32 32 33 33 33 33 34 35 36 37 40 41 42 44 45 45 46 47 47 48 49 48 49 50 50 49 50 51 51 51 51 52 52 51 51 52 53 54 53 53 53
27 28 29 29 29 29 30 30 31 33 35 37 38 40 41 41 42 43 45 46 46 47 47 47 46 47 47 48 49 50 50 50 51 52 53 53 53 53 53 54 53 53 52
23 24 25 26 27 27 28 29 30 32 34 35 37 38 39 40 41 42 43 44 45 46 47 47 47 47 48 49 50 50 50 51 52 53 54 54 54 54 54 54 52 52 52
21 22 23 23 24 25 27 29 31 32 33 35 36 38 39 39 41 42 43 44 45 46 47 48 49 49 49 50 50 50 50 51 52 53 53 54 54 54 54 54 53 52 50
19 20 20 22 24 25 27 28 30 31 33 34 35 36 38 39 41 42 43 44 44 45 47 48 49 49 49 49 49 50 50 50 51 51 53 53 53 53 53 53 53 52 50
20 22 22 23 24 25 27 28 29 30 32 33 34 36 37 39 39 41 42 42 43 44 45 46 47 48 49 49 50 50 51 51 52 52 53 52 53 52 52 52 52 51 49
21 22 23 24 25 27 28 29 30 31 32 33 34 36 37 38 40 41 41 42 42 44 45 46 47 47 48 48 49 50 51 52 53 54 53 52 51 51 50 50 50 50 49
22 23 24 25 26 27 28 29 30 31 32 33 34 35 36 38 40 40 41 41 42 42 43 44 45 46 47 48 50 51 52 53 53 53 52 51 50 49 48 48 48 48 47
22 23 24 26 27 28 29 30 30 31 32 33 35 35 36 37 38 39 40 40 41 41 43 43 45 46 47 49 51 52 53 53 52 50 49 49 48 48 47 46 47 47 47

GEFSMA_500_meanwind_144.txt.gz
Wind_Speed
34 35 35 35 35 35 35 35 35 35 35 35 35 35 35 34 34 34 34 34 34 34 33 33 33 33 33 33 33 33 33 33 33 33 32 32 32 33 32 32 32 32 32
35 36 36 36 36 37 37 37 37 38 38 38 37 37 37 37 37 36 36 36 36 36 36 36 36 35 35 35 35 35 35 35 34 34 34 34 34 34 34 34 34 34 33
38 38 38 38 38 38 39 39 39 39 39 40 40 40 40 39 39 39 39 39 39 39 39 38 38 38 38 38 37 37 36 36 36 36 36 36 36 36 36 36 36 36 35
41 41 41 40 40 40 40 41 41 41 41 42 42 42 42 42 42 41 41 40 40 40 40 40 40 40 40 39 39 39 38 37 37 37 37 37 38 38 38 38 37 36 36
42 42 42 42 42 42 43 43 44 43 43 43 43 43 44 44 44 43 43 43 43 42 42 42 42 42 42 41 40 40 39 39 39 39 39 39 39 39 39 39 39 38 37
43 43 44 44 44 43 44 45 45 44 45 45 46 46 46 46 45 45 45 45 45 44 44 44 43 43 43 43 42 41 41 41 41 41 41 41 41 40 40 39 39 39 39
44 44 44 44 45 45 45 45 46 46 46 46 47 48 48 47 46 46 47 46 46 45 44 44 44 44 43 43 42 42 42 43 42 43 43 42 41 41 41 40 40 40 40
45 45 45 45 45 45 46 47 47 47 48 48 48 49 49 48 48 48 47 46 46 46 45 44 44 43 42 42 43 43 43 43 42 42 42 42 42 43 43 42 42 42 42
43 43 43 45 46 46 46 47 48 49 49 49 48 49 49 49 49 48 48 47 46 46 46 47 46 45 44 44 44 44 44 43 43 43 43 43 43 44 45 44 43 43 43
41 41 42 43 44 45 45 46 46 47 48 48 48 47 47 48 48 48 48 48 47 47 47 47 47 47 46 46 46 46 46 46 45 45 45 45 45 45 45 45 45 45 45
39 40 40 41 42 42 43 44 45 45 45 46 47 47 47 48 48 48 48 49 49 49 49 49 50 49 49 49 49 49 48 48 47 47 47 47 48 47 46 46 47 47 47
38 39 40 40 40 41 41 42 42 43 43 44 45 46 47 48 48 49 49 49 50 50 50 50 51 50 50 50 50 50 50 50 49 50 49 48 49 49 49 49 48 49 49
38 38 38 38 39 40 40 41 41 42 42 43 44 45 46 48 48 48 49 48 48 48 49 49 49 49 49 49 49 51 52 51 50 51 50 50 50 50 50 50 49 49 50
36 36 37 37 37 38 39 40 41 41 42 42 43 44 46 46 45 45 46 47 47 47 46 46 46 47 48 48 49 51 51 51 51 51 52 51 51 50 49 49 49 49 50
34 36 36 37 37 37 37 38 40 40 40 40 41 42 42 42 43 43 43 44 46 48 47 46 47 47 48 49 50 51 52 52 51 51 52 51 50 50 50 50 50 50 50
34 34 36 36 37 37 37 38 38 39 40 40 39 39 39 40 41 42 43 44 45 47 48 48 48 47 48 49 50 51 50 50 51 51 51 50 50 51 51 50 50 51 51
32 32 33 34 34 35 35 36 37 37 38 38 38 38 39 39 40 41 43 43 44 45 46 47 48 48 49 49 49 49 49 49 49 49 50 51 51 51 51 51 51 51 51
30 31 32 32 33 33 33 34 35 35 35 36 37 38 38 39 40 41 41 42 43 44 45 45 47 48 48 49 49 49 49 49 49 50 51 51 51 52 52 51 51 51 51
30 30 30 30 31 32 32 33 34 34 34 34 35 36 37 38 39 40 41 42 43 44 45 46 47 47 47 48 49 49 49 50 50 51 51 51 51 52 53 52 52 51 51
29 28 28 29 29 30 31 31 31 31 32 32 33 34 35 36 37 39 40 42 43 43 44 45 45 45 46 47 48 48 49 49 49 51 51 51 52 52 53 52 52 51 51
27 27 27 27 26 27 27 28 28 29 30 31 32 33 33 34 36 38 39 41 41 43 44 46 46 45 46 46 47 48 49 49 50 51 51 51 52 52 52 52 52 51 51
26 26 26 26 25 26 26 27 27 28 29 30 31 32 33 33 35 36 37 39 42 44 45 45 45 46 47 47 48 49 50 51 51 52 52 52 52 52 52 51 52 53 53
25 26 26 26 26 26 27 27 28 28 29 30 31 32 33 34 36 37 38 39 41 42 43 44 45 47 47 48 49 49 51 51 51 51 52 52 52 52 52 52 52 52 53
26 27 27 27 26 27 27 27 28 28 29 30 31 32 33 34 35 37 37 38 39 40 42 43 44 45 46 47 48 48 48 49 50 51 52 52 53 53 53 54 54 54 53
26 27 27 27 27 27 28 28 28 29 30 31 32 33 33 34 35 36 37 38 39 40 41 42 43 44 45 46 47 48 49 50 50 51 52 52 53 54 54 54 54 54 53
26 27 27 28 28 28 28 29 29 30 31 32 33 33 34 35 35 37 38 39 39 40 41 42 43 44 44 46 47 48 49 50 51 51 52 52 52 53 53 52 52 52 51

GEFSMA_500_meanwind_150.txt.gz
Wind_Speed
32 33 33 33 33 33 33 33 33 34 34 35 34 34 35 35 35 35 35 35 35 35 34 34 34 34 34 34 34 34 34 34 34 34 34 34 33 33 33 32 32 32 32
33 33 33 34 35 35 35 35 35 35 35 36 36 36 36 36 36 36 37 37 37 37 36 36 37 36 36 36 36 36 36 35 35 35 35 35 35 35 34 35 35 34 34
34 35 35 36 36 36 37 37 37 37 37 38 38 37 37 38 37 38 38 38 38 38 39 39 39 39 38 38 38 38 38 38 37 37 37 36 36 36 36 36 36 36 35
35 36 36 37 37 37 38 39 39 38 38 39 39 39 39 39 39 40 39 39 39 40 41 41 41 41 40 40 40 39 39 39 38 38 38 38 37 37 37 37 37 37 37
36 37 38 38 39 39 39 40 41 40 39 39 40 41 41 41 41 42 41 42 41 41 42 42 42 42 42 42 42 41 41 41 40 39 39 39 39 39 38 38 39 38 38
36 37 38 39 40 40 40 40 40 41 40 41 41 41 41 42 43 43 43 44 43 43 44 44 44 43 43 43 42 42 42 42 41 41 41 41 41 40 40 40 40 39 39
37 38 38 39 40 40 40 40 39 40 40 41 41 41 42 43 43 44 45 44 44 44 45 45 46 45 45 45 44 44 43 43 42 42 42 42 42 42 42 41 41 40 40
38 39 39 38 39 40 39 40 40 40 41 41 41 42 42 41 42 43 44 44 45 45 45 45 46 46 46 46 45 45 44 44 44 44 43 43 43 43 44 43 43 43 43
37 38 39 39 39 40 40 40 40 41 42 41 41 42 41 41 40 41 43 43 44 44 44 44 45 46 46 47 46 45 45 46 46 45 44 44 44 44 45 44 45 44 44
36 37 38 38 38 39 40 40 40 41 42 42 42 42 42 41 41 40 41 42 43 44 44 43 44 45 45 45 46 45 45 45 45 45 45 45 45 45 45 45 45 45 45
35 36 37 37 37 38 39 39 40 40 41 41 42 42 42 42 42 41 40 39 40 42 43 43 44 44 44 44 45 46 46 46 47 47 47 47 45 45 44 45 44 45 45
35 35 36 37 37 38 38 39 39 39 40 40 41 41 41 41 42 42 41 41 41 41 42 43 42 43 43 44 45 45 45 45 46 46 47 47 46 46 46 46 47 47 47
35 35 36 37 37 37 37 38 38 39 39 39 39 40 41 41 41 41 41 41 40 40 40 40 41 42 44 44 45 45 45 45 45 45 45 46 46 46 47 47 47 47 47
37 37 36 36 36 37 37 37 37 38 38 38 39 40 40 40 40 40 41 41 40 39 39 39 40 41 41 43 43 44 45 46 46 47 47 47 47 47 47 48 49 50 49
37 37 36 36 36 37 37 37 36 36 37 38 38 38 39 39 40 40 40 41 41 40 40 40 40 41 41 42 42 43 43 44 46 47 48 48 48 48 49 49 49 50 50
37 37 37 37 37 37 36 36 37 37 37 38 38 38 38 39 39 40 40 40 40 41 41 40 40 40 41 42 43 44 45 45 46 47 48 49 49 50 50 50 50 51 50
38 38 37 37 37 36 36 36 36 36 36 36 36 37 38 39 40 40 40 40 40 40 40 39 40 40 42 42 43 44 45 47 47 47 48 49 50 51 51 52 52 52 51
38 38 37 37 37 36 36 36 36 36 36 37 37 37 38 38 39 39 40 40 40 40 40 40 40 40 41 42 43 44 45 46 47 48 49 50 51 51 51 51 52 51 51
38 38 38 38 37 37 36 36 36 36 36 36 36 37 37 37 38 38 39 40 40 41 41 41 41 41 41 42 43 44 45 46 47 48 49 50 50 51 51 51 51 50 50
38 38 38 38 37 37 37 37 36 36 36 35 35 36 36 37 38 38 39 39 40 40 41 41 42 42 43 43 44 45 45 46 47 49 49 50 50 51 51 51 51 51 51
38 38 38 37 37 37 37 37 37 36 36 35 35 36 36 37 37 37 38 39 39 40 41 42 43 44 45 45 45 46 46 46 46 47 48 48 49 51 51 51 52 52 52
37 37 37 36 36 36 37 37 36 35 35 35 36 36 36 36 36 37 37 37 38 39 40 41 43 44 44 44 45 45 45 45 45 45 47 47 48 49 51 52 53 54 54
36 35 35 36 36 36 36 36 35 35 35 35 35 35 36 36 36 35 36 37 38 39 40 41 41 42 43 43 44 44 45 44 44 45 46 46 47 48 50 51 53 54 54
35 35 35 34 35 35 35 34 35 35 35 35 35 36 35 35 35 36 36 37 37 38 39 40 41 41 42 43 44 44 44 44 44 45 45 46 47 48 49 51 52 52 53
35 35 34 34 33 34 34 34 34 34 34 34 35 35 35 35 36 37 37 37 37 38 39 40 40 41 42 43 43 43 43 43 43 44 46 47 48 48 48 49 50 51 51
34 34 34 34 33 33 33 34 34 34 34 34 34 34 35 35 35 36 36 37 37 38 38 39 40 41 42 42 42 43 43 44 44 45 46 47 48 48 47 47 48 49 50

GEFSMA_500_meanwind_156.txt.gz
Wind_Speed
28 29 29 30 31 31 32 32 32 32 33 33 33 32 32 33 33 33 33 33 34 34 35 35 36 36 36 36 35 35 35 35 35 35 35 35 35 35 34 34 34 33 33
29 30 30 31 32 32 33 33 33 34 34 34 34 33 33 34 34 35 36 36 35 36 36 36 37 37 37 37 37 37 37 37 36 37 37 37 36 36 36 36 36 36 36
29 31 31 31 32 33 33 34 34 35 35 35 35 36 36 36 36 37 38 38 37 37 37 38 38 38 38 39 39 39 39 39 38 39 38 38 38 38 38 38 38 37 37
30 31 32 32 32 32 33 33 34 35 36 36 37 37 37 38 38 38 39 39 39 39 39 39 39 40 40 40 40 41 41 41 41 40 39 39 40 40 40 40 40 39 39
31 31 31 32 32 32 33 33 33 34 35 36 37 38 38 39 39 39 39 40 40 40 40 40 40 41 41 41 42 42 42 42 43 43 42 42 42 42 41 41 41 40 40
31 31 31 32 32 32 33 33 35 35 36 36 37 38 38 39 40 40 39 39 40 40 40 41 41 41 42 43 43 43 43 44 44 45 45 45 44 43 42 42 41 40 40
32 32 32 32 32 33 34 34 35 35 35 36 37 37 38 39 39 40 40 40 41 41 40 40 40 41 42 43 44 45 45 45 45 46 45 45 44 43 42 42 42 43 42
32 32 31 32 32 33 34 34 35 35 36 36 37 37 37 38 39 40 40 40 40 41 41 41 42 42 42 43 44 45 45 46 45 45 45 45 44 44 43 43 44 44 44
33 33 33 32 33 33 34 35 35 36 36 37 37 37 38 38 39 39 41 41 41 42 42 42 42 42 42 42 42 43 44 45 45 45 44 44 44 45 45 45 45 45 44
33 33 34 33 34 34 35 35 36 37 37 37 38 38 39 39 39 39 40 41 41 41 41 41 41 41 41 41 41 41 42 43 43 44 44 43 44 44 46 46 46 45 44
35 34 34 34 34 35 36 37 38 38 38 38 38 39 39 39 39 39 39 40 40 40 39 39 39 40 41 41 41 41 41 41 41 42 43 42 43 43 44 46 46 46 46
36 36 36 35 35 35 36 37 38 39 39 39 40 39 39 39 38 38 38 38 38 38 39 39 39 40 40 40 41 40 39 39 40 42 42 42 42 43 43 44 45 45 46
36 36 37 37 37 37 38 39 39 39 39 39 39 39 39 39 39 39 38 38 38 38 38 38 39 40 40 39 39 39 39 40 40 40 41 42 42 43 44 44 44 45 46
37 37 37 38 39 40 40 39 39 40 39 39 38 38 38 39 39 40 39 39 39 38 39 39 39 39 39 39 39 39 39 40 40 41 41 41 42 43 44 44 44 45 46
38 38 38 39 39 40 40 40 40 39 39 38 38 38 39 38 39 39 39 39 39 39 39 39 38 39 39 39 40 40 40 40 40 41 42 42 42 43 44 45 46 47 47
39 40 40 40 40 40 40 40 40 39 38 38 38 38 38 38 39 39 39 38 39 39 39 39 39 39 39 40 41 42 43 42 42 42 42 43 44 44 44 46 48 48 48
40 40 41 41 40 40 41 40 40 39 39 39 39 39 39 39 39 39 40 39 39 40 39 39 40 41 41 42 42 43 43 44 44 44 45 45 46 46 46 48 48 49 49
39 40 40 40 41 41 41 41 41 41 41 41 41 41 41 41 41 41 41 41 41 41 41 41 41 42 42 43 42 43 43 44 45 45 45 46 47 47 48 49 49 50 50
39 39 40 40 41 42 42 42 42 42 42 41 41 42 41 41 41 41 41 41 41 41 41 41 41 42 43 43 43 43 44 45 45 45 46 46 46 47 48 49 49 49 50
39 40 40 41 42 42 42 42 42 42 42 42 42 42 41 41 41 41 41 40 41 41 41 40 41 41 42 43 44 45 45 46 46 47 47 47 47 48 48 48 49 50 50
40 41 41 42 42 42 42 42 42 42 42 42 42 42 41 41 41 41 40 40 40 41 41 41 41 41 42 43 44 45 45 46 47 47 47 48 48 48 47 47 48 50 51
41 42 42 42 42 42 42 42 42 42 42 42 42 42 42 41 40 40 40 40 40 40 40 41 41 41 42 42 43 43 44 44 45 45 46 46 47 47 47 48 48 49 50
41 42 43 43 43 43 43 43 43 43 43 42 42 41 41 41 41 40 41 40 40 40 41 41 41 41 41 41 41 42 43 44 44 45 45 45 46 47 47 48 49 49 50
42 43 43 44 44 44 44 44 43 43 43 43 42 42 41 41 40 41 41 40 40 40 41 41 41 41 41 41 41 42 42 43 43 44 44 44 44 45 46 47 48 48 48
43 43 44 44 45 44 44 44 43 43 43 43 43 42 42 41 41 40 40 40 40 40 40 41 41 41 41 41 41 42 42 42 42 42 43 44 44 44 44 45 46 46 47
44 44 44 45 44 44 44 44 43 43 43 42 41 41 41 41 40 40 39 39 39 40 40 40 40 40 40 41 41 41 41 41 41 41 41 42 43 43 43 43 45 45 46

GEFSMA_500_meanwind_162.txt.gz
Wind_Speed
25 24 24 25 25 25 26 26 26 27 27 28 28 29 29 30 31 32 32 32 33 33 34 34 34 34 34 35 35 36 36 37 37 38 37 37 37 36 35 35 35 35 35
25 25 26 26 26 26 27 27 28 28 28 28 29 30 31 31 32 33 33 33 34 34 35 35 36 36 37 37 37 38 38 39 39 39 39 38 38 38 37 36 36 36 37
26 27 27 28 28 28 28 29 29 30 30 30 31 31 31 32 32 32 33 34 35 36 36 37 37 37 38 38 39 39 39 39 39 39 39 40 40 40 39 39 38 38 38
28 28 29 29 29 29 30 30 30 31 31 31 31 32 32 32 33 33 34 35 36 37 37 38 38 38 38 39 39 40 40 40 40 40 40 41 41 42 41 41 40 40 39
29 30 30 31 31 32 32 32 32 32 32 32 33 33 34 34 34 34 35 36 37 37 38 38 38 39 39 39 39 40 40 41 41 41 42 42 42 42 42 42 42 41 41
29 30 31 32 32 32 33 33 33 34 34 34 34 34 34 35 36 36 37 37 37 38 38 38 39 39 39 39 40 40 41 41 42 42 43 44 44 43 43 43 43 42 42
31 32 33 33 33 33 34 35 35 35 35 35 35 35 35 35 35 36 37 38 38 38 38 38 39 39 39 40 40 41 41 42 42 43 43 43 43 43 43 43 43 43 43
31 32 33 33 34 33 33 34 35 36 36 36 36 36 36 36 37 37 38 38 38 38 39 39 39 39 40 40 40 40 41 41 42 43 42 42 42 42 42 42 42 42 42
33 33 33 34 34 34 35 34 34 35 35 36 37 37 37 37 37 38 38 38 38 39 40 40 40 40 40 40 40 40 41 41 41 40 40 40 41 41 41 41 41 42 42
34 33 34 35 34 34 35 35 35 35 36 37 38 39 39 38 38 38 38 39 40 40 40 40 39 39 40 39 39 39 40 40 40 39 39 40 40 40 40 39 39 40 41
36 35 35 35 35 36 37 37 36 36 37 37 38 38 39 39 39 39 39 40 40 40 40 40 40 40 40 40 40 40 39 39 39 39 40 39 40 40 40 40 40 40 41
37 37 36 36 36 37 37 37 37 37 38 38 39 39 39 39 39 39 39 39 39 40 39 39 40 41 41 41 42 41 40 39 40 41 41 40 40 40 40 40 41 41 42
38 38 38 38 37 37 37 36 36 36 37 37 38 39 39 39 39 39 39 39 39 39 39 39 39 40 41 42 42 41 41 41 41 41 41 41 41 41 41 41 42 43 43
38 38 38 38 38 38 37 36 37 37 37 37 37 38 39 39 39 39 39 40 40 39 39 40 41 41 42 42 42 42 42 42 42 42 42 42 42 42 42 42 43 43 43
39 38 38 38 38 39 39 39 39 38 38 39 40 40 40 40 40 40 40 41 41 41 41 41 42 42 43 43 43 43 43 43 43 43 44 44 44 44 44 43 43 44 44
39 39 40 40 40 40 40 41 40 40 40 41 41 42 42 41 41 41 42 42 42 43 42 42 43 43 43 43 43 44 44 44 44 44 45 45 46 45 45 44 44 45 46
39 40 40 41 41 41 42 42 43 43 43 43 43 43 43 43 43 43 43 44 44 44 44 43 43 44 44 43 43 44 44 44 45 45 46 46 46 46 46 46 46 46 46
40 40 41 41 41 42 42 43 44 44 45 45 45 44 44 44 44 44 45 46 46 45 45 44 43 43 43 43 43 43 43 44 45 46 46 47 47 48 47 47 47 47 47
41 41 42 42 42 43 43 44 44 45 45 45 45 45 44 44 45 45 46 46 46 45 45 44 43 42 42 43 43 44 44 44 44 45 46 46 47 48 48 47 47 47 47
42 42 43 43 43 43 44 44 45 45 45 45 45 45 45 45 46 46 46 45 46 45 45 45 44 43 43 43 44 44 45 45 44 44 45 45 46 47 47 47 47 47 47
43 43 43 44 44 45 45 45 46 46 46 46 46 46 46 46 47 47 46 46 46 46 46 45 45 45 44 44 44 44 45 46 46 46 46 46 46 47 47 47 48 48 48
45 45 45 46 46 47 47 47 47 47 48 48 48 47 47 47 47 47 47 47 47 47 47 46 45 45 45 46 45 45 45 45 45 46 46 46 47 47 47 47 48 48 48
46 47 47 48 48 48 48 48 49 49 49 49 48 48 48 48 48 48 48 47 47 48 47 47 46 45 46 46 45 45 45 45 45 45 45 45 46 46 46 47 47 48 48
48 48 48 48 49 49 50 50 51 50 50 49 49 49 48 48 48 48 48 48 48 47 47 46 46 46 46 45 44 44 44 44 44 44 44 44 45 45 45 46 47 47 47
49 49 49 50 50 50 51 51 51 51 50 49 49 49 49 49 49 48 48 48 47 46 46 46 45 45 44 44 43 43 43 43 43 44 45 44 44 44 44 44 45 45 45
50 50 50 51 51 51 51 51 51 51 50 49 49 49 49 49 48 48 47 47 46 46 46 46 45 45 44 43 43 43 43 44 44 43 44 44 44 44 43 43 44 44 44

GEFSMA_500_meanwind_168.txt.gz
Wind_Speed
22 22 23 23 23 24 24 24 24 24 25 25 25 26 26 27 27 28 28 28 28 28 29 30 31 31 32 32 33 33 33 33 34 35 35 36 36 36 36 36 36 36 36
23 23 24 24 25 26 26 26 26 26 26 26 27 27 28 28 29 29 29 30 30 30 30 30 31 31 32 32 33 33 34 34 35 35 35 36 36 36 36 37 37 37 37
24 25 25 26 27 27 28 28 28 28 28 28 29 29 30 30 30 31 31 31 31 31 31 32 31 31 32 33 33 33 34 35 35 35 36 36 36 37 37 37 37 37 38
26 26 27 28 28 29 29 30 30 30 30 30 30 30 31 31 32 32 32 32 33 33 33 33 33 33 33 33 34 34 34 35 36 36 36 37 37 37 37 37 37 38 38
27 28 29 29 29 30 30 31 31 31 32 32 32 32 32 33 33 34 34 34 34 34 33 33 33 33 33 34 34 35 35 36 37 37 38 39 39 38 38 38 38 39 39
28 28 29 29 29 30 31 32 32 32 33 33 33 33 33 34 34 35 35 35 34 34 34 34 35 35 35 35 35 36 37 38 38 38 38 38 38 38 38 38 39 40 40
30 30 30 30 30 31 32 32 33 34 34 34 34 34 34 34 34 35 35 35 35 35 35 35 36 36 37 37 37 38 38 39 40 39 40 40 39 39 39 39 38 38 39
33 31 31 32 32 33 33 33 33 34 34 35 35 35 34 34 35 35 35 35 35 35 35 36 37 38 38 38 38 39 39 39 40 40 41 40 40 40 40 39 39 39 39
34 33 33 33 34 34 34 34 34 34 35 35 35 35 36 35 36 36 36 36 36 36 36 36 37 37 37 38 39 39 41 40 40 40 41 40 40 40 41 40 39 38 38
35 35 34 34 34 35 35 35 35 35 35 35 35 36 36 36 36 35 36 36 36 37 37 37 37 37 39 39 40 40 41 41 41 41 41 40 40 40 40 40 39 39 39
36 36 36 36 36 35 35 35 36 36 36 35 35 35 36 36 36 36 35 36 37 37 38 38 38 39 39 40 40 41 41 41 41 41 41 41 41 41 41 41 41 40 39
38 37 36 36 35 35 34 34 36 37 37 36 36 36 36 36 36 36 36 36 37 38 38 39 40 40 41 41 41 42 42 42 41 42 42 42 42 42 43 42 42 41 41
38 38 37 36 36 35 35 35 36 37 37 37 37 37 37 37 37 37 37 38 38 38 39 40 41 41 42 42 42 42 42 42 42 42 43 42 42 43 43 44 44 43 43
38 38 38 37 38 38 37 37 37 38 38 38 39 39 39 38 38 39 39 40 40 40 40 41 42 43 43 44 44 44 44 43 43 43 43 44 44 44 45 45 46 45 45
38 39 39 40 40 41 40 40 40 39 39 39 40 40 39 39 39 40 41 41 42 42 42 42 43 44 45 45 45 45 44 44 43 43 44 44 45 45 46 46 45 45 46
39 40 40 41 42 42 42 42 42 42 41 41 41 41 41 41 42 42 43 43 44 44 44 44 44 45 45 45 45 45 44 44 44 44 44 45 45 46 46 46 46 46 46
40 41 41 41 41 42 43 43 43 43 43 42 42 42 43 43 44 44 44 45 45 46 46 45 45 45 45 45 45 45 45 44 44 44 45 45 45 45 46 46 46 47 48
41 41 41 42 42 43 43 44 44 45 45 45 44 45 45 45 45 45 45 45 46 46 46 45 45 45 45 45 45 45 45 45 44 44 44 44 44 44 45 46 46 47 48
42 42 42 43 43 44 44 45 45 45 46 46 46 47 46 46 46 46 46 47 47 47 47 46 46 46 47 46 46 46 45 45 45 45 45 45 45 45 46 46 47 47 48
43 43 43 43 44 45 46 46 46 47 47 47 48 48 48 48 48 48 48 48 48 48 47 47 47 47 47 47 47 47 46 46 46 46 46 46 45 46 46 46 47 47 47
45 45 45 45 45 46 47 48 48 48 48 49 49 50 50 50 50 50 49 48 48 48 48 48 48 47 47 47 47 47 47 46 46 47 47 46 46 46 47 47 48 48 48
46 47 47 47 48 48 49 49 50 50 50 50 51 51 51 51 51 50 50 50 50 49 49 49 49 48 48 48 48 47 46 46 46 46 47 47 47 47 47 47 48 48 48
48 48 49 50 50 50 51 51 51 51 51 51 52 52 52 51 52 51 51 51 50 50 50 50 49 48 48 48 47 47 47 46 46 47 47 47 48 48 48 48 47 47 47
49 50 51 51 52 52 52 52 52 52 52 53 52 52 52 52 52 52 51 51 50 50 50 50 49 49 48 48 47 47 47 47 47 47 47 47 47 48 48 47 47 46 46
51 51 52 52 53 53 53 53 53 53 53 53 52 52 52 52 52 51 51 50 50 49 49 49 49 48 48 47 47 46 46 47 46 46 46 46 45 45 45 45 45 45 45
52 52 52 52 52 53 53 53 53 53 53 52 52 52 52 51 51 50 50 50 49 49 49 48 48 48 47 47 46 46 46 46 46 46 45 45 44 43 43 42 43 44 44

GEFSMA_500_meanwind_174.txt.gz
Wind_Speed
25 24 24 23 23 23 24 23 24 24 24 24 25 25 25 26 26 27 27 27 27 28 28 28 29 29 29 29 29 29 29 29 29 30 30 31 32 32 32 32 33 33 33
27 26 25 25 24 24 25 25 25 25 25 25 26 26 27 27 27 28 28 28 28 28 29 29 30 29 29 29 29 29 29 30 30 31 31 32 32 32 32 33 33 34 34
28 26 26 26 26 26 26 26 26 26 26 26 27 28 28 29 29 30 30 30 29 29 30 30 30 30 30 30 30 30 31 31 31 31 31 32 33 33 34 34 34 35 35
28 28 27 26 26 26 26 27 27 27 27 28 29 29 30 30 31 31 31 31 31 31 31 31 31 31 31 31 31 31 32 32 32 32 32 33 34 34 35 35 34 35 35
29 29 28 27 28 28 28 27 27 28 29 30 30 31 31 32 32 32 32 32 32 32 32 32 32 32 32 32 32 33 33 33 33 33 33 33 34 34 35 35 35 35 35
30 30 29 29 29 29 29 29 30 30 30 31 31 31 32 32 32 33 33 33 33 33 33 33 32 33 33 33 33 33 34 34 34 34 34 34 34 35 35 36 37 37 37
30 30 30 29 30 31 30 31 32 32 32 32 32 32 33 33 33 34 33 34 34 34 34 33 33 33 33 33 34 34 35 35 35 36 36 36 36 37 37 37 38 38 37
31 32 31 31 31 32 32 32 33 33 33 33 33 33 33 33 33 34 33 33 34 34 33 33 33 33 33 33 34 34 35 36 37 37 37 38 38 38 38 38 38 39 39
32 32 32 32 33 33 34 33 33 33 33 33 33 34 34 34 34 34 34 34 34 34 34 34 35 35 35 35 35 36 36 37 37 38 39 39 40 40 40 40 40 39 39
33 34 34 34 35 35 35 35 34 34 34 34 35 35 35 35 35 35 35 35 36 36 36 36 37 37 37 37 37 37 38 38 39 40 40 41 41 42 42 42 41 40 40
35 35 35 35 36 37 37 36 36 35 35 36 36 36 37 37 37 37 36 36 37 37 37 38 38 39 39 39 39 39 40 41 41 42 42 42 43 42 42 42 42 41 40
35 36 36 37 37 38 38 37 36 36 36 37 37 38 38 39 39 38 37 37 38 39 39 39 40 40 40 40 40 41 41 42 42 43 44 43 43 43 42 42 42 41 41
36 37 37 37 37 38 38 38 37 38 38 38 39 39 40 40 40 40 40 39 40 40 41 41 41 41 41 42 42 43 44 44 45 45 45 44 44 43 43 43 43 42 42
36 37 38 37 37 38 39 39 39 39 39 39 40 40 41 41 42 42 42 41 41 41 42 42 42 43 43 44 45 45 46 46 46 46 46 45 45 44 43 43 42 43 44
39 40 40 39 39 38 39 40 40 40 40 40 41 41 42 43 44 44 44 44 44 43 43 43 43 44 45 45 46 46 46 46 47 47 46 46 46 45 44 43 43 44 45
41 41 41 41 40 40 40 40 41 41 41 42 42 43 43 44 45 45 46 46 46 46 46 45 45 45 45 46 46 47 47 47 47 47 47 47 46 46 45 44 44 45 45
41 41 41 41 41 42 42 41 42 42 43 43 44 44 45 46 46 47 47 47 47 48 47 46 46 47 47 47 47 47 47 47 47 47 47 47 47 47 46 46 45 45 45
41 41 42 42 43 43 43 43 44 44 45 45 45 45 46 46 47 47 48 48 48 49 49 48 48 48 48 48 48 47 47 48 48 48 48 48 48 48 48 47 46 46 46
42 43 43 43 43 44 45 45 45 46 47 47 47 47 47 47 48 48 49 49 50 50 50 50 50 50 49 48 48 48 48 48 48 48 48 48 49 49 48 47 46 46 46
43 44 43 44 45 46 46 47 47 48 48 49 49 49 49 50 50 50 50 50 50 51 51 51 50 50 49 49 49 49 48 49 48 48 49 49 49 48 48 48 47 47 47
44 44 45 45 46 47 48 48 49 49 50 50 51 52 53 53 52 52 51 51 51 51 51 51 50 50 50 49 49 50 49 49 48 49 49 49 48 47 48 48 48 48 47
45 46 46 47 47 48 48 49 50 51 52 52 53 54 54 54 54 53 52 52 52 52 52 51 51 51 50 51 51 51 50 49 48 49 49 48 48 47 47 47 47 47 47
47 47 48 48 48 49 49 50 51 52 53 53 53 54 54 54 54 53 53 53 52 52 52 52 52 51 51 51 51 51 50 50 49 49 48 47 47 47 46 46 46 46 46
48 49 49 49 50 50 50 51 52 53 53 54 54 54 54 53 53 53 53 52 52 52 52 52 52 51 51 51 50 50 50 49 49 48 48 47 46 46 46 45 45 45 46
50 50 50 51 51 51 52 52 53 53 53 53 53 53 53 53 53 53 53 53 53 53 53 52 52 51 50 50 50 50 50 49 48 47 47 47 46 45 45 44 45 45 45
51 51 51 52 52 52 53 54 54 53 53 53 53 53 53 53 54 54 54 54 54 53 53 52 52 51 51 50 51 51 50 50 49 47 46 47 46 45 44 44 45 45 45

GEFSMA_500_meanwind_180.txt.gz
Wind_Speed
27 27 26 26 26 26 25 25 26 26 26 26 26 26 26 26 26 26 26 27 27 27 27 27 27 28 28 28 27 27 27 27 27 27 28 28 28 28 28 29 30 30 30
28 28 28 28 28 27 27 26 26 26 26 26 27 27 27 27 27 27 27 27 27 27 27 27 27 28 28 28 28 28 28 28 28 28 28 28 29 28 29 29 30 30 31
30 30 30 30 29 29 28 27 27 27 26 27 28 28 28 27 28 28 28 28 28 28 28 27 28 28 28 28 28 28 29 29 29 29 29 29 29 30 29 29 29 30 30
31 30 30 30 31 30 30 28 27 28 28 29 29 29 29 29 29 29 29 29 28 28 28 28 28 29 29 29 29 29 29 29 29 29 29 30 30 30 30 30 30 30 30
31 31 30 30 31 31 30 30 29 30 29 29 30 30 30 30 30 30 30 29 29 29 30 30 30 30 31 30 30 31 30 30 31 31 31 31 31 31 31 32 32 31 31
31 31 31 31 32 32 32 32 31 31 31 31 31 31 32 32 31 31 30 30 30 31 31 31 32 32 32 32 32 32 32 32 32 32 32 32 33 33 33 33 33 33 33
32 33 33 33 34 34 34 34 34 33 33 33 32 33 33 33 32 32 32 32 32 32 32 32 33 34 34 34 34 34 34 34 34 34 34 34 34 35 35 35 35 35 35
33 33 34 34 34 35 35 35 35 35 35 34 34 34 34 34 34 34 34 34 34 34 34 34 34 35 35 35 35 35 35 36 36 36 35 35 36 36 36 36 36 37 37
34 35 35 35 35 36 36 35 36 36 35 35 35 35 35 35 35 35 35 35 35 35 35 35 35 35 36 36 36 36 37 37 38 37 37 37 37 37 37 37 37 37 37
34 35 36 35 36 36 36 36 35 36 36 36 36 36 36 36 35 35 36 36 36 36 37 37 36 36 37 37 37 38 39 39 39 39 39 39 39 38 38 38 38 38 38
35 36 36 36 37 37 37 38 38 37 37 38 38 38 38 38 38 37 37 37 37 38 38 38 38 38 38 38 39 40 40 40 41 40 40 40 40 40 40 39 40 40 40
37 37 37 37 37 38 38 38 39 39 39 40 40 40 40 39 39 39 39 39 39 39 40 40 40 40 40 40 40 41 41 42 42 42 42 41 41 41 41 41 41 41 41
37 37 38 38 38 38 39 40 40 40 41 41 41 41 41 41 40 40 41 41 40 40 41 42 42 42 42 42 42 42 43 43 43 43 43 43 43 43 43 43 43 42 43
37 38 39 38 39 39 40 41 41 42 42 43 42 42 42 42 42 42 42 43 43 43 43 43 43 44 44 44 44 44 44 44 44 44 44 44 44 44 44 44 44 44 45
38 39 39 39 39 40 41 42 43 43 44 43 43 42 43 43 44 44 44 44 45 45 44 44 44 45 45 45 45 45 46 45 45 46 46 46 46 46 46 46 46 46 47
38 38 40 40 41 41 41 43 44 43 43 43 43 43 44 45 45 45 45 46 46 46 45 45 46 46 46 46 46 47 47 47 47 47 47 48 48 47 47 47 47 48 48
38 39 40 41 42 42 42 43 43 43 42 43 43 44 45 45 46 46 46 47 47 47 47 47 47 48 48 48 48 48 49 49 49 49 49 49 50 49 49 49 49 50 49
40 41 41 41 41 41 41 42 43 43 44 44 44 45 45 46 47 47 47 48 48 49 49 49 49 49 49 49 49 50 50 51 51 50 50 51 51 51 51 51 50 50 50
41 41 41 42 42 42 43 43 44 44 45 45 45 46 47 47 48 49 49 50 50 50 50 51 51 51 51 51 51 51 51 51 51 51 52 52 52 52 52 51 51 51 51
42 43 43 44 45 45 45 45 45 46 46 47 47 48 48 49 50 51 52 52 52 52 52 53 52 52 52 52 52 52 51 52 52 52 53 53 53 53 52 52 52 52 52
43 45 45 46 46 46 46 46 46 47 47 49 50 50 51 52 52 53 54 54 54 54 53 54 54 54 54 54 54 54 53 53 53 53 54 54 54 53 53 52 52 53 53
45 46 47 47 47 47 47 47 48 49 49 50 51 52 52 53 54 54 55 55 55 55 55 55 55 56 56 56 56 55 55 54 53 54 54 54 54 53 53 52 52 52 52
46 47 47 47 47 48 48 48 49 50 51 52 52 52 52 53 54 55 55 56 56 57 57 56 56 56 55 56 56 56 55 55 54 55 54 53 53 53 53 52 52 52 51
46 46 47 47 48 49 49 49 50 51 51 52 52 53 53 54 55 55 55 55 56 56 56 57 57 56 56 56 56 55 55 55 55 54 54 53 53 53 53 53 53 52 52
47 47 47 48 49 49 50 51 51 52 52 52 53 54 54 55 55 56 56 55 55 55 55 56 56 56 55 55 55 55 55 55 54 54 54 54 53 52 52 52 51 51 51
49 49 49 50 51 51 52 52 53 53 53 54 54 54 55 55 55 55 55 54 54 55 55 55 54 54 54 54 54 54 55 55 55 54 54 54 53 52 50 49 49 49 49

GEFSMA_500_meanwind_186.txt.gz
Wind_Speed
26 25 25 25 25 24 24 25 25 25 25 25 25 25 25 25 25 24 25 25 25 25 25 25 25 25 25 25 25 25 25 25 26 26 26 26 26 26 26 26 26 26 27
28 27 27 26 26 26 26 26 26 26 26 26 26 27 26 26 26 26 26 26 27 27 26 26 26 27 27 27 27 27 27 28 28 28 28 28 28 28 28 28 28 28 28
29 28 28 28 28 27 27 27 28 28 28 27 28 27 27 27 28 27 28 28 28 27 27 27 27 28 28 29 29 29 29 30 30 30 30 30 30 30 30 30 30 30 30
30 29 29 29 29 29 28 28 28 29 29 29 29 29 29 29 29 29 28 29 29 29 29 28 29 29 29 30 30 30 31 31 31 31 31 31 31 31 31 32 32 31 32
32 31 30 30 30 30 30 29 30 29 30 30 30 30 30 30 30 30 30 30 30 30 30 30 30 30 31 31 31 31 31 32 32 32 32 32 32 32 32 32 33 32 33
34 33 31 31 31 31 31 31 31 31 31 31 31 32 32 32 31 32 32 32 32 32 32 31 31 31 32 32 32 32 32 32 33 33 33 34 34 34 34 34 34 34 34
35 35 33 32 31 31 32 33 33 33 33 33 33 34 34 34 34 33 33 33 33 33 33 33 33 33 33 33 33 33 34 34 34 34 35 35 35 35 35 35 35 35 35
34 35 36 34 33 33 34 34 34 34 35 35 34 35 35 35 35 34 34 34 34 34 35 35 35 35 35 35 35 35 36 36 36 36 36 36 37 37 37 37 37 37 37
34 33 34 35 35 36 35 34 35 35 36 36 36 36 37 36 36 36 36 36 36 36 36 37 37 37 37 37 37 37 37 37 38 38 38 38 38 39 39 39 39 39 39
33 33 34 34 34 34 35 35 35 36 37 37 38 38 39 39 39 38 38 38 38 38 38 38 38 38 38 39 39 39 39 40 40 40 40 40 40 41 41 41 40 40 40
33 33 33 34 34 35 36 37 37 37 38 38 39 39 40 41 41 40 39 38 39 39 39 39 39 39 39 39 40 40 41 41 41 42 42 42 42 42 42 42 42 42 42
34 35 35 36 36 37 38 39 39 39 39 40 41 41 42 42 41 41 40 39 39 40 40 40 40 40 41 41 42 42 42 42 42 43 44 44 44 44 44 44 44 44 43
35 37 37 38 38 39 40 40 41 41 41 41 42 42 42 42 43 43 43 42 40 40 41 42 41 42 43 43 43 44 44 44 44 45 45 45 45 45 45 45 45 45 44
36 37 38 38 39 39 41 41 42 42 43 43 43 43 43 42 43 43 44 44 43 42 41 41 42 43 44 44 45 45 45 45 46 46 46 46 46 46 47 46 46 46 46
37 38 38 38 39 40 40 41 43 43 44 44 44 44 45 45 44 44 44 45 45 44 43 43 44 44 45 46 46 46 47 47 47 47 47 47 47 47 47 47 47 47 47
38 39 40 40 40 40 41 41 43 43 44 44 44 45 45 44 44 44 44 45 46 46 46 46 46 46 46 47 47 48 48 48 48 49 49 49 48 48 48 48 48 48 48
38 39 40 40 41 42 42 43 43 44 45 45 45 45 45 45 45 46 46 46 47 47 47 47 48 48 49 49 49 49 49 49 50 50 50 49 49 49 49 49 50 50 50
39 40 41 41 41 42 43 44 45 45 45 46 46 46 46 46 47 47 47 48 48 48 48 49 49 49 50 51 51 51 50 51 51 51 50 50 50 51 51 51 52 52 52
40 41 41 42 42 43 44 44 45 46 46 46 47 47 47 48 48 49 49 49 50 50 50 51 51 52 52 52 52 51 51 52 51 51 51 52 52 53 53 53 54 54 54
42 42 43 44 45 45 45 45 46 46 47 48 48 49 49 49 50 49 50 51 51 51 52 52 51 52 52 52 53 53 53 53 53 53 54 54 54 55 55 54 54 54 54
43 44 45 45 46 46 46 46 46 47 48 49 49 50 50 51 51 50 51 51 52 53 53 53 53 54 54 54 54 54 55 55 55 56 56 56 56 56 56 56 56 55 55
43 43 44 45 45 46 47 47 47 48 48 49 50 50 50 51 52 52 52 53 54 54 55 55 56 56 56 56 56 56 57 57 56 56 57 57 58 57 57 57 56 56 55
43 44 44 45 45 46 46 46 47 48 48 49 49 50 51 52 53 53 54 54 54 55 56 56 56 56 57 57 58 58 58 58 58 57 58 57 58 57 57 57 56 56 56
44 45 46 46 47 47 47 47 47 48 48 49 50 51 52 52 53 54 54 55 55 55 56 56 56 56 57 58 58 58 58 58 57 57 58 57 57 58 58 57 57 57 57
46 47 47 47 48 48 48 48 48 48 49 50 50 51 53 53 55 55 56 56 56 56 56 57 57 57 57 58 58 58 57 57 56 56 57 57 57 57 57 57 57 57 57
47 47 48 48 48 48 49 49 50 50 50 50 51 52 53 54 55 56 57 56 56 56 56 56 56 56 57 57 57 57 57 57 56 55 55 56 56 57 56 56 56 55 55

GEFSMA_500_meanwind_192.txt.gz
Wind_Speed
29 28 28 27 26 25 25 24 24 24 23 23 23 23 22 22 23 23 23 23 23 23 23 23 24 24 25 25 25 25 24 24 24 24 24 25 25 25 25 25 25 25 25
30 29 29 29 28 27 27 26 26 26 25 25 25 25 25 24 24 24 25 25 24 25 25 25 26 26 26 26 26 26 26 26 26 26 26 26 27 27 27 27 27 27 27
31 31 30 30 30 30 29 28 27 27 27 27 27 26 26 26 26 26 26 26 26 26 26 27 27 27 27 28 28 27 27 27 27 28 28 28 28 28 29 29 28 28 28
32 32 32 31 31 31 31 30 29 28 28 28 28 27 28 27 27 28 27 27 27 27 28 28 28 28 28 28 29 28 28 28 29 29 29 29 29 30 30 30 30 31 31
33 33 33 33 33 32 32 32 31 30 29 29 29 29 29 29 29 30 29 29 29 29 29 29 29 29 29 29 29 29 30 30 30 30 31 31 31 31 31 32 32 32 33
33 33 34 34 34 34 33 32 32 31 30 30 30 30 31 31 31 31 31 31 31 31 31 31 31 31 31 31 31 31 32 32 31 32 32 32 33 33 33 34 34 34 34
33 33 34 35 35 35 34 34 33 32 32 32 32 32 32 32 32 33 33 33 32 32 32 32 32 32 33 33 33 33 33 33 33 34 34 34 35 35 35 35 36 36 36
35 34 34 35 36 36 35 36 35 34 33 34 34 34 34 34 33 33 34 34 33 34 34 34 34 34 34 35 35 35 35 35 35 36 36 36 36 36 36 37 37 37 37
36 35 34 34 35 35 36 37 37 36 36 36 35 36 35 36 35 35 36 36 36 36 37 38 37 37 37 37 37 37 37 37 37 38 38 37 37 38 38 38 39 39 38
37 36 36 35 36 36 36 37 37 38 37 37 37 37 37 38 38 37 37 38 38 39 39 39 39 39 39 39 38 38 38 39 39 39 39 39 39 39 39 39 40 40 40
36 36 36 36 36 36 37 38 38 39 39 38 38 39 39 39 39 39 39 39 39 40 41 41 40 40 40 40 39 39 39 39 40 40 40 40 40 40 41 41 41 41 41
36 36 36 37 37 37 37 38 39 39 40 40 40 40 41 40 41 41 41 40 40 41 42 42 42 41 41 41 41 40 40 40 40 41 41 41 42 42 42 42 42 42 42
37 37 37 37 37 38 38 37 38 40 41 41 42 42 42 42 41 42 42 41 40 41 41 41 42 42 41 41 41 41 41 41 41 42 43 43 43 43 43 43 43 43 43
37 37 38 38 38 38 38 39 39 40 41 41 42 42 42 43 43 43 43 42 42 42 42 41 42 42 42 42 43 43 43 43 43 44 44 45 46 45 45 44 44 44 44
37 38 39 39 39 39 39 40 41 41 41 42 42 43 43 44 43 44 44 44 44 43 43 43 42 44 44 45 45 45 45 46 46 46 47 47 47 46 46 46 46 46 45
37 39 40 40 40 40 40 40 41 42 43 43 43 43 44 45 46 46 45 46 46 46 46 45 45 45 46 47 46 47 47 47 48 48 48 48 48 48 48 48 48 47 47
39 39 38 38 39 40 41 42 42 43 44 44 45 45 46 47 47 48 47 47 47 47 47 47 47 47 47 48 49 48 48 49 49 49 49 50 50 50 50 49 49 49 50
40 39 39 39 40 42 43 43 44 45 45 46 47 47 48 48 48 49 48 48 48 48 48 48 48 49 49 49 50 50 50 49 50 51 51 51 51 51 52 52 52 52 52
40 41 41 41 42 43 44 45 45 46 47 48 49 49 49 49 49 49 49 49 49 49 49 49 49 50 51 51 51 52 52 51 52 52 52 53 53 53 53 54 54 54 54
40 41 41 42 43 44 45 46 47 48 48 48 48 48 49 49 49 50 50 51 50 50 51 51 50 51 52 52 53 53 53 54 54 54 54 55 55 55 55 55 55 56 55
40 41 42 42 43 44 46 47 48 48 48 48 49 49 49 48 49 49 50 51 51 51 51 52 51 51 52 53 54 54 54 55 55 56 56 56 56 56 56 57 57 57 57
42 42 43 43 44 45 45 47 48 49 49 49 49 49 49 49 50 50 50 51 52 52 52 52 52 52 52 53 54 54 54 55 56 57 57 56 57 57 57 58 58 58 57
43 44 44 45 45 46 46 47 47 48 49 49 49 49 49 49 49 50 51 52 52 52 52 52 52 52 53 53 54 55 55 56 56 57 57 56 57 57 57 57 57 57 57
45 45 45 45 45 45 45 46 46 47 48 48 48 49 49 49 49 50 51 51 52 53 53 53 54 54 54 54 55 56 56 56 56 57 58 57 56 56 56 56 57 57 57
45 45 46 46 46 46 46 46 46 47 47 48 48 48 49 50 50 51 51 52 53 54 54 54 54 54 55 55 55 56 56 56 56 55 56 57 56 56 56 55 55 56 57
45 45 46 46 46 46 46 46 47 47 47 48 48 48 48 49 50 51 52 52 52 53 53 53 54 54 55 55 55 55 55 55 55 54 54 55 56 56 56 54 54 55 55

GEFSMA_500_meanwind_198.txt.gz
Wind_Speed
29 28 29 29 29 28 27 27 26 25 26 25 24 23 22 22 22 22 22 22 22 22 22 22 22 23 23 23 23 24 24 24 25 24 24 24 24 24 24 24 23 24 24
29 29 29 29 29 29 29 28 28 27 27 27 26 25 24 24 24 24 24 24 24 24 24 24 24 24 25 25 25 25 25 25 26 26 26 25 25 25 25 26 26 26 25
31 30 30 29 29 30 30 29 29 29 28 28 27 27 27 26 26 26 26 26 26 26 25 25 25 26 26 26 26 26 26 26 27 27 27 27 27 27 27 27 27 27 27
32 32 31 31 30 30 31 31 30 30 30 29 29 29 28 28 27 27 27 27 27 27 27 27 27 27 27 27 27 28 28 28 28 28 28 29 29 29 29 29 29 29 29
33 33 33 32 31 31 31 32 32 32 32 32 31 31 31 30 29 29 29 28 28 29 29 29 29 29 29 29 29 29 29 30 30 30 30 30 30 31 30 30 31 31 31
33 33 34 34 32 32 31 31 32 34 34 34 33 33 33 32 31 31 31 30 30 30 31 31 31 31 30 30 31 31 31 31 31 31 32 32 32 32 32 32 32 32 32
34 34 34 34 33 33 33 33 32 34 35 35 35 35 34 34 33 33 33 33 33 33 32 32 32 32 32 32 32 33 33 33 32 32 33 33 33 33 33 33 33 33 33
34 35 35 36 36 36 35 35 35 34 35 36 36 36 37 36 36 35 36 35 35 35 34 34 33 33 34 34 34 34 34 34 34 34 34 34 35 35 34 35 35 35 35
37 37 37 37 38 37 37 37 37 36 36 37 37 37 37 37 37 37 36 36 36 36 36 36 36 36 36 36 36 36 36 36 36 36 35 36 37 37 37 37 37 37 36
37 37 36 37 38 38 38 38 38 38 38 38 38 38 39 39 39 39 38 39 38 38 38 39 39 38 38 38 37 37 37 38 38 38 38 38 38 38 38 38 38 38 38
38 38 37 37 37 38 39 39 40 40 39 40 40 40 40 39 40 41 40 40 40 40 40 41 41 41 40 40 39 39 39 39 40 40 40 40 40 40 40 40 40 40 41
39 39 38 38 38 38 40 40 40 41 41 41 41 41 41 41 41 41 41 41 41 42 42 42 42 42 42 42 42 41 42 42 42 42 42 41 41 41 41 42 42 43 43
40 40 40 39 39 39 40 40 41 41 42 41 41 42 42 42 42 42 43 43 42 42 43 42 42 43 43 44 44 44 44 43 43 43 43 43 43 43 43 44 44 44 44
40 41 41 41 41 41 41 42 42 42 42 42 42 42 44 44 44 43 44 44 44 43 43 44 43 44 45 45 46 45 45 45 45 45 45 45 45 45 46 46 46 46 46
41 42 43 42 43 42 42 43 42 42 43 44 44 44 44 45 45 45 46 45 45 44 44 45 46 46 46 46 46 46 46 46 46 47 47 47 47 47 47 48 47 47 48
40 42 43 43 43 42 42 43 43 43 43 44 44 45 46 46 47 46 46 46 47 47 47 47 48 48 47 46 46 47 46 47 48 48 48 48 48 49 49 50 49 50 50
40 41 42 43 42 42 43 44 44 44 45 45 45 45 46 47 47 48 48 48 48 49 49 49 49 49 48 47 47 47 48 48 49 49 49 50 50 50 51 52 52 52 52
41 42 43 44 43 43 44 45 45 45 46 46 47 46 45 46 48 48 49 49 49 50 50 50 49 49 49 48 48 48 49 49 50 51 51 51 52 53 53 53 53 53 53
42 43 44 44 43 43 45 45 45 46 46 46 46 46 47 47 48 49 49 50 51 51 51 51 51 50 50 50 50 50 49 50 51 52 53 53 53 53 54 53 54 54 54
42 43 44 44 44 45 45 45 44 45 45 46 47 47 48 48 48 49 50 51 52 51 51 51 51 51 51 51 51 51 51 51 52 53 53 54 54 53 54 55 55 54 54
42 44 44 44 45 45 45 44 45 45 46 46 47 47 48 48 49 49 50 51 52 52 51 52 52 51 51 51 52 52 53 53 54 54 54 54 54 54 55 55 54 54 54
40 42 43 43 43 44 45 45 45 46 46 46 46 47 47 48 49 50 50 51 51 51 51 52 52 52 52 52 52 53 54 54 54 54 55 54 55 55 55 55 54 54 54
38 39 40 41 43 45 45 45 46 46 46 46 46 46 46 47 49 49 49 50 50 50 51 51 52 52 53 53 53 54 55 55 55 55 55 54 55 55 55 55 54 54 54
38 38 39 41 41 41 42 43 44 45 44 45 45 45 45 46 47 48 48 49 49 50 50 51 51 52 52 52 53 54 54 55 55 55 55 54 54 53 53 54 55 54 55
38 37 38 39 40 40 40 42 42 43 44 44 44 45 46 46 48 48 48 48 49 49 50 51 51 51 51 52 53 54 55 55 54 54 55 54 53 52 51 52 54 55 55
38 38 39 40 40 40 41 43 43 43 43 43 44 45 46 47 48 49 48 48 49 49 50 50 51 51 52 53 53 54 54 54 54 53 53 53 52 53 52 52 53 55 55

GEFSMA_500_meanwind_204.txt.gz
Wind_Speed
30 29 29 28 28 28 28 28 28 28 28 28 27 26 25 25 24 23 23 23 23 23 23 23 23 22 22 22 22 23 23 23 23 23 24 23 23 23 23 23 23 23 23
30 29 29 29 29 29 29 29 29 29 29 29 28 28 27 26 26 25 25 25 25 25 25 24 24 23 23 23 24 24 25 25 25 25 25 25 25 25 25 25 24 24 24
30 30 30 31 30 30 30 30 30 30 30 30 30 29 29 28 27 27 26 26 26 26 26 26 25 25 25 25 25 26 26 26 26 26 26 26 26 26 26 26 26 26 25
31 31 31 31 32 31 31 31 32 32 32 32 31 31 30 31 29 29 29 28 28 27 27 27 27 27 27 27 27 27 28 27 27 27 27 27 27 27 27 27 27 27 27
33 31 31 32 32 33 33 33 33 33 33 33 32 31 32 32 32 31 31 30 30 29 29 29 30 30 29 29 29 29 29 29 28 28 28 28 27 27 28 28 28 28 28
34 32 32 31 31 33 34 34 34 34 34 33 33 32 32 33 33 34 33 32 32 32 31 31 31 32 32 31 31 31 31 30 29 29 29 29 29 29 29 29 29 29 29
36 34 34 33 33 33 34 35 35 35 34 34 35 34 34 34 34 34 34 34 34 34 34 34 34 34 34 34 34 33 33 32 31 31 31 30 31 30 30 31 31 31 32
38 37 36 36 35 34 35 36 37 37 37 37 37 37 37 37 36 36 36 36 36 36 36 36 36 36 36 36 36 35 35 34 34 33 33 33 33 33 33 32 33 33 34
39 38 38 38 38 37 37 37 38 38 39 40 40 39 39 39 38 38 37 37 37 37 37 37 37 38 38 37 37 37 37 37 36 36 35 36 36 36 36 36 35 36 36
42 40 39 39 39 39 39 39 38 39 40 41 41 41 41 41 40 39 39 39 39 39 39 39 39 39 39 39 39 38 38 37 38 38 38 38 38 38 38 38 38 38 38
44 42 40 40 40 40 40 40 39 40 40 41 41 42 42 42 42 41 41 41 42 41 41 40 40 41 41 41 41 41 40 39 40 40 40 40 40 41 40 40 40 40 40
43 43 41 41 41 42 42 42 41 41 41 42 43 43 43 43 42 42 42 43 43 43 43 43 43 43 43 43 43 43 43 42 42 42 42 43 43 43 43 43 42 42 42
43 43 43 43 43 43 43 43 43 43 43 44 44 44 43 43 43 44 44 44 43 44 44 45 44 45 44 43 43 43 44 44 44 44 44 45 45 45 45 45 44 44 45
44 44 45 44 43 44 45 45 45 45 45 45 45 44 44 44 44 44 44 44 45 45 46 46 46 47 47 46 45 45 45 46 46 47 47 48 48 48 48 47 47 47 47
44 44 45 44 45 45 46 46 46 46 45 45 45 44 44 44 45 46 45 46 47 47 47 47 47 46 47 47 47 48 48 49 50 50 50 50 49 49 49 49 49 49 49
45 45 44 44 44 45 46 46 46 46 45 44 44 44 44 45 46 46 47 47 48 48 47 48 48 48 47 46 47 49 49 50 51 51 51 52 52 51 51 51 51 51 51
45 46 46 45 44 43 43 43 44 45 45 44 44 45 45 46 48 48 47 48 49 48 48 48 49 49 49 48 49 50 51 51 51 51 52 52 52 52 53 54 53 54 54
44 45 45 44 44 43 43 43 44 45 46 46 46 46 46 47 48 49 49 49 49 49 49 49 49 50 50 51 51 51 51 51 51 52 51 52 52 53 54 56 57 56 57
42 43 43 43 44 44 44 44 45 45 46 46 47 47 47 48 49 49 50 51 50 50 49 49 50 51 52 52 52 52 51 51 52 52 52 52 53 54 55 57 57 58 58
40 41 42 43 44 44 44 44 45 45 46 46 47 48 48 48 49 50 50 49 50 50 51 51 52 52 53 53 53 53 52 53 53 53 53 53 53 54 55 56 57 57 57
38 40 42 42 44 45 44 44 44 45 45 46 47 47 48 48 49 49 49 49 50 51 52 52 53 53 53 53 53 54 54 54 54 54 54 55 55 56 56 56 57 57 56
38 39 41 42 42 44 45 45 44 45 45 45 46 46 47 48 48 49 49 50 50 51 52 52 52 52 52 53 54 53 53 53 54 54 55 55 56 56 56 56 56 55 54
38 39 41 42 43 44 45 45 45 46 46 45 46 46 47 48 48 49 50 50 51 51 51 51 51 50 51 52 53 53 53 53 54 54 56 55 55 55 55 55 54 54 53
40 41 42 42 43 43 45 46 47 47 46 46 46 46 46 47 48 48 48 49 50 51 50 51 51 51 51 51 52 53 53 53 54 55 55 54 54 53 54 53 52 52 52
40 42 43 43 43 43 45 45 46 46 46 46 46 46 46 46 46 46 47 47 48 49 50 51 51 51 51 52 53 53 53 54 54 54 54 53 52 52 51 51 51 52 52
39 40 41 42 42 42 43 44 44 45 45 45 45 46 45 45 44 45 45 46 47 48 49 50 51 51 52 52 53 54 54 54 54 53 53 52 51 51 50 50 50 51 52

GEFSMA_500_meanwind_210.txt.gz
Wind_Speed
31 30 29 28 27 27 27 26 26 25 25 26 27 27 26 26 25 24 23 23 23 22 22 21 21 22 22 21 21 22 21 21 22 22 22 22 22 22 22 22 23 22 22
33 33 32 30 29 29 28 28 27 26 26 27 27 28 28 28 27 27 25 25 24 24 24 23 23 23 22 22 22 22 23 22 23 23 23 23 23 24 24 24 24 23 23
35 34 34 33 32 31 30 30 29 28 27 27 28 29 29 29 30 29 28 27 27 26 26 26 25 25 24 24 24 24 24 24 25 24 24 24 25 25 25 25 24 24 24
35 35 35 35 34 33 32 31 31 30 29 29 29 30 30 31 31 31 30 30 29 28 27 28 28 27 27 27 26 26 26 26 26 26 26 26 27 27 26 25 25 25 25
37 36 36 36 36 35 34 33 33 31 31 31 32 32 32 32 33 32 32 32 31 30 30 30 30 29 29 29 28 28 28 28 28 28 28 28 28 28 27 27 26 26 26
39 37 37 37 37 36 36 35 34 33 33 33 33 33 34 34 34 35 35 34 33 32 32 32 32 31 30 31 31 31 30 30 30 30 30 30 30 29 29 29 28 28 28
40 39 39 39 38 38 37 36 36 35 35 35 35 35 36 37 37 37 37 36 35 35 34 33 33 33 32 32 33 33 33 32 32 32 32 32 31 31 31 31 31 31 30
41 40 41 41 40 38 38 37 37 37 36 36 36 37 38 39 39 40 39 38 38 37 36 36 36 35 35 35 35 35 35 35 35 35 34 34 33 33 33 33 33 33 33
43 42 42 42 43 41 40 40 39 38 37 37 37 37 38 39 40 40 41 40 40 39 39 39 39 38 38 37 37 37 37 37 37 36 36 36 36 36 35 35 35 36 36
45 44 44 44 44 43 41 41 40 40 40 39 39 39 39 39 40 40 41 42 42 42 41 40 40 40 40 40 40 39 40 40 39 39 39 39 39 39 38 38 39 39 39
46 46 45 45 46 44 43 43 42 42 42 42 42 41 40 40 41 41 41 42 42 43 43 43 43 42 41 41 41 42 42 42 42 42 42 42 42 41 41 41 41 41 42
45 47 48 47 47 46 46 45 45 44 43 43 43 42 42 42 42 43 43 43 43 43 44 44 45 44 44 43 43 43 43 44 44 45 45 45 44 44 44 45 45 44 44
46 47 47 48 48 48 48 46 46 46 46 45 45 44 44 44 45 45 45 45 44 44 45 45 46 45 46 45 45 45 45 45 46 46 47 47 47 47 47 47 47 47 47
47 47 48 49 49 49 49 49 47 47 47 47 47 46 45 45 46 47 46 47 46 46 46 46 47 47 47 47 47 47 47 47 48 48 48 48 48 49 50 50 49 49 50
47 47 48 49 50 50 49 49 49 47 46 46 47 46 46 46 46 46 46 47 47 47 46 47 47 47 47 48 48 48 48 48 49 50 51 51 51 51 52 52 52 50 50
47 47 48 48 49 49 49 48 47 47 46 45 45 46 46 46 47 47 47 47 47 47 47 47 47 47 47 48 48 49 50 49 50 51 51 52 52 52 52 51 52 51 51
44 45 46 47 47 48 48 47 46 46 47 46 46 46 47 48 48 48 48 48 48 48 47 47 47 47 48 48 48 49 50 51 51 51 52 52 53 53 53 53 53 53 53
41 42 44 45 45 46 47 47 47 46 46 46 47 47 47 47 48 48 49 49 50 50 49 49 48 49 50 50 50 51 52 52 52 51 52 52 53 54 55 55 56 56 56
39 39 41 42 43 44 46 46 46 46 46 46 46 46 46 47 47 48 49 50 51 51 50 51 50 50 51 52 53 53 52 52 53 52 52 52 54 55 55 56 57 58 58
39 39 40 40 42 43 44 45 45 46 46 47 47 47 47 48 48 48 49 50 51 51 51 52 52 52 52 52 53 53 52 52 52 52 52 53 54 55 56 56 57 58 59
39 40 40 41 41 42 43 45 46 46 46 47 47 46 47 49 49 50 50 50 52 52 53 53 54 54 53 53 53 53 53 52 52 52 52 54 54 55 56 57 58 58 58
38 39 39 39 40 40 41 43 45 45 46 46 46 46 47 47 48 50 51 52 52 53 53 54 54 55 55 55 54 53 53 51 51 52 53 53 55 55 56 56 57 57 57
36 36 38 38 39 39 40 41 43 45 46 46 46 46 46 47 48 49 50 50 51 51 52 53 54 55 55 55 55 53 53 54 53 53 53 53 54 55 55 55 55 56 56
34 35 36 38 39 39 40 41 42 44 45 46 45 45 45 45 45 46 47 48 49 50 52 52 53 53 54 54 54 55 55 55 55 55 54 54 54 54 54 54 54 55 55
34 35 35 37 38 39 40 40 41 42 43 44 44 45 45 46 46 47 47 47 49 50 50 50 50 51 52 53 53 54 54 55 55 54 55 55 53 53 53 52 52 53 54
35 36 36 36 38 39 39 40 41 42 42 43 44 45 45 46 46 47 47 47 47 48 48 49 50 50 50 51 52 53 53 53 54 54 54 54 54 54 53 51 51 51 51

GEFSMA_500_meanwind_216.txt.gz
Wind_Speed
33 33 33 32 31 31 30 28 28 27 27 26 25 25 25 25 24 24 24 23 24 24 23 23 22 22 22 22 21 20 20 19 19 19 19 19 19 20 20 20 20 20 20
34 34 34 34 33 33 32 31 30 29 29 28 27 27 27 27 27 26 25 25 24 24 25 25 24 23 23 23 23 23 22 22 22 22 21 21 21 21 21 21 21 22 22
35 35 35 36 35 34 33 33 32 32 31 30 29 30 29 29 29 29 28 27 26 26 26 26 26 25 25 25 25 25 25 25 25 25 24 24 23 23 23 23 23 23 23
36 36 36 37 38 37 36 34 34 33 33 32 32 32 32 31 31 30 31 31 30 29 29 29 28 28 27 28 28 27 27 27 28 28 27 27 26 25 25 25 25 25 25
38 38 38 38 39 40 39 37 36 35 34 34 34 34 34 33 32 32 32 32 33 32 32 31 30 30 29 29 30 30 29 29 30 30 30 29 29 28 28 28 27 27 27
38 39 40 40 40 39 39 38 38 37 37 36 36 36 36 35 34 34 34 34 34 35 35 34 33 33 32 32 32 32 32 31 31 32 31 31 31 30 30 30 30 30 29
40 40 40 41 41 40 39 39 39 39 38 38 38 37 37 36 36 36 36 36 36 37 37 37 36 36 35 34 34 34 34 33 33 33 33 33 32 32 32 32 33 32 32
42 42 41 42 41 41 41 41 40 40 39 39 39 39 38 38 37 37 37 38 38 38 39 39 38 38 38 38 37 37 36 36 35 35 35 35 34 34 34 34 35 35 34
42 43 42 43 43 41 40 40 41 41 41 41 41 40 40 39 39 38 38 38 39 40 41 42 41 40 41 41 40 39 38 37 36 36 37 37 37 36 36 36 36 36 37
43 44 43 44 44 43 42 42 41 42 42 42 42 42 41 41 41 40 40 40 40 41 42 43 42 42 42 42 42 41 40 40 39 39 39 39 39 39 39 39 38 38 38
41 43 43 45 45 45 45 44 43 44 44 45 44 44 43 43 43 43 42 42 43 43 43 43 43 43 44 44 44 43 43 42 42 42 41 41 42 42 42 42 42 41 41
42 43 44 45 45 45 46 46 45 45 45 46 46 45 45 45 45 45 45 45 44 44 44 44 44 44 45 45 45 45 45 44 44 44 44 44 45 45 45 45 45 45 45
44 44 45 46 46 46 46 47 47 47 47 47 47 48 48 48 48 47 47 47 47 46 46 46 45 45 45 46 46 47 47 47 47 47 47 47 47 47 47 47 48 48 48
44 45 46 47 48 48 49 49 49 49 49 49 49 49 50 50 50 49 48 48 48 48 48 48 47 47 47 48 49 49 49 48 48 48 48 48 48 49 49 50 50 50 50
44 46 46 47 47 48 49 50 50 50 50 50 50 49 50 50 51 51 50 50 49 49 49 49 49 49 49 49 49 49 50 50 50 50 50 50 50 50 50 51 51 51 52
44 45 46 46 46 46 47 48 49 50 51 51 51 50 50 50 50 51 51 50 50 49 50 49 49 49 49 49 49 50 51 51 52 52 52 52 52 52 53 53 53 52 52
43 44 45 45 45 45 46 47 48 48 49 50 50 50 51 51 50 49 50 50 50 50 51 51 50 50 50 50 50 50 51 51 52 53 53 54 54 53 53 53 53 53 53
42 43 43 43 44 44 45 46 46 46 48 49 49 49 50 51 50 50 50 50 50 50 51 51 50 50 51 52 52 52 52 52 53 53 53 54 55 55 54 54 54 55 55
42 44 44 43 43 44 44 44 45 45 47 48 48 48 48 49 49 49 49 49 49 49 49 50 50 50 51 52 52 52 52 53 53 54 54 54 55 56 56 56 56 56 57
43 43 44 44 44 44 44 45 45 46 46 47 47 47 47 47 47 47 47 47 48 48 49 49 50 50 50 51 52 52 52 53 54 54 55 55 56 56 57 57 57 58 59
42 43 43 43 43 43 44 44 44 44 45 46 46 46 47 48 48 47 47 47 47 48 48 49 51 51 51 52 52 53 54 55 55 56 56 56 57 57 57 58 59 60 61
41 42 42 42 41 42 42 42 43 43 44 45 45 45 46 47 48 47 47 46 46 47 48 50 51 52 52 53 53 55 56 56 56 57 58 57 57 57 57 57 58 60 60
39 40 40 40 40 40 40 41 42 43 43 43 43 44 45 46 45 46 47 47 47 48 49 49 50 52 52 53 54 56 56 57 57 57 57 56 55 55 56 56 57 58 59
38 38 38 39 39 40 41 41 42 42 42 42 42 43 44 44 44 46 46 47 48 48 49 49 51 52 53 54 55 56 57 57 57 56 57 56 55 55 55 55 57 57 56
37 37 37 38 38 39 40 40 40 40 40 41 41 41 41 41 43 45 46 46 47 48 49 50 50 51 52 53 54 55 54 54 53 53 54 54 54 54 55 56 56 55 54
36 36 36 36 36 37 38 39 39 39 39 40 41 41 41 41 42 43 45 45 46 46 48 48 49 50 50 51 51 51 51 51 51 50 50 51 52 53 53 53 54 54 53

GEFSMA_500_meanwind_222.txt.gz
Wind_Speed
30 30 30 30 30 29 30 30 30 29 29 28 28 27 26 25 24 24 24 24 24 23 23 23 23 23 22 22 22 21 21 20 20 20 20 20 20 20 20 20 20 20 20
30 30 30 30 30 30 30 30 31 31 31 30 30 30 29 28 27 27 26 27 26 26 26 25 25 26 25 24 24 23 23 23 22 22 22 22 22 22 22 22 22 22 22
32 31 31 31 31 30 30 31 31 31 32 32 32 31 31 31 31 30 29 29 29 28 28 28 28 28 27 27 27 26 26 25 24 24 24 24 24 24 24 24 23 23 24
34 34 34 33 32 32 32 32 32 32 33 33 33 33 33 32 32 31 31 31 31 31 31 30 30 30 30 30 29 29 28 27 26 26 26 26 26 26 26 26 26 26 25
36 36 36 35 34 33 33 34 34 34 34 35 34 35 35 34 33 33 33 33 33 33 33 32 32 32 32 32 32 31 30 30 29 29 28 29 29 29 28 28 28 28 28
37 37 37 36 36 36 35 35 35 35 35 36 36 37 36 36 36 35 35 35 35 35 35 35 35 34 34 34 33 33 33 32 32 31 31 31 31 31 30 31 31 30 30
38 37 37 37 37 37 38 38 37 37 37 37 36 36 37 37 37 38 37 36 36 37 37 37 38 37 36 36 36 35 35 34 34 34 34 33 32 33 33 33 33 33 32
38 38 38 38 38 38 39 39 39 39 38 38 38 37 38 38 39 39 38 38 38 38 39 39 39 39 38 38 39 39 38 37 36 36 36 36 35 35 34 34 35 34 34
40 39 39 39 39 40 40 41 41 41 40 40 40 40 39 38 38 39 40 39 39 39 40 40 41 40 40 40 40 41 41 39 39 38 39 39 38 37 36 36 36 36 36
41 41 40 40 39 40 41 41 41 41 41 41 41 40 41 41 40 39 40 39 40 40 41 41 42 43 42 42 42 42 42 42 41 40 40 40 40 39 38 39 39 39 38
41 42 42 42 41 41 41 42 42 42 42 41 41 41 41 42 42 41 41 41 42 42 43 43 43 43 44 43 44 44 44 43 43 42 41 41 42 42 42 41 41 41 41
42 42 42 43 43 43 42 42 42 42 43 43 43 43 43 42 42 42 42 43 43 44 44 44 44 45 45 44 44 44 45 44 44 43 43 43 43 44 45 44 44 43 44
41 42 42 43 42 42 43 43 43 42 43 43 44 44 44 44 44 44 44 43 44 44 44 44 45 44 44 45 45 46 46 45 46 45 45 45 46 46 46 46 46 46 46
41 41 41 42 42 43 43 43 43 43 43 44 44 45 45 44 45 45 45 45 46 45 45 44 45 45 45 45 46 46 47 46 46 47 48 47 47 47 47 47 48 48 48
41 41 41 41 42 43 44 45 44 45 45 44 45 46 46 46 46 46 46 46 47 47 46 46 46 46 46 47 47 47 47 46 47 47 48 48 49 49 49 49 49 49 49
43 43 42 43 43 43 44 45 45 45 45 45 45 46 45 45 46 46 46 47 47 47 47 48 48 48 48 49 48 48 48 47 47 47 48 49 50 50 50 51 51 51 50
43 43 43 43 43 44 45 46 46 45 45 45 45 45 45 46 46 46 47 47 47 48 48 48 48 48 48 48 48 49 49 48 48 48 48 49 50 50 51 52 52 51 51
43 43 43 43 42 43 44 44 45 44 44 44 45 45 45 46 46 45 46 46 47 48 48 48 47 47 47 48 49 49 49 49 49 49 49 50 51 51 51 51 52 52 53
43 43 43 43 42 43 43 43 44 43 44 45 45 45 44 45 45 45 46 47 48 48 48 48 48 48 47 48 49 50 50 49 49 49 50 51 51 51 51 51 53 54 54
42 43 43 43 43 43 43 42 43 43 44 44 45 44 44 44 45 46 46 47 47 48 48 47 48 49 48 48 48 49 49 48 49 50 51 52 52 53 52 53 53 54 55
41 42 43 43 42 42 42 42 43 43 44 44 44 44 45 45 45 46 47 47 48 48 48 48 48 48 48 47 47 48 49 49 48 49 51 52 53 53 53 53 54 55 56
40 41 41 42 42 42 42 42 43 43 43 43 43 44 44 44 45 46 47 46 47 48 48 48 48 47 46 46 47 48 49 49 49 49 51 51 52 53 54 54 55 56 57
41 40 41 41 41 41 41 41 41 41 42 43 43 43 44 44 45 45 45 45 46 47 48 48 48 47 47 46 47 48 49 49 49 50 51 52 53 54 55 56 56 56 56
41 41 41 41 41 41 41 41 42 42 42 42 42 42 43 44 45 45 45 45 45 46 46 47 46 46 46 46 47 48 49 50 50 50 51 52 53 54 54 55 55 54 54
42 42 42 41 41 41 41 41 42 41 41 41 41 41 42 43 43 43 43 43 43 44 44 46 45 45 46 46 47 47 48 49 50 50 51 52 52 53 53 54 54 53 53
42 42 41 41 41 41 40 40 40 40 40 40 40 40 42 42 42 42 42 42 43 43 43 44 45 45 45 46 46 46 48 49 49 50 50 51 52 52 51 50 51 51 52

GEFSMA_500_meanwind_228.txt.gz
Wind_Speed
29 29 28 29 29 29 29 29 28 27 27 27 27 26 26 27 27 27 26 25 25 25 25 24 24 24 23 23 23 23 23 23 23 23 23 22 22 22 22 22 21 21 20
31 31 30 30 29 29 29 28 28 28 28 28 27 28 28 28 29 29 29 28 28 28 28 28 27 26 26 26 26 26 25 26 26 25 25 25 24 24 24 24 24 23 23
32 32 31 31 30 30 30 29 29 29 29 29 29 29 29 29 29 30 30 30 30 30 30 30 29 29 28 28 28 28 27 27 27 27 27 27 27 26 26 26 26 26 25
33 33 33 33 32 31 31 31 30 31 31 31 31 31 31 31 30 30 31 32 32 32 32 32 32 31 31 31 31 30 30 29 29 29 29 29 29 29 28 28 28 27 27
34 34 34 34 34 33 32 33 32 32 32 32 32 32 32 32 32 31 31 32 33 32 33 33 34 33 33 33 32 32 32 31 31 31 31 31 32 31 30 30 30 29 29
35 35 35 35 35 35 34 34 33 33 34 33 33 33 33 33 33 33 32 32 33 33 34 34 35 35 35 35 35 34 34 34 33 33 34 33 33 33 33 32 32 32 31
36 36 36 36 36 36 36 35 35 35 35 35 34 34 34 35 35 35 34 33 34 34 35 36 36 37 37 37 37 37 36 36 35 36 36 36 35 35 35 35 35 34 34
37 37 37 37 37 37 37 37 36 36 36 37 37 36 35 35 36 35 35 36 36 36 36 37 37 38 38 38 38 38 38 38 38 38 38 38 37 37 38 38 37 37 37
38 38 39 39 39 39 39 39 39 38 38 38 38 38 38 37 36 36 36 37 38 38 38 39 39 40 41 41 40 40 40 41 41 41 41 41 40 39 39 40 39 39 39
39 39 40 40 40 39 39 40 40 40 40 40 40 39 40 39 39 38 38 38 39 39 40 40 40 41 42 42 42 42 42 42 42 43 43 43 43 42 42 42 41 41 41
40 39 39 40 40 40 39 40 40 40 40 40 40 40 40 40 40 40 40 40 40 41 41 41 41 42 42 43 43 43 43 43 43 44 44 44 44 44 44 44 43 43 43
39 39 39 40 40 40 40 40 40 40 40 40 40 40 40 41 41 41 41 41 41 42 42 43 43 43 43 44 44 43 44 44 45 45 46 45 45 45 45 45 45 45 45
39 39 39 40 40 41 40 41 41 41 41 41 40 40 40 41 41 42 42 42 42 42 42 42 43 42 43 43 43 44 45 45 46 46 47 47 47 47 47 47 47 46 46
40 40 40 40 40 41 42 42 42 42 42 42 41 42 42 41 41 42 42 42 42 43 43 42 43 43 43 44 44 45 45 46 46 47 47 47 47 48 48 48 48 48 47
41 41 40 41 41 42 42 43 43 43 43 43 43 44 43 42 42 42 43 43 43 43 43 43 43 43 44 44 44 44 45 46 46 47 47 47 47 47 47 47 48 48 48
42 42 42 42 42 42 43 43 43 43 44 44 43 43 43 43 43 44 44 44 44 44 43 43 44 45 45 45 45 46 46 47 47 47 48 48 48 49 49 48 49 49 49
43 43 43 43 43 43 43 43 43 43 44 44 44 43 44 44 45 44 44 44 44 45 45 44 45 45 45 45 46 47 47 47 48 48 49 49 50 49 50 50 50 49 49
43 43 44 44 44 44 44 44 44 44 44 44 44 44 44 44 44 44 44 44 44 45 45 45 45 46 46 47 47 48 47 48 48 48 49 49 50 50 50 51 51 51 50
44 44 44 44 44 44 44 44 44 44 43 44 44 44 44 44 44 44 44 44 45 46 46 46 46 46 47 48 48 48 47 47 48 49 50 50 50 50 51 51 51 51 50
44 44 44 44 44 44 44 44 44 44 44 44 44 44 44 44 44 44 45 44 45 45 45 45 45 46 47 48 48 48 48 48 49 49 50 51 51 51 51 51 51 51 51
45 45 45 45 45 45 45 44 44 45 44 44 44 45 44 44 43 43 43 44 44 45 45 46 46 46 47 47 48 49 49 50 50 50 51 51 51 51 51 51 51 51 51
45 45 45 45 44 44 45 45 45 45 45 45 45 45 45 45 44 44 43 44 45 45 45 46 46 47 47 48 48 49 50 50 50 51 51 51 51 51 51 51 51 52 52
46 46 45 45 45 44 45 45 45 46 45 45 46 45 45 45 45 45 45 45 46 46 46 47 47 47 47 47 48 49 49 49 49 50 50 49 49 49 50 51 52 53 53
46 46 46 45 45 45 45 45 45 45 45 45 45 46 45 46 46 47 47 46 46 46 47 47 46 46 47 48 48 48 48 48 48 48 50 49 49 49 50 51 51 51 52
45 45 46 45 45 45 45 45 44 44 45 45 46 46 46 46 46 47 47 46 46 46 46 46 46 45 46 47 47 47 47 47 47 48 48 49 49 50 50 51 50 50 51
45 45 45 45 45 44 45 45 44 44 44 45 45 45 45 45 45 45 45 45 45 45 45 44 45 45 45 46 47 47 47 47 47 47 48 48 48 49 49 49 49 49 50

GEFSMA_500_meanwind_234.txt.gz
Wind_Speed
29 28 28 28 27 27 26 26 26 25 25 25 25 25 24 24 24 24 24 24 24 24 24 24 25 24 25 24 24 23 23 23 23 23 23 23 23 23 23 23 23 22 22
29 29 29 29 28 27 27 27 27 27 26 26 26 26 26 26 25 25 26 26 26 26 26 26 26 27 27 26 26 25 25 25 26 26 26 25 25 25 25 25 25 25 25
31 31 30 30 29 29 28 28 27 27 27 26 26 26 26 26 26 26 26 26 27 27 27 28 28 28 28 28 28 28 28 28 28 28 27 27 27 27 27 27 27 27 27
32 32 31 31 30 30 30 29 29 28 28 28 27 27 26 27 27 28 27 28 28 28 28 29 29 29 29 29 29 30 30 30 29 29 29 29 30 29 29 29 29 29 29
32 32 32 32 31 31 31 31 31 30 29 29 29 29 28 28 29 29 29 29 29 30 30 30 30 30 31 31 31 31 31 31 31 30 31 31 31 31 31 31 31 31 31
33 33 33 33 33 32 32 32 31 31 31 31 31 31 30 29 29 30 30 31 31 31 32 31 32 32 32 32 32 32 32 33 33 33 32 32 32 33 33 33 33 33 34
34 34 34 34 34 34 33 33 33 32 32 33 33 33 32 32 31 31 31 32 32 32 32 32 33 33 33 33 34 34 34 34 34 34 34 34 35 34 35 36 36 36 36
34 34 35 35 35 35 35 35 35 34 34 34 34 34 34 34 34 33 34 34 34 34 33 33 34 34 35 35 35 36 36 36 37 36 36 36 37 37 37 38 38 37 37
35 35 35 36 36 36 36 36 36 35 35 35 35 35 35 35 35 35 35 35 36 36 36 35 36 36 36 36 37 37 38 39 39 39 38 38 38 39 39 39 38 39 39
37 36 36 36 36 36 37 37 37 36 36 36 36 36 36 36 36 35 36 36 36 37 37 37 37 37 37 37 38 38 40 41 41 41 40 40 40 41 40 40 39 39 40
39 38 37 37 37 37 38 38 37 37 37 37 37 37 37 37 38 37 37 37 38 38 38 38 39 39 40 39 39 39 40 41 41 41 41 41 41 42 41 41 40 41 41
39 38 38 38 38 39 39 39 39 38 38 38 38 38 38 38 38 39 39 39 39 40 40 40 40 41 41 40 40 40 40 40 41 41 41 41 41 42 42 42 43 43 43
39 39 39 39 39 39 40 40 40 40 39 39 39 39 39 39 39 39 40 40 40 40 40 41 40 41 42 41 41 41 41 41 41 41 41 41 41 42 42 43 43 44 45
40 40 40 40 40 40 40 40 41 40 40 40 40 40 40 40 40 40 40 40 40 40 40 40 41 42 42 41 41 42 42 42 43 42 42 43 43 43 43 44 44 45 45
41 41 42 41 41 41 40 40 41 41 41 41 41 40 40 40 40 41 41 41 41 40 40 41 41 41 41 42 42 43 43 43 44 45 45 45 45 45 45 45 46 46 47
43 42 42 42 42 42 41 41 41 41 41 41 41 42 42 42 42 42 42 42 42 41 42 41 41 42 42 43 43 44 44 45 45 46 46 46 46 47 47 47 47 47 48
44 44 43 43 43 42 42 42 42 42 42 42 42 42 43 43 43 43 43 43 43 43 43 42 42 42 42 43 45 45 45 45 45 46 46 47 47 47 48 48 48 48 48
45 45 44 44 44 44 43 43 43 43 43 43 43 43 43 43 43 43 44 44 44 43 42 42 43 43 44 44 45 46 46 46 46 47 47 48 48 49 49 49 49 49 49
45 46 45 45 44 44 44 44 44 43 44 44 44 43 44 44 44 44 44 45 44 44 44 43 44 45 45 45 45 46 46 46 47 47 48 49 49 49 50 50 50 51 51
47 46 46 46 45 45 45 44 44 44 44 44 45 44 44 44 44 44 44 44 45 45 45 44 45 45 45 46 46 46 46 47 47 48 49 49 50 50 50 51 51 51 52
47 47 47 47 46 45 45 45 45 45 45 45 45 45 45 44 45 45 45 45 45 45 45 45 45 45 45 46 46 46 47 47 48 49 49 49 50 50 50 51 51 52 52
48 48 47 47 47 46 46 45 45 45 45 45 45 45 46 45 45 45 46 46 46 45 46 46 46 46 46 46 46 47 47 48 48 49 49 49 49 49 50 51 51 51 52
48 48 47 47 47 47 46 46 46 45 45 45 45 45 46 46 46 46 46 46 46 47 47 47 46 46 46 47 47 47 47 48 48 49 49 49 50 50 50 50 51 51 52
49 49 49 48 48 48 47 47 46 46 45 45 45 45 45 45 46 46 46 46 46 47 47 47 46 46 46 46 47 47 47 47 48 48 49 49 49 49 50 51 51 52 52
51 50 50 50 49 49 49 49 48 47 47 46 46 45 45 45 45 46 46 46 46 46 47 47 47 46 46 46 46 46 47 47 47 48 48 48 48 49 50 51 51 52 52
51 51 51 51 50 50 50 50 49 49 48 48 47 46 46 46 46 46 45 45 46 46 46 46 46 46 47 47 46 46 47 48 48 48 48 48 49 49 49 49 50 51 50